<?xml version="1.0" encoding="UTF-8" standalone="no" ?>
<gpx xmlns="http://www.topografix.com/GPX/1/1" xmlns:xsi="http://www.w3.org/2001/XMLSchema-instance" xsi:schemaLocation="http://www.topografix.com/GPX/1/1 http://www.topografix.com/GPX/1/1/gpx.xsd" version="1.1" creator="VisuGPX - https://www.visugpx.com">
  <metadata>
    <name>Triel sur Seine</name>
  </metadata>
  <trk>
    <name><![CDATA[Triel sur Seine_1]]></name>
    <trkseg>
      <trkpt lat="48.97995" lon="2.00631">
        <ele>101.6</ele>
        <time>2021-11-13T08:31:11Z</time>
      </trkpt>
      <trkpt lat="48.97995" lon="2.0063">
        <ele>102.2</ele>
        <time>2021-11-13T08:31:17Z</time>
      </trkpt>
      <trkpt lat="48.97995" lon="2.00631">
        <ele>101.1</ele>
        <time>2021-11-13T08:31:22Z</time>
      </trkpt>
      <trkpt lat="48.97995" lon="2.00631">
        <ele>102</ele>
        <time>2021-11-13T08:31:28Z</time>
      </trkpt>
      <trkpt lat="48.97994" lon="2.00632">
        <ele>101.4</ele>
        <time>2021-11-13T08:31:34Z</time>
      </trkpt>
      <trkpt lat="48.97988" lon="2.00639">
        <ele>100</ele>
        <time>2021-11-13T08:31:40Z</time>
      </trkpt>
      <trkpt lat="48.97981" lon="2.00644">
        <ele>100.8</ele>
        <time>2021-11-13T08:31:46Z</time>
      </trkpt>
      <trkpt lat="48.97974" lon="2.00649">
        <ele>101.4</ele>
        <time>2021-11-13T08:31:52Z</time>
      </trkpt>
      <trkpt lat="48.97965" lon="2.00654">
        <ele>101.4</ele>
        <time>2021-11-13T08:31:58Z</time>
      </trkpt>
      <trkpt lat="48.97958" lon="2.00656">
        <ele>97</ele>
        <time>2021-11-13T08:32:04Z</time>
      </trkpt>
      <trkpt lat="48.97954" lon="2.00652">
        <ele>97.4</ele>
        <time>2021-11-13T08:32:10Z</time>
      </trkpt>
      <trkpt lat="48.97952" lon="2.00645">
        <ele>98.9</ele>
        <time>2021-11-13T08:32:16Z</time>
      </trkpt>
      <trkpt lat="48.97948" lon="2.00632">
        <ele>97.1</ele>
        <time>2021-11-13T08:32:22Z</time>
      </trkpt>
      <trkpt lat="48.97946" lon="2.00621">
        <ele>99.1</ele>
        <time>2021-11-13T08:32:28Z</time>
      </trkpt>
      <trkpt lat="48.97945" lon="2.0061">
        <ele>97.8</ele>
        <time>2021-11-13T08:32:34Z</time>
      </trkpt>
      <trkpt lat="48.9794" lon="2.00601">
        <ele>97.9</ele>
        <time>2021-11-13T08:32:39Z</time>
      </trkpt>
      <trkpt lat="48.97933" lon="2.00591">
        <ele>96</ele>
        <time>2021-11-13T08:32:45Z</time>
      </trkpt>
      <trkpt lat="48.9793" lon="2.00579">
        <ele>93.7</ele>
        <time>2021-11-13T08:32:50Z</time>
      </trkpt>
      <trkpt lat="48.97928" lon="2.00567">
        <ele>97.4</ele>
        <time>2021-11-13T08:32:55Z</time>
      </trkpt>
      <trkpt lat="48.97924" lon="2.00558">
        <ele>93.9</ele>
        <time>2021-11-13T08:33:01Z</time>
      </trkpt>
      <trkpt lat="48.9792" lon="2.0055">
        <ele>90.3</ele>
        <time>2021-11-13T08:33:07Z</time>
      </trkpt>
      <trkpt lat="48.97916" lon="2.00539">
        <ele>91.7</ele>
        <time>2021-11-13T08:33:12Z</time>
      </trkpt>
      <trkpt lat="48.97916" lon="2.00526">
        <ele>91</ele>
        <time>2021-11-13T08:33:18Z</time>
      </trkpt>
      <trkpt lat="48.97914" lon="2.0052">
        <ele>91.8</ele>
        <time>2021-11-13T08:33:23Z</time>
      </trkpt>
      <trkpt lat="48.97909" lon="2.0051">
        <ele>89.4</ele>
        <time>2021-11-13T08:33:29Z</time>
      </trkpt>
      <trkpt lat="48.97903" lon="2.00501">
        <ele>90.9</ele>
        <time>2021-11-13T08:33:35Z</time>
      </trkpt>
      <trkpt lat="48.979" lon="2.00494">
        <ele>84.6</ele>
        <time>2021-11-13T08:33:40Z</time>
      </trkpt>
      <trkpt lat="48.97896" lon="2.00486">
        <ele>86.1</ele>
        <time>2021-11-13T08:33:46Z</time>
      </trkpt>
      <trkpt lat="48.97892" lon="2.00477">
        <ele>85.5</ele>
        <time>2021-11-13T08:33:51Z</time>
      </trkpt>
      <trkpt lat="48.97891" lon="2.00468">
        <ele>80.7</ele>
        <time>2021-11-13T08:33:56Z</time>
      </trkpt>
      <trkpt lat="48.97889" lon="2.00459">
        <ele>77.9</ele>
        <time>2021-11-13T08:34:02Z</time>
      </trkpt>
      <trkpt lat="48.9789" lon="2.00452">
        <ele>77.6</ele>
        <time>2021-11-13T08:34:07Z</time>
      </trkpt>
      <trkpt lat="48.97885" lon="2.00446">
        <ele>78</ele>
        <time>2021-11-13T08:34:13Z</time>
      </trkpt>
      <trkpt lat="48.97887" lon="2.00442">
        <ele>76</ele>
        <time>2021-11-13T08:34:19Z</time>
      </trkpt>
      <trkpt lat="48.97893" lon="2.00438">
        <ele>76.3</ele>
        <time>2021-11-13T08:34:24Z</time>
      </trkpt>
      <trkpt lat="48.97899" lon="2.00433">
        <ele>74.7</ele>
        <time>2021-11-13T08:34:29Z</time>
      </trkpt>
      <trkpt lat="48.97905" lon="2.00433">
        <ele>74.4</ele>
        <time>2021-11-13T08:34:35Z</time>
      </trkpt>
      <trkpt lat="48.97906" lon="2.00428">
        <ele>78.2</ele>
        <time>2021-11-13T08:34:41Z</time>
      </trkpt>
      <trkpt lat="48.97911" lon="2.00417">
        <ele>76.1</ele>
        <time>2021-11-13T08:34:47Z</time>
      </trkpt>
      <trkpt lat="48.97911" lon="2.00402">
        <ele>78.3</ele>
        <time>2021-11-13T08:34:53Z</time>
      </trkpt>
      <trkpt lat="48.97907" lon="2.00389">
        <ele>75.2</ele>
        <time>2021-11-13T08:34:58Z</time>
      </trkpt>
      <trkpt lat="48.97904" lon="2.00377">
        <ele>79.3</ele>
        <time>2021-11-13T08:35:03Z</time>
      </trkpt>
      <trkpt lat="48.97901" lon="2.00367">
        <ele>77.3</ele>
        <time>2021-11-13T08:35:08Z</time>
      </trkpt>
      <trkpt lat="48.97897" lon="2.00356">
        <ele>80.5</ele>
        <time>2021-11-13T08:35:14Z</time>
      </trkpt>
      <trkpt lat="48.97896" lon="2.00347">
        <ele>79.7</ele>
        <time>2021-11-13T08:35:19Z</time>
      </trkpt>
      <trkpt lat="48.97894" lon="2.00337">
        <ele>76.8</ele>
        <time>2021-11-13T08:35:25Z</time>
      </trkpt>
      <trkpt lat="48.9789" lon="2.00327">
        <ele>73.2</ele>
        <time>2021-11-13T08:35:30Z</time>
      </trkpt>
      <trkpt lat="48.97883" lon="2.00317">
        <ele>72.6</ele>
        <time>2021-11-13T08:35:36Z</time>
      </trkpt>
      <trkpt lat="48.97879" lon="2.00309">
        <ele>70.5</ele>
        <time>2021-11-13T08:35:41Z</time>
      </trkpt>
      <trkpt lat="48.97874" lon="2.00296">
        <ele>73.4</ele>
        <time>2021-11-13T08:35:47Z</time>
      </trkpt>
      <trkpt lat="48.9787" lon="2.00289">
        <ele>73.9</ele>
        <time>2021-11-13T08:35:52Z</time>
      </trkpt>
      <trkpt lat="48.97866" lon="2.00274">
        <ele>73.4</ele>
        <time>2021-11-13T08:35:58Z</time>
      </trkpt>
      <trkpt lat="48.97869" lon="2.00266">
        <ele>70.9</ele>
        <time>2021-11-13T08:36:03Z</time>
      </trkpt>
      <trkpt lat="48.97868" lon="2.00257">
        <ele>72.4</ele>
        <time>2021-11-13T08:36:09Z</time>
      </trkpt>
      <trkpt lat="48.9787" lon="2.0025">
        <ele>73.6</ele>
        <time>2021-11-13T08:36:14Z</time>
      </trkpt>
      <trkpt lat="48.97877" lon="2.00246">
        <ele>73.9</ele>
        <time>2021-11-13T08:36:20Z</time>
      </trkpt>
      <trkpt lat="48.97887" lon="2.00245">
        <ele>73.8</ele>
        <time>2021-11-13T08:36:26Z</time>
      </trkpt>
      <trkpt lat="48.97895" lon="2.00241">
        <ele>74.3</ele>
        <time>2021-11-13T08:36:32Z</time>
      </trkpt>
      <trkpt lat="48.97901" lon="2.00238">
        <ele>75.8</ele>
        <time>2021-11-13T08:36:37Z</time>
      </trkpt>
      <trkpt lat="48.9791" lon="2.00235">
        <ele>74.7</ele>
        <time>2021-11-13T08:36:43Z</time>
      </trkpt>
      <trkpt lat="48.97918" lon="2.00229">
        <ele>74.6</ele>
        <time>2021-11-13T08:36:49Z</time>
      </trkpt>
      <trkpt lat="48.97926" lon="2.00221">
        <ele>73.4</ele>
        <time>2021-11-13T08:36:54Z</time>
      </trkpt>
      <trkpt lat="48.97934" lon="2.00212">
        <ele>72</ele>
        <time>2021-11-13T08:37:00Z</time>
      </trkpt>
      <trkpt lat="48.97942" lon="2.00206">
        <ele>71.9</ele>
        <time>2021-11-13T08:37:06Z</time>
      </trkpt>
      <trkpt lat="48.97948" lon="2.00201">
        <ele>67.8</ele>
        <time>2021-11-13T08:37:11Z</time>
      </trkpt>
      <trkpt lat="48.97955" lon="2.00198">
        <ele>68.3</ele>
        <time>2021-11-13T08:37:16Z</time>
      </trkpt>
      <trkpt lat="48.97964" lon="2.00194">
        <ele>68.8</ele>
        <time>2021-11-13T08:37:22Z</time>
      </trkpt>
      <trkpt lat="48.97971" lon="2.0019">
        <ele>70.4</ele>
        <time>2021-11-13T08:37:27Z</time>
      </trkpt>
      <trkpt lat="48.97979" lon="2.00183">
        <ele>71.3</ele>
        <time>2021-11-13T08:37:33Z</time>
      </trkpt>
      <trkpt lat="48.97985" lon="2.00178">
        <ele>69.7</ele>
        <time>2021-11-13T08:37:38Z</time>
      </trkpt>
      <trkpt lat="48.9799" lon="2.00173">
        <ele>73.2</ele>
        <time>2021-11-13T08:37:43Z</time>
      </trkpt>
      <trkpt lat="48.97997" lon="2.00167">
        <ele>70.7</ele>
        <time>2021-11-13T08:37:49Z</time>
      </trkpt>
      <trkpt lat="48.98005" lon="2.00161">
        <ele>68.1</ele>
        <time>2021-11-13T08:37:55Z</time>
      </trkpt>
      <trkpt lat="48.9801" lon="2.00155">
        <ele>67.7</ele>
        <time>2021-11-13T08:38:00Z</time>
      </trkpt>
      <trkpt lat="48.98017" lon="2.00145">
        <ele>66.1</ele>
        <time>2021-11-13T08:38:06Z</time>
      </trkpt>
      <trkpt lat="48.98024" lon="2.00138">
        <ele>66.3</ele>
        <time>2021-11-13T08:38:12Z</time>
      </trkpt>
      <trkpt lat="48.9803" lon="2.00134">
        <ele>67.4</ele>
        <time>2021-11-13T08:38:17Z</time>
      </trkpt>
      <trkpt lat="48.98038" lon="2.00132">
        <ele>65.1</ele>
        <time>2021-11-13T08:38:23Z</time>
      </trkpt>
      <trkpt lat="48.98045" lon="2.00129">
        <ele>68.2</ele>
        <time>2021-11-13T08:38:28Z</time>
      </trkpt>
      <trkpt lat="48.98045" lon="2.00124">
        <ele>72</ele>
        <time>2021-11-13T08:38:34Z</time>
      </trkpt>
      <trkpt lat="48.98045" lon="2.00123">
        <ele>68.5</ele>
        <time>2021-11-13T08:38:40Z</time>
      </trkpt>
      <trkpt lat="48.98044" lon="2.00118">
        <ele>67.2</ele>
        <time>2021-11-13T08:38:45Z</time>
      </trkpt>
      <trkpt lat="48.98049" lon="2.0011">
        <ele>63.9</ele>
        <time>2021-11-13T08:38:50Z</time>
      </trkpt>
      <trkpt lat="48.98056" lon="2.00103">
        <ele>62.6</ele>
        <time>2021-11-13T08:38:55Z</time>
      </trkpt>
      <trkpt lat="48.98063" lon="2.00094">
        <ele>60.4</ele>
        <time>2021-11-13T08:39:01Z</time>
      </trkpt>
      <trkpt lat="48.98071" lon="2.00087">
        <ele>60.1</ele>
        <time>2021-11-13T08:39:06Z</time>
      </trkpt>
      <trkpt lat="48.98079" lon="2.0008">
        <ele>60.1</ele>
        <time>2021-11-13T08:39:12Z</time>
      </trkpt>
      <trkpt lat="48.98085" lon="2.00073">
        <ele>63</ele>
        <time>2021-11-13T08:39:17Z</time>
      </trkpt>
      <trkpt lat="48.98092" lon="2.00065">
        <ele>63</ele>
        <time>2021-11-13T08:39:22Z</time>
      </trkpt>
      <trkpt lat="48.981" lon="2.00059">
        <ele>64.4</ele>
        <time>2021-11-13T08:39:28Z</time>
      </trkpt>
      <trkpt lat="48.98108" lon="2.00054">
        <ele>64.2</ele>
        <time>2021-11-13T08:39:33Z</time>
      </trkpt>
      <trkpt lat="48.98116" lon="2.00049">
        <ele>64.9</ele>
        <time>2021-11-13T08:39:39Z</time>
      </trkpt>
      <trkpt lat="48.98125" lon="2.00045">
        <ele>65</ele>
        <time>2021-11-13T08:39:44Z</time>
      </trkpt>
      <trkpt lat="48.98132" lon="2.00041">
        <ele>64.9</ele>
        <time>2021-11-13T08:39:50Z</time>
      </trkpt>
      <trkpt lat="48.98139" lon="2.00037">
        <ele>64.8</ele>
        <time>2021-11-13T08:39:55Z</time>
      </trkpt>
      <trkpt lat="48.98147" lon="2.00033">
        <ele>64.9</ele>
        <time>2021-11-13T08:40:01Z</time>
      </trkpt>
      <trkpt lat="48.98151" lon="2.00032">
        <ele>65.1</ele>
        <time>2021-11-13T08:40:06Z</time>
      </trkpt>
      <trkpt lat="48.98161" lon="2.00026">
        <ele>63.6</ele>
        <time>2021-11-13T08:40:12Z</time>
      </trkpt>
      <trkpt lat="48.98171" lon="2.00021">
        <ele>61.3</ele>
        <time>2021-11-13T08:40:18Z</time>
      </trkpt>
      <trkpt lat="48.98178" lon="2.00022">
        <ele>60.4</ele>
        <time>2021-11-13T08:40:23Z</time>
      </trkpt>
      <trkpt lat="48.98182" lon="2.00026">
        <ele>62.7</ele>
        <time>2021-11-13T08:40:28Z</time>
      </trkpt>
      <trkpt lat="48.98186" lon="2.00031">
        <ele>62.9</ele>
        <time>2021-11-13T08:40:34Z</time>
      </trkpt>
      <trkpt lat="48.98193" lon="2.00034">
        <ele>63.6</ele>
        <time>2021-11-13T08:40:39Z</time>
      </trkpt>
      <trkpt lat="48.98202" lon="2.00032">
        <ele>61.4</ele>
        <time>2021-11-13T08:40:44Z</time>
      </trkpt>
      <trkpt lat="48.9821" lon="2.00027">
        <ele>58.7</ele>
        <time>2021-11-13T08:40:50Z</time>
      </trkpt>
      <trkpt lat="48.98218" lon="2.0002">
        <ele>64</ele>
        <time>2021-11-13T08:40:56Z</time>
      </trkpt>
      <trkpt lat="48.98225" lon="2.00017">
        <ele>63.5</ele>
        <time>2021-11-13T08:41:01Z</time>
      </trkpt>
      <trkpt lat="48.98233" lon="2.00011">
        <ele>61</ele>
        <time>2021-11-13T08:41:07Z</time>
      </trkpt>
      <trkpt lat="48.98241" lon="2.00007">
        <ele>60.4</ele>
        <time>2021-11-13T08:41:13Z</time>
      </trkpt>
      <trkpt lat="48.98248" lon="2.00002">
        <ele>61</ele>
        <time>2021-11-13T08:41:19Z</time>
      </trkpt>
      <trkpt lat="48.98257" lon="1.99997">
        <ele>62.9</ele>
        <time>2021-11-13T08:41:25Z</time>
      </trkpt>
      <trkpt lat="48.98264" lon="1.99993">
        <ele>61.1</ele>
        <time>2021-11-13T08:41:30Z</time>
      </trkpt>
      <trkpt lat="48.98269" lon="1.99988">
        <ele>62.3</ele>
        <time>2021-11-13T08:41:35Z</time>
      </trkpt>
      <trkpt lat="48.98274" lon="1.99983">
        <ele>59.7</ele>
        <time>2021-11-13T08:41:40Z</time>
      </trkpt>
      <trkpt lat="48.98282" lon="1.9998">
        <ele>63.4</ele>
        <time>2021-11-13T08:41:46Z</time>
      </trkpt>
      <trkpt lat="48.98289" lon="1.99976">
        <ele>63.5</ele>
        <time>2021-11-13T08:41:52Z</time>
      </trkpt>
      <trkpt lat="48.98298" lon="1.99973">
        <ele>61.9</ele>
        <time>2021-11-13T08:41:57Z</time>
      </trkpt>
      <trkpt lat="48.98308" lon="1.99968">
        <ele>56.4</ele>
        <time>2021-11-13T08:42:03Z</time>
      </trkpt>
      <trkpt lat="48.98317" lon="1.99962">
        <ele>60.5</ele>
        <time>2021-11-13T08:42:08Z</time>
      </trkpt>
      <trkpt lat="48.98324" lon="1.9996">
        <ele>58</ele>
        <time>2021-11-13T08:42:14Z</time>
      </trkpt>
      <trkpt lat="48.98332" lon="1.99954">
        <ele>59.8</ele>
        <time>2021-11-13T08:42:19Z</time>
      </trkpt>
      <trkpt lat="48.98337" lon="1.99953">
        <ele>58.8</ele>
        <time>2021-11-13T08:42:24Z</time>
      </trkpt>
      <trkpt lat="48.98343" lon="1.9995">
        <ele>59.6</ele>
        <time>2021-11-13T08:42:30Z</time>
      </trkpt>
      <trkpt lat="48.98351" lon="1.99945">
        <ele>62.4</ele>
        <time>2021-11-13T08:42:36Z</time>
      </trkpt>
      <trkpt lat="48.98358" lon="1.99942">
        <ele>64.3</ele>
        <time>2021-11-13T08:42:41Z</time>
      </trkpt>
      <trkpt lat="48.98364" lon="1.99938">
        <ele>64</ele>
        <time>2021-11-13T08:42:47Z</time>
      </trkpt>
      <trkpt lat="48.98373" lon="1.99934">
        <ele>64.5</ele>
        <time>2021-11-13T08:42:53Z</time>
      </trkpt>
      <trkpt lat="48.98381" lon="1.99928">
        <ele>61.8</ele>
        <time>2021-11-13T08:42:58Z</time>
      </trkpt>
      <trkpt lat="48.98388" lon="1.99921">
        <ele>62.6</ele>
        <time>2021-11-13T08:43:03Z</time>
      </trkpt>
      <trkpt lat="48.98394" lon="1.99913">
        <ele>67</ele>
        <time>2021-11-13T08:43:09Z</time>
      </trkpt>
      <trkpt lat="48.98401" lon="1.99906">
        <ele>61.2</ele>
        <time>2021-11-13T08:43:14Z</time>
      </trkpt>
      <trkpt lat="48.98408" lon="1.999">
        <ele>62.2</ele>
        <time>2021-11-13T08:43:19Z</time>
      </trkpt>
      <trkpt lat="48.98415" lon="1.99891">
        <ele>61.1</ele>
        <time>2021-11-13T08:43:25Z</time>
      </trkpt>
      <trkpt lat="48.98422" lon="1.99885">
        <ele>61.4</ele>
        <time>2021-11-13T08:43:30Z</time>
      </trkpt>
      <trkpt lat="48.98427" lon="1.99878">
        <ele>62</ele>
        <time>2021-11-13T08:43:35Z</time>
      </trkpt>
      <trkpt lat="48.98434" lon="1.9987">
        <ele>59</ele>
        <time>2021-11-13T08:43:41Z</time>
      </trkpt>
      <trkpt lat="48.98441" lon="1.99863">
        <ele>59.4</ele>
        <time>2021-11-13T08:43:46Z</time>
      </trkpt>
      <trkpt lat="48.98447" lon="1.99857">
        <ele>58.8</ele>
        <time>2021-11-13T08:43:51Z</time>
      </trkpt>
      <trkpt lat="48.98453" lon="1.99846">
        <ele>59.1</ele>
        <time>2021-11-13T08:43:57Z</time>
      </trkpt>
      <trkpt lat="48.98458" lon="1.99837">
        <ele>56.6</ele>
        <time>2021-11-13T08:44:02Z</time>
      </trkpt>
      <trkpt lat="48.98465" lon="1.99831">
        <ele>56.2</ele>
        <time>2021-11-13T08:44:07Z</time>
      </trkpt>
      <trkpt lat="48.98472" lon="1.99821">
        <ele>54.1</ele>
        <time>2021-11-13T08:44:13Z</time>
      </trkpt>
      <trkpt lat="48.98479" lon="1.99811">
        <ele>55.5</ele>
        <time>2021-11-13T08:44:18Z</time>
      </trkpt>
      <trkpt lat="48.98484" lon="1.99802">
        <ele>58.3</ele>
        <time>2021-11-13T08:44:23Z</time>
      </trkpt>
      <trkpt lat="48.98489" lon="1.99793">
        <ele>59.7</ele>
        <time>2021-11-13T08:44:28Z</time>
      </trkpt>
      <trkpt lat="48.98494" lon="1.99784">
        <ele>57.5</ele>
        <time>2021-11-13T08:44:34Z</time>
      </trkpt>
      <trkpt lat="48.98499" lon="1.99777">
        <ele>60.5</ele>
        <time>2021-11-13T08:44:39Z</time>
      </trkpt>
      <trkpt lat="48.98506" lon="1.99771">
        <ele>57.7</ele>
        <time>2021-11-13T08:44:45Z</time>
      </trkpt>
      <trkpt lat="48.98511" lon="1.99764">
        <ele>60.7</ele>
        <time>2021-11-13T08:44:50Z</time>
      </trkpt>
      <trkpt lat="48.98518" lon="1.99756">
        <ele>57</ele>
        <time>2021-11-13T08:44:56Z</time>
      </trkpt>
      <trkpt lat="48.98522" lon="1.99751">
        <ele>52.8</ele>
        <time>2021-11-13T08:45:01Z</time>
      </trkpt>
      <trkpt lat="48.98525" lon="1.99736">
        <ele>61</ele>
        <time>2021-11-13T08:45:07Z</time>
      </trkpt>
      <trkpt lat="48.98534" lon="1.99725">
        <ele>59.6</ele>
        <time>2021-11-13T08:45:13Z</time>
      </trkpt>
      <trkpt lat="48.98542" lon="1.99715">
        <ele>62.7</ele>
        <time>2021-11-13T08:45:19Z</time>
      </trkpt>
      <trkpt lat="48.98548" lon="1.9971">
        <ele>59.4</ele>
        <time>2021-11-13T08:45:24Z</time>
      </trkpt>
      <trkpt lat="48.98555" lon="1.99699">
        <ele>65.5</ele>
        <time>2021-11-13T08:45:29Z</time>
      </trkpt>
      <trkpt lat="48.98561" lon="1.99689">
        <ele>68.9</ele>
        <time>2021-11-13T08:45:34Z</time>
      </trkpt>
      <trkpt lat="48.98567" lon="1.99681">
        <ele>68.6</ele>
        <time>2021-11-13T08:45:40Z</time>
      </trkpt>
      <trkpt lat="48.9857" lon="1.99674">
        <ele>66.5</ele>
        <time>2021-11-13T08:45:45Z</time>
      </trkpt>
      <trkpt lat="48.98577" lon="1.99664">
        <ele>64.5</ele>
        <time>2021-11-13T08:45:51Z</time>
      </trkpt>
      <trkpt lat="48.98583" lon="1.99657">
        <ele>68.6</ele>
        <time>2021-11-13T08:45:56Z</time>
      </trkpt>
      <trkpt lat="48.98587" lon="1.9965">
        <ele>66.4</ele>
        <time>2021-11-13T08:46:01Z</time>
      </trkpt>
      <trkpt lat="48.98594" lon="1.99641">
        <ele>65.3</ele>
        <time>2021-11-13T08:46:07Z</time>
      </trkpt>
      <trkpt lat="48.98599" lon="1.99633">
        <ele>62.4</ele>
        <time>2021-11-13T08:46:12Z</time>
      </trkpt>
      <trkpt lat="48.98604" lon="1.99624">
        <ele>64.2</ele>
        <time>2021-11-13T08:46:18Z</time>
      </trkpt>
      <trkpt lat="48.9861" lon="1.99615">
        <ele>64.8</ele>
        <time>2021-11-13T08:46:24Z</time>
      </trkpt>
      <trkpt lat="48.98616" lon="1.99609">
        <ele>60.8</ele>
        <time>2021-11-13T08:46:29Z</time>
      </trkpt>
      <trkpt lat="48.98621" lon="1.99602">
        <ele>63</ele>
        <time>2021-11-13T08:46:34Z</time>
      </trkpt>
      <trkpt lat="48.98627" lon="1.99605">
        <ele>63.6</ele>
        <time>2021-11-13T08:46:39Z</time>
      </trkpt>
      <trkpt lat="48.98633" lon="1.99616">
        <ele>68.2</ele>
        <time>2021-11-13T08:46:45Z</time>
      </trkpt>
      <trkpt lat="48.98636" lon="1.99626">
        <ele>69.9</ele>
        <time>2021-11-13T08:46:51Z</time>
      </trkpt>
      <trkpt lat="48.98638" lon="1.99636">
        <ele>68.5</ele>
        <time>2021-11-13T08:46:57Z</time>
      </trkpt>
      <trkpt lat="48.98642" lon="1.99642">
        <ele>69.4</ele>
        <time>2021-11-13T08:47:02Z</time>
      </trkpt>
      <trkpt lat="48.98647" lon="1.99653">
        <ele>71.1</ele>
        <time>2021-11-13T08:47:08Z</time>
      </trkpt>
      <trkpt lat="48.9865" lon="1.99661">
        <ele>72</ele>
        <time>2021-11-13T08:47:13Z</time>
      </trkpt>
      <trkpt lat="48.98651" lon="1.99672">
        <ele>74.5</ele>
        <time>2021-11-13T08:47:19Z</time>
      </trkpt>
      <trkpt lat="48.98647" lon="1.9968">
        <ele>72.9</ele>
        <time>2021-11-13T08:47:25Z</time>
      </trkpt>
      <trkpt lat="48.9864" lon="1.99687">
        <ele>74</ele>
        <time>2021-11-13T08:47:30Z</time>
      </trkpt>
      <trkpt lat="48.98635" lon="1.99694">
        <ele>78</ele>
        <time>2021-11-13T08:47:35Z</time>
      </trkpt>
      <trkpt lat="48.98629" lon="1.99697">
        <ele>78.9</ele>
        <time>2021-11-13T08:47:40Z</time>
      </trkpt>
      <trkpt lat="48.98623" lon="1.99707">
        <ele>79.4</ele>
        <time>2021-11-13T08:47:46Z</time>
      </trkpt>
      <trkpt lat="48.98615" lon="1.99716">
        <ele>78.9</ele>
        <time>2021-11-13T08:47:52Z</time>
      </trkpt>
      <trkpt lat="48.98609" lon="1.99726">
        <ele>79.1</ele>
        <time>2021-11-13T08:47:58Z</time>
      </trkpt>
      <trkpt lat="48.98603" lon="1.99735">
        <ele>81.5</ele>
        <time>2021-11-13T08:48:04Z</time>
      </trkpt>
      <trkpt lat="48.98599" lon="1.9974">
        <ele>79.9</ele>
        <time>2021-11-13T08:48:09Z</time>
      </trkpt>
      <trkpt lat="48.98598" lon="1.99752">
        <ele>75.4</ele>
        <time>2021-11-13T08:48:15Z</time>
      </trkpt>
      <trkpt lat="48.98598" lon="1.99755">
        <ele>77.2</ele>
        <time>2021-11-13T08:48:20Z</time>
      </trkpt>
      <trkpt lat="48.986" lon="1.99762">
        <ele>75.6</ele>
        <time>2021-11-13T08:48:26Z</time>
      </trkpt>
      <trkpt lat="48.98598" lon="1.99772">
        <ele>76.4</ele>
        <time>2021-11-13T08:48:32Z</time>
      </trkpt>
      <trkpt lat="48.98591" lon="1.99781">
        <ele>79.2</ele>
        <time>2021-11-13T08:48:37Z</time>
      </trkpt>
      <trkpt lat="48.98585" lon="1.99788">
        <ele>77.7</ele>
        <time>2021-11-13T08:48:42Z</time>
      </trkpt>
      <trkpt lat="48.9858" lon="1.99795">
        <ele>77.9</ele>
        <time>2021-11-13T08:48:48Z</time>
      </trkpt>
      <trkpt lat="48.98573" lon="1.99804">
        <ele>75.9</ele>
        <time>2021-11-13T08:48:54Z</time>
      </trkpt>
      <trkpt lat="48.98565" lon="1.99817">
        <ele>75</ele>
        <time>2021-11-13T08:49:00Z</time>
      </trkpt>
      <trkpt lat="48.98557" lon="1.99821">
        <ele>76.5</ele>
        <time>2021-11-13T08:49:06Z</time>
      </trkpt>
      <trkpt lat="48.98551" lon="1.99826">
        <ele>77.5</ele>
        <time>2021-11-13T08:49:11Z</time>
      </trkpt>
      <trkpt lat="48.98546" lon="1.99834">
        <ele>76</ele>
        <time>2021-11-13T08:49:16Z</time>
      </trkpt>
      <trkpt lat="48.9854" lon="1.99842">
        <ele>78.6</ele>
        <time>2021-11-13T08:49:22Z</time>
      </trkpt>
      <trkpt lat="48.98535" lon="1.99849">
        <ele>79.4</ele>
        <time>2021-11-13T08:49:27Z</time>
      </trkpt>
      <trkpt lat="48.98529" lon="1.99857">
        <ele>78.1</ele>
        <time>2021-11-13T08:49:32Z</time>
      </trkpt>
      <trkpt lat="48.98522" lon="1.99868">
        <ele>78.2</ele>
        <time>2021-11-13T08:49:38Z</time>
      </trkpt>
      <trkpt lat="48.98515" lon="1.99878">
        <ele>81</ele>
        <time>2021-11-13T08:49:43Z</time>
      </trkpt>
      <trkpt lat="48.98509" lon="1.99887">
        <ele>82.2</ele>
        <time>2021-11-13T08:49:49Z</time>
      </trkpt>
      <trkpt lat="48.98505" lon="1.99893">
        <ele>81.2</ele>
        <time>2021-11-13T08:49:54Z</time>
      </trkpt>
      <trkpt lat="48.98509" lon="1.99902">
        <ele>81.4</ele>
        <time>2021-11-13T08:50:00Z</time>
      </trkpt>
      <trkpt lat="48.98514" lon="1.99909">
        <ele>80.3</ele>
        <time>2021-11-13T08:50:06Z</time>
      </trkpt>
      <trkpt lat="48.98515" lon="1.99914">
        <ele>79.5</ele>
        <time>2021-11-13T08:50:11Z</time>
      </trkpt>
      <trkpt lat="48.98523" lon="1.99925">
        <ele>81.8</ele>
        <time>2021-11-13T08:50:16Z</time>
      </trkpt>
      <trkpt lat="48.98529" lon="1.99929">
        <ele>80.2</ele>
        <time>2021-11-13T08:50:21Z</time>
      </trkpt>
      <trkpt lat="48.98534" lon="1.99937">
        <ele>78.8</ele>
        <time>2021-11-13T08:50:27Z</time>
      </trkpt>
      <trkpt lat="48.98539" lon="1.99945">
        <ele>82.2</ele>
        <time>2021-11-13T08:50:32Z</time>
      </trkpt>
      <trkpt lat="48.98543" lon="1.9995">
        <ele>80.2</ele>
        <time>2021-11-13T08:50:38Z</time>
      </trkpt>
      <trkpt lat="48.9855" lon="1.99955">
        <ele>81</ele>
        <time>2021-11-13T08:50:44Z</time>
      </trkpt>
      <trkpt lat="48.98553" lon="1.99961">
        <ele>84.9</ele>
        <time>2021-11-13T08:50:49Z</time>
      </trkpt>
      <trkpt lat="48.98556" lon="1.99967">
        <ele>83.2</ele>
        <time>2021-11-13T08:50:54Z</time>
      </trkpt>
      <trkpt lat="48.98565" lon="1.99977">
        <ele>93.7</ele>
        <time>2021-11-13T08:51:05Z</time>
      </trkpt>
      <trkpt lat="48.98562" lon="1.99982">
        <ele>95.4</ele>
        <time>2021-11-13T08:51:11Z</time>
      </trkpt>
      <trkpt lat="48.9856" lon="1.99992">
        <ele>98.6</ele>
        <time>2021-11-13T08:51:17Z</time>
      </trkpt>
      <trkpt lat="48.98564" lon="1.99991">
        <ele>97</ele>
        <time>2021-11-13T08:51:22Z</time>
      </trkpt>
      <trkpt lat="48.98569" lon="1.99986">
        <ele>97.5</ele>
        <time>2021-11-13T08:51:28Z</time>
      </trkpt>
      <trkpt lat="48.98574" lon="1.99982">
        <ele>94.1</ele>
        <time>2021-11-13T08:51:34Z</time>
      </trkpt>
      <trkpt lat="48.98578" lon="1.99977">
        <ele>92.3</ele>
        <time>2021-11-13T08:51:39Z</time>
      </trkpt>
      <trkpt lat="48.98582" lon="1.99972">
        <ele>96.8</ele>
        <time>2021-11-13T08:51:44Z</time>
      </trkpt>
      <trkpt lat="48.98587" lon="1.99964">
        <ele>97.5</ele>
        <time>2021-11-13T08:51:50Z</time>
      </trkpt>
      <trkpt lat="48.98592" lon="1.99961">
        <ele>97.1</ele>
        <time>2021-11-13T08:51:55Z</time>
      </trkpt>
      <trkpt lat="48.98594" lon="1.9996">
        <ele>98.7</ele>
        <time>2021-11-13T08:52:00Z</time>
      </trkpt>
      <trkpt lat="48.98597" lon="1.99956">
        <ele>98.5</ele>
        <time>2021-11-13T08:52:06Z</time>
      </trkpt>
      <trkpt lat="48.986" lon="1.99953">
        <ele>99</ele>
        <time>2021-11-13T08:52:12Z</time>
      </trkpt>
      <trkpt lat="48.98598" lon="1.99954">
        <ele>100.5</ele>
        <time>2021-11-13T08:52:18Z</time>
      </trkpt>
      <trkpt lat="48.98596" lon="1.99956">
        <ele>99.5</ele>
        <time>2021-11-13T08:52:23Z</time>
      </trkpt>
      <trkpt lat="48.98594" lon="1.99957">
        <ele>98.5</ele>
        <time>2021-11-13T08:52:29Z</time>
      </trkpt>
      <trkpt lat="48.98595" lon="1.99957">
        <ele>100.1</ele>
        <time>2021-11-13T08:52:34Z</time>
      </trkpt>
      <trkpt lat="48.98595" lon="1.99958">
        <ele>99.7</ele>
        <time>2021-11-13T08:52:39Z</time>
      </trkpt>
      <trkpt lat="48.98595" lon="1.99958">
        <ele>100.6</ele>
        <time>2021-11-13T08:52:44Z</time>
      </trkpt>
      <trkpt lat="48.98595" lon="1.99958">
        <ele>100.6</ele>
        <time>2021-11-13T08:52:50Z</time>
      </trkpt>
      <trkpt lat="48.98594" lon="1.99957">
        <ele>100.7</ele>
        <time>2021-11-13T08:52:56Z</time>
      </trkpt>
      <trkpt lat="48.98594" lon="1.99958">
        <ele>101.2</ele>
        <time>2021-11-13T08:53:01Z</time>
      </trkpt>
      <trkpt lat="48.98594" lon="1.99958">
        <ele>101.3</ele>
        <time>2021-11-13T08:53:06Z</time>
      </trkpt>
      <trkpt lat="48.98594" lon="1.99958">
        <ele>100.8</ele>
        <time>2021-11-13T08:53:12Z</time>
      </trkpt>
      <trkpt lat="48.98594" lon="1.99958">
        <ele>102.1</ele>
        <time>2021-11-13T08:53:18Z</time>
      </trkpt>
      <trkpt lat="48.98594" lon="1.99958">
        <ele>100.5</ele>
        <time>2021-11-13T08:53:23Z</time>
      </trkpt>
      <trkpt lat="48.98595" lon="1.99957">
        <ele>100.3</ele>
        <time>2021-11-13T08:53:29Z</time>
      </trkpt>
      <trkpt lat="48.98596" lon="1.99957">
        <ele>102</ele>
        <time>2021-11-13T08:53:34Z</time>
      </trkpt>
      <trkpt lat="48.98595" lon="1.99957">
        <ele>101.7</ele>
        <time>2021-11-13T08:53:39Z</time>
      </trkpt>
      <trkpt lat="48.98596" lon="1.99958">
        <ele>101.3</ele>
        <time>2021-11-13T08:53:45Z</time>
      </trkpt>
      <trkpt lat="48.98596" lon="1.99957">
        <ele>100.7</ele>
        <time>2021-11-13T08:53:50Z</time>
      </trkpt>
      <trkpt lat="48.98596" lon="1.99957">
        <ele>102.4</ele>
        <time>2021-11-13T08:53:55Z</time>
      </trkpt>
      <trkpt lat="48.98597" lon="1.99957">
        <ele>101.8</ele>
        <time>2021-11-13T08:54:00Z</time>
      </trkpt>
      <trkpt lat="48.98598" lon="1.99957">
        <ele>103</ele>
        <time>2021-11-13T08:54:06Z</time>
      </trkpt>
      <trkpt lat="48.98598" lon="1.99957">
        <ele>102.6</ele>
        <time>2021-11-13T08:54:11Z</time>
      </trkpt>
      <trkpt lat="48.98598" lon="1.99957">
        <ele>103.9</ele>
        <time>2021-11-13T08:54:16Z</time>
      </trkpt>
      <trkpt lat="48.98602" lon="1.99951">
        <ele>103.4</ele>
        <time>2021-11-13T08:54:22Z</time>
      </trkpt>
      <trkpt lat="48.98609" lon="1.99942">
        <ele>103.2</ele>
        <time>2021-11-13T08:54:28Z</time>
      </trkpt>
      <trkpt lat="48.98615" lon="1.99936">
        <ele>100.5</ele>
        <time>2021-11-13T08:54:34Z</time>
      </trkpt>
      <trkpt lat="48.98621" lon="1.99928">
        <ele>100.1</ele>
        <time>2021-11-13T08:54:40Z</time>
      </trkpt>
      <trkpt lat="48.98627" lon="1.99922">
        <ele>99.4</ele>
        <time>2021-11-13T08:54:45Z</time>
      </trkpt>
      <trkpt lat="48.98632" lon="1.99921">
        <ele>101.4</ele>
        <time>2021-11-13T08:54:50Z</time>
      </trkpt>
      <trkpt lat="48.98639" lon="1.99919">
        <ele>103.4</ele>
        <time>2021-11-13T08:54:55Z</time>
      </trkpt>
      <trkpt lat="48.98646" lon="1.99915">
        <ele>101.5</ele>
        <time>2021-11-13T08:55:01Z</time>
      </trkpt>
      <trkpt lat="48.98652" lon="1.99914">
        <ele>101.4</ele>
        <time>2021-11-13T08:55:07Z</time>
      </trkpt>
      <trkpt lat="48.98661" lon="1.99912">
        <ele>99.6</ele>
        <time>2021-11-13T08:55:13Z</time>
      </trkpt>
      <trkpt lat="48.98667" lon="1.99912">
        <ele>99.6</ele>
        <time>2021-11-13T08:55:18Z</time>
      </trkpt>
      <trkpt lat="48.98677" lon="1.99912">
        <ele>96.9</ele>
        <time>2021-11-13T08:55:24Z</time>
      </trkpt>
      <trkpt lat="48.98683" lon="1.99913">
        <ele>98.7</ele>
        <time>2021-11-13T08:55:30Z</time>
      </trkpt>
      <trkpt lat="48.98688" lon="1.99912">
        <ele>105.5</ele>
        <time>2021-11-13T08:55:35Z</time>
      </trkpt>
      <trkpt lat="48.98697" lon="1.99909">
        <ele>103.1</ele>
        <time>2021-11-13T08:55:41Z</time>
      </trkpt>
      <trkpt lat="48.98703" lon="1.99907">
        <ele>102.5</ele>
        <time>2021-11-13T08:55:46Z</time>
      </trkpt>
      <trkpt lat="48.9871" lon="1.99902">
        <ele>107.4</ele>
        <time>2021-11-13T08:55:51Z</time>
      </trkpt>
      <trkpt lat="48.98716" lon="1.99895">
        <ele>105</ele>
        <time>2021-11-13T08:55:57Z</time>
      </trkpt>
      <trkpt lat="48.98721" lon="1.99886">
        <ele>106.7</ele>
        <time>2021-11-13T08:56:02Z</time>
      </trkpt>
      <trkpt lat="48.98727" lon="1.99875">
        <ele>109.2</ele>
        <time>2021-11-13T08:56:08Z</time>
      </trkpt>
      <trkpt lat="48.98733" lon="1.99868">
        <ele>107.4</ele>
        <time>2021-11-13T08:56:14Z</time>
      </trkpt>
      <trkpt lat="48.98741" lon="1.99871">
        <ele>109.1</ele>
        <time>2021-11-13T08:56:20Z</time>
      </trkpt>
      <trkpt lat="48.98745" lon="1.99878">
        <ele>107.8</ele>
        <time>2021-11-13T08:56:25Z</time>
      </trkpt>
      <trkpt lat="48.9875" lon="1.99884">
        <ele>108.7</ele>
        <time>2021-11-13T08:56:30Z</time>
      </trkpt>
      <trkpt lat="48.98758" lon="1.99883">
        <ele>108.3</ele>
        <time>2021-11-13T08:56:36Z</time>
      </trkpt>
      <trkpt lat="48.98765" lon="1.99879">
        <ele>108.2</ele>
        <time>2021-11-13T08:56:41Z</time>
      </trkpt>
      <trkpt lat="48.98773" lon="1.99872">
        <ele>111.2</ele>
        <time>2021-11-13T08:56:47Z</time>
      </trkpt>
      <trkpt lat="48.98779" lon="1.99867">
        <ele>111.5</ele>
        <time>2021-11-13T08:56:52Z</time>
      </trkpt>
      <trkpt lat="48.98782" lon="1.99868">
        <ele>112.2</ele>
        <time>2021-11-13T08:56:57Z</time>
      </trkpt>
      <trkpt lat="48.98787" lon="1.99876">
        <ele>107.2</ele>
        <time>2021-11-13T08:57:02Z</time>
      </trkpt>
      <trkpt lat="48.98793" lon="1.99883">
        <ele>112.7</ele>
        <time>2021-11-13T08:57:08Z</time>
      </trkpt>
      <trkpt lat="48.98801" lon="1.99889">
        <ele>114.9</ele>
        <time>2021-11-13T08:57:14Z</time>
      </trkpt>
      <trkpt lat="48.98807" lon="1.99899">
        <ele>116.8</ele>
        <time>2021-11-13T08:57:20Z</time>
      </trkpt>
      <trkpt lat="48.98812" lon="1.99907">
        <ele>117.3</ele>
        <time>2021-11-13T08:57:25Z</time>
      </trkpt>
      <trkpt lat="48.98817" lon="1.99913">
        <ele>117.3</ele>
        <time>2021-11-13T08:57:30Z</time>
      </trkpt>
      <trkpt lat="48.98822" lon="1.99922">
        <ele>120.4</ele>
        <time>2021-11-13T08:57:36Z</time>
      </trkpt>
      <trkpt lat="48.98827" lon="1.9993">
        <ele>119.6</ele>
        <time>2021-11-13T08:57:42Z</time>
      </trkpt>
      <trkpt lat="48.98833" lon="1.99929">
        <ele>123</ele>
        <time>2021-11-13T08:57:48Z</time>
      </trkpt>
      <trkpt lat="48.98839" lon="1.99921">
        <ele>124.3</ele>
        <time>2021-11-13T08:57:54Z</time>
      </trkpt>
      <trkpt lat="48.98843" lon="1.99914">
        <ele>122.9</ele>
        <time>2021-11-13T08:57:59Z</time>
      </trkpt>
      <trkpt lat="48.98848" lon="1.99904">
        <ele>123</ele>
        <time>2021-11-13T08:58:05Z</time>
      </trkpt>
      <trkpt lat="48.98846" lon="1.9989">
        <ele>120.2</ele>
        <time>2021-11-13T08:58:11Z</time>
      </trkpt>
      <trkpt lat="48.98839" lon="1.99881">
        <ele>118.8</ele>
        <time>2021-11-13T08:58:17Z</time>
      </trkpt>
      <trkpt lat="48.98833" lon="1.99876">
        <ele>117.3</ele>
        <time>2021-11-13T08:58:23Z</time>
      </trkpt>
      <trkpt lat="48.98827" lon="1.99873">
        <ele>114.4</ele>
        <time>2021-11-13T08:58:28Z</time>
      </trkpt>
      <trkpt lat="48.9882" lon="1.99867">
        <ele>115.5</ele>
        <time>2021-11-13T08:58:33Z</time>
      </trkpt>
      <trkpt lat="48.98814" lon="1.9986">
        <ele>115.1</ele>
        <time>2021-11-13T08:58:38Z</time>
      </trkpt>
      <trkpt lat="48.98808" lon="1.99851">
        <ele>115.2</ele>
        <time>2021-11-13T08:58:44Z</time>
      </trkpt>
      <trkpt lat="48.988" lon="1.99842">
        <ele>111.7</ele>
        <time>2021-11-13T08:58:50Z</time>
      </trkpt>
      <trkpt lat="48.98795" lon="1.99833">
        <ele>112.6</ele>
        <time>2021-11-13T08:58:56Z</time>
      </trkpt>
      <trkpt lat="48.98791" lon="1.99824">
        <ele>113.1</ele>
        <time>2021-11-13T08:59:01Z</time>
      </trkpt>
      <trkpt lat="48.98787" lon="1.99817">
        <ele>110.8</ele>
        <time>2021-11-13T08:59:06Z</time>
      </trkpt>
      <trkpt lat="48.9878" lon="1.99806">
        <ele>114.1</ele>
        <time>2021-11-13T08:59:11Z</time>
      </trkpt>
      <trkpt lat="48.98775" lon="1.99795">
        <ele>114.1</ele>
        <time>2021-11-13T08:59:17Z</time>
      </trkpt>
      <trkpt lat="48.9877" lon="1.99788">
        <ele>110.7</ele>
        <time>2021-11-13T08:59:23Z</time>
      </trkpt>
      <trkpt lat="48.98769" lon="1.9978">
        <ele>109.1</ele>
        <time>2021-11-13T08:59:29Z</time>
      </trkpt>
      <trkpt lat="48.98766" lon="1.9977">
        <ele>106.2</ele>
        <time>2021-11-13T08:59:34Z</time>
      </trkpt>
      <trkpt lat="48.9876" lon="1.99762">
        <ele>106.3</ele>
        <time>2021-11-13T08:59:39Z</time>
      </trkpt>
      <trkpt lat="48.98757" lon="1.99752">
        <ele>104.6</ele>
        <time>2021-11-13T08:59:45Z</time>
      </trkpt>
      <trkpt lat="48.98759" lon="1.99742">
        <ele>102.7</ele>
        <time>2021-11-13T08:59:50Z</time>
      </trkpt>
      <trkpt lat="48.98764" lon="1.99736">
        <ele>103</ele>
        <time>2021-11-13T08:59:55Z</time>
      </trkpt>
      <trkpt lat="48.98772" lon="1.9973">
        <ele>102</ele>
        <time>2021-11-13T09:00:01Z</time>
      </trkpt>
      <trkpt lat="48.98779" lon="1.99724">
        <ele>101.6</ele>
        <time>2021-11-13T09:00:06Z</time>
      </trkpt>
      <trkpt lat="48.98788" lon="1.99716">
        <ele>101.2</ele>
        <time>2021-11-13T09:00:12Z</time>
      </trkpt>
      <trkpt lat="48.98796" lon="1.99715">
        <ele>101.1</ele>
        <time>2021-11-13T09:00:17Z</time>
      </trkpt>
      <trkpt lat="48.98801" lon="1.99705">
        <ele>99.1</ele>
        <time>2021-11-13T09:00:23Z</time>
      </trkpt>
      <trkpt lat="48.98804" lon="1.99695">
        <ele>96</ele>
        <time>2021-11-13T09:00:29Z</time>
      </trkpt>
      <trkpt lat="48.98809" lon="1.99685">
        <ele>96.2</ele>
        <time>2021-11-13T09:00:34Z</time>
      </trkpt>
      <trkpt lat="48.98817" lon="1.99673">
        <ele>96.7</ele>
        <time>2021-11-13T09:00:40Z</time>
      </trkpt>
      <trkpt lat="48.98822" lon="1.99663">
        <ele>97.2</ele>
        <time>2021-11-13T09:00:45Z</time>
      </trkpt>
      <trkpt lat="48.98827" lon="1.99657">
        <ele>96.3</ele>
        <time>2021-11-13T09:00:50Z</time>
      </trkpt>
      <trkpt lat="48.98831" lon="1.9965">
        <ele>96.1</ele>
        <time>2021-11-13T09:00:55Z</time>
      </trkpt>
      <trkpt lat="48.98837" lon="1.99641">
        <ele>97</ele>
        <time>2021-11-13T09:01:01Z</time>
      </trkpt>
      <trkpt lat="48.98842" lon="1.99631">
        <ele>92.8</ele>
        <time>2021-11-13T09:01:07Z</time>
      </trkpt>
      <trkpt lat="48.98849" lon="1.99621">
        <ele>94.6</ele>
        <time>2021-11-13T09:01:13Z</time>
      </trkpt>
      <trkpt lat="48.98854" lon="1.99613">
        <ele>92</ele>
        <time>2021-11-13T09:01:18Z</time>
      </trkpt>
      <trkpt lat="48.98858" lon="1.99606">
        <ele>94.9</ele>
        <time>2021-11-13T09:01:23Z</time>
      </trkpt>
      <trkpt lat="48.98864" lon="1.99598">
        <ele>94.3</ele>
        <time>2021-11-13T09:01:29Z</time>
      </trkpt>
      <trkpt lat="48.98869" lon="1.9959">
        <ele>92.8</ele>
        <time>2021-11-13T09:01:34Z</time>
      </trkpt>
      <trkpt lat="48.98875" lon="1.99583">
        <ele>93.2</ele>
        <time>2021-11-13T09:01:40Z</time>
      </trkpt>
      <trkpt lat="48.98881" lon="1.99574">
        <ele>93</ele>
        <time>2021-11-13T09:01:46Z</time>
      </trkpt>
      <trkpt lat="48.98887" lon="1.99569">
        <ele>93.9</ele>
        <time>2021-11-13T09:01:51Z</time>
      </trkpt>
      <trkpt lat="48.98892" lon="1.99563">
        <ele>95</ele>
        <time>2021-11-13T09:01:56Z</time>
      </trkpt>
      <trkpt lat="48.98898" lon="1.99557">
        <ele>95.5</ele>
        <time>2021-11-13T09:02:01Z</time>
      </trkpt>
      <trkpt lat="48.98904" lon="1.99549">
        <ele>94.2</ele>
        <time>2021-11-13T09:02:06Z</time>
      </trkpt>
      <trkpt lat="48.9891" lon="1.99543">
        <ele>95.1</ele>
        <time>2021-11-13T09:02:12Z</time>
      </trkpt>
      <trkpt lat="48.98917" lon="1.99533">
        <ele>96</ele>
        <time>2021-11-13T09:02:18Z</time>
      </trkpt>
      <trkpt lat="48.98922" lon="1.99525">
        <ele>95.3</ele>
        <time>2021-11-13T09:02:23Z</time>
      </trkpt>
      <trkpt lat="48.98927" lon="1.99522">
        <ele>97.3</ele>
        <time>2021-11-13T09:02:29Z</time>
      </trkpt>
      <trkpt lat="48.98933" lon="1.99515">
        <ele>96.7</ele>
        <time>2021-11-13T09:02:34Z</time>
      </trkpt>
      <trkpt lat="48.98941" lon="1.99505">
        <ele>94.4</ele>
        <time>2021-11-13T09:02:40Z</time>
      </trkpt>
      <trkpt lat="48.98948" lon="1.9949">
        <ele>97.4</ele>
        <time>2021-11-13T09:02:46Z</time>
      </trkpt>
      <trkpt lat="48.98953" lon="1.9948">
        <ele>96.1</ele>
        <time>2021-11-13T09:02:52Z</time>
      </trkpt>
      <trkpt lat="48.98957" lon="1.99473">
        <ele>96.1</ele>
        <time>2021-11-13T09:02:57Z</time>
      </trkpt>
      <trkpt lat="48.98962" lon="1.99468">
        <ele>93.1</ele>
        <time>2021-11-13T09:03:02Z</time>
      </trkpt>
      <trkpt lat="48.98966" lon="1.99462">
        <ele>97.1</ele>
        <time>2021-11-13T09:03:07Z</time>
      </trkpt>
      <trkpt lat="48.98971" lon="1.99452">
        <ele>97.3</ele>
        <time>2021-11-13T09:03:13Z</time>
      </trkpt>
      <trkpt lat="48.98978" lon="1.99443">
        <ele>97.2</ele>
        <time>2021-11-13T09:03:18Z</time>
      </trkpt>
      <trkpt lat="48.98984" lon="1.99434">
        <ele>97.4</ele>
        <time>2021-11-13T09:03:24Z</time>
      </trkpt>
      <trkpt lat="48.98989" lon="1.99423">
        <ele>95.5</ele>
        <time>2021-11-13T09:03:29Z</time>
      </trkpt>
      <trkpt lat="48.98994" lon="1.99416">
        <ele>92.6</ele>
        <time>2021-11-13T09:03:34Z</time>
      </trkpt>
      <trkpt lat="48.99001" lon="1.99406">
        <ele>96.2</ele>
        <time>2021-11-13T09:03:39Z</time>
      </trkpt>
      <trkpt lat="48.99008" lon="1.994">
        <ele>92.8</ele>
        <time>2021-11-13T09:03:45Z</time>
      </trkpt>
      <trkpt lat="48.99014" lon="1.99396">
        <ele>94.7</ele>
        <time>2021-11-13T09:03:51Z</time>
      </trkpt>
      <trkpt lat="48.99022" lon="1.99392">
        <ele>91.5</ele>
        <time>2021-11-13T09:03:57Z</time>
      </trkpt>
      <trkpt lat="48.99027" lon="1.99383">
        <ele>93.7</ele>
        <time>2021-11-13T09:04:02Z</time>
      </trkpt>
      <trkpt lat="48.99033" lon="1.99378">
        <ele>95.2</ele>
        <time>2021-11-13T09:04:07Z</time>
      </trkpt>
      <trkpt lat="48.99038" lon="1.99372">
        <ele>97.4</ele>
        <time>2021-11-13T09:04:13Z</time>
      </trkpt>
      <trkpt lat="48.99045" lon="1.99367">
        <ele>99.5</ele>
        <time>2021-11-13T09:04:19Z</time>
      </trkpt>
      <trkpt lat="48.99052" lon="1.99366">
        <ele>99.4</ele>
        <time>2021-11-13T09:04:24Z</time>
      </trkpt>
      <trkpt lat="48.9906" lon="1.99361">
        <ele>101.1</ele>
        <time>2021-11-13T09:04:30Z</time>
      </trkpt>
      <trkpt lat="48.99066" lon="1.99356">
        <ele>101.4</ele>
        <time>2021-11-13T09:04:35Z</time>
      </trkpt>
      <trkpt lat="48.99073" lon="1.99352">
        <ele>103.7</ele>
        <time>2021-11-13T09:04:40Z</time>
      </trkpt>
      <trkpt lat="48.99081" lon="1.99348">
        <ele>101.5</ele>
        <time>2021-11-13T09:04:46Z</time>
      </trkpt>
      <trkpt lat="48.99086" lon="1.99345">
        <ele>103.7</ele>
        <time>2021-11-13T09:04:51Z</time>
      </trkpt>
      <trkpt lat="48.99092" lon="1.99341">
        <ele>101.3</ele>
        <time>2021-11-13T09:04:56Z</time>
      </trkpt>
      <trkpt lat="48.99099" lon="1.9934">
        <ele>99.8</ele>
        <time>2021-11-13T09:05:02Z</time>
      </trkpt>
      <trkpt lat="48.99106" lon="1.99332">
        <ele>98.2</ele>
        <time>2021-11-13T09:05:07Z</time>
      </trkpt>
      <trkpt lat="48.99113" lon="1.99331">
        <ele>98.4</ele>
        <time>2021-11-13T09:05:13Z</time>
      </trkpt>
      <trkpt lat="48.99119" lon="1.99329">
        <ele>100.6</ele>
        <time>2021-11-13T09:05:19Z</time>
      </trkpt>
      <trkpt lat="48.99127" lon="1.99329">
        <ele>104.4</ele>
        <time>2021-11-13T09:05:24Z</time>
      </trkpt>
      <trkpt lat="48.99135" lon="1.99329">
        <ele>105.1</ele>
        <time>2021-11-13T09:05:30Z</time>
      </trkpt>
      <trkpt lat="48.99142" lon="1.99326">
        <ele>108</ele>
        <time>2021-11-13T09:05:36Z</time>
      </trkpt>
      <trkpt lat="48.99143" lon="1.99325">
        <ele>110.4</ele>
        <time>2021-11-13T09:05:41Z</time>
      </trkpt>
      <trkpt lat="48.99148" lon="1.9933">
        <ele>112.7</ele>
        <time>2021-11-13T09:05:46Z</time>
      </trkpt>
      <trkpt lat="48.99155" lon="1.99333">
        <ele>112.6</ele>
        <time>2021-11-13T09:05:52Z</time>
      </trkpt>
      <trkpt lat="48.99161" lon="1.99341">
        <ele>113.6</ele>
        <time>2021-11-13T09:05:58Z</time>
      </trkpt>
      <trkpt lat="48.99167" lon="1.99348">
        <ele>114.4</ele>
        <time>2021-11-13T09:06:04Z</time>
      </trkpt>
      <trkpt lat="48.99173" lon="1.99354">
        <ele>115.4</ele>
        <time>2021-11-13T09:06:09Z</time>
      </trkpt>
      <trkpt lat="48.99178" lon="1.99358">
        <ele>114.8</ele>
        <time>2021-11-13T09:06:14Z</time>
      </trkpt>
      <trkpt lat="48.99184" lon="1.99359">
        <ele>114.7</ele>
        <time>2021-11-13T09:06:19Z</time>
      </trkpt>
      <trkpt lat="48.99192" lon="1.99348">
        <ele>112.7</ele>
        <time>2021-11-13T09:06:25Z</time>
      </trkpt>
      <trkpt lat="48.99197" lon="1.99336">
        <ele>112.5</ele>
        <time>2021-11-13T09:06:31Z</time>
      </trkpt>
      <trkpt lat="48.99203" lon="1.99326">
        <ele>111.3</ele>
        <time>2021-11-13T09:06:37Z</time>
      </trkpt>
      <trkpt lat="48.99208" lon="1.99318">
        <ele>111</ele>
        <time>2021-11-13T09:06:43Z</time>
      </trkpt>
      <trkpt lat="48.99207" lon="1.99315">
        <ele>110.4</ele>
        <time>2021-11-13T09:06:48Z</time>
      </trkpt>
      <trkpt lat="48.99201" lon="1.9931">
        <ele>108.1</ele>
        <time>2021-11-13T09:06:54Z</time>
      </trkpt>
      <trkpt lat="48.99195" lon="1.99303">
        <ele>110.9</ele>
        <time>2021-11-13T09:07:00Z</time>
      </trkpt>
      <trkpt lat="48.99191" lon="1.99291">
        <ele>109.2</ele>
        <time>2021-11-13T09:07:06Z</time>
      </trkpt>
      <trkpt lat="48.9919" lon="1.9928">
        <ele>107.5</ele>
        <time>2021-11-13T09:07:12Z</time>
      </trkpt>
      <trkpt lat="48.99187" lon="1.99269">
        <ele>106.2</ele>
        <time>2021-11-13T09:07:17Z</time>
      </trkpt>
      <trkpt lat="48.99185" lon="1.99259">
        <ele>106</ele>
        <time>2021-11-13T09:07:22Z</time>
      </trkpt>
      <trkpt lat="48.99183" lon="1.99247">
        <ele>103.4</ele>
        <time>2021-11-13T09:07:28Z</time>
      </trkpt>
      <trkpt lat="48.9918" lon="1.99233">
        <ele>106.2</ele>
        <time>2021-11-13T09:07:34Z</time>
      </trkpt>
      <trkpt lat="48.99178" lon="1.99224">
        <ele>103.3</ele>
        <time>2021-11-13T09:07:39Z</time>
      </trkpt>
      <trkpt lat="48.99176" lon="1.99212">
        <ele>103</ele>
        <time>2021-11-13T09:07:45Z</time>
      </trkpt>
      <trkpt lat="48.99174" lon="1.99202">
        <ele>101.9</ele>
        <time>2021-11-13T09:07:50Z</time>
      </trkpt>
      <trkpt lat="48.99172" lon="1.99192">
        <ele>101.6</ele>
        <time>2021-11-13T09:07:55Z</time>
      </trkpt>
      <trkpt lat="48.99171" lon="1.99181">
        <ele>100.4</ele>
        <time>2021-11-13T09:08:00Z</time>
      </trkpt>
      <trkpt lat="48.99174" lon="1.99172">
        <ele>102.4</ele>
        <time>2021-11-13T09:08:06Z</time>
      </trkpt>
      <trkpt lat="48.99174" lon="1.99167">
        <ele>101.3</ele>
        <time>2021-11-13T09:08:11Z</time>
      </trkpt>
      <trkpt lat="48.9917" lon="1.99169">
        <ele>99.3</ele>
        <time>2021-11-13T09:08:17Z</time>
      </trkpt>
      <trkpt lat="48.99167" lon="1.99173">
        <ele>97.7</ele>
        <time>2021-11-13T09:08:22Z</time>
      </trkpt>
      <trkpt lat="48.99163" lon="1.99178">
        <ele>95</ele>
        <time>2021-11-13T09:08:27Z</time>
      </trkpt>
      <trkpt lat="48.99159" lon="1.99183">
        <ele>95.4</ele>
        <time>2021-11-13T09:08:32Z</time>
      </trkpt>
      <trkpt lat="48.99156" lon="1.99187">
        <ele>94.8</ele>
        <time>2021-11-13T09:08:38Z</time>
      </trkpt>
      <trkpt lat="48.99153" lon="1.99193">
        <ele>95.4</ele>
        <time>2021-11-13T09:08:43Z</time>
      </trkpt>
      <trkpt lat="48.99149" lon="1.99199">
        <ele>94.1</ele>
        <time>2021-11-13T09:08:49Z</time>
      </trkpt>
      <trkpt lat="48.99144" lon="1.99208">
        <ele>92.7</ele>
        <time>2021-11-13T09:08:55Z</time>
      </trkpt>
      <trkpt lat="48.99142" lon="1.99214">
        <ele>93.2</ele>
        <time>2021-11-13T09:09:00Z</time>
      </trkpt>
      <trkpt lat="48.99137" lon="1.99222">
        <ele>91.3</ele>
        <time>2021-11-13T09:09:06Z</time>
      </trkpt>
      <trkpt lat="48.99135" lon="1.99229">
        <ele>89.8</ele>
        <time>2021-11-13T09:09:11Z</time>
      </trkpt>
      <trkpt lat="48.99126" lon="1.99233">
        <ele>84.2</ele>
        <time>2021-11-13T09:09:17Z</time>
      </trkpt>
      <trkpt lat="48.99123" lon="1.99225">
        <ele>80.1</ele>
        <time>2021-11-13T09:09:23Z</time>
      </trkpt>
      <trkpt lat="48.99123" lon="1.99218">
        <ele>80.5</ele>
        <time>2021-11-13T09:09:29Z</time>
      </trkpt>
      <trkpt lat="48.99117" lon="1.99213">
        <ele>79.2</ele>
        <time>2021-11-13T09:09:34Z</time>
      </trkpt>
      <trkpt lat="48.99106" lon="1.99195">
        <ele>82</ele>
        <time>2021-11-13T09:09:40Z</time>
      </trkpt>
      <trkpt lat="48.99102" lon="1.99183">
        <ele>78.8</ele>
        <time>2021-11-13T09:09:46Z</time>
      </trkpt>
      <trkpt lat="48.99108" lon="1.99175">
        <ele>80.1</ele>
        <time>2021-11-13T09:09:51Z</time>
      </trkpt>
      <trkpt lat="48.99114" lon="1.99168">
        <ele>78.7</ele>
        <time>2021-11-13T09:09:57Z</time>
      </trkpt>
      <trkpt lat="48.99119" lon="1.99157">
        <ele>81.1</ele>
        <time>2021-11-13T09:10:03Z</time>
      </trkpt>
      <trkpt lat="48.99126" lon="1.99149">
        <ele>77.2</ele>
        <time>2021-11-13T09:10:09Z</time>
      </trkpt>
      <trkpt lat="48.99133" lon="1.99144">
        <ele>76.9</ele>
        <time>2021-11-13T09:10:15Z</time>
      </trkpt>
      <trkpt lat="48.99137" lon="1.99139">
        <ele>76.6</ele>
        <time>2021-11-13T09:10:20Z</time>
      </trkpt>
      <trkpt lat="48.9914" lon="1.9913">
        <ele>76.6</ele>
        <time>2021-11-13T09:10:25Z</time>
      </trkpt>
      <trkpt lat="48.99148" lon="1.99118">
        <ele>79.9</ele>
        <time>2021-11-13T09:10:31Z</time>
      </trkpt>
      <trkpt lat="48.99151" lon="1.9911">
        <ele>78.5</ele>
        <time>2021-11-13T09:10:36Z</time>
      </trkpt>
      <trkpt lat="48.99157" lon="1.991">
        <ele>78.6</ele>
        <time>2021-11-13T09:10:41Z</time>
      </trkpt>
      <trkpt lat="48.99164" lon="1.99092">
        <ele>81.5</ele>
        <time>2021-11-13T09:10:47Z</time>
      </trkpt>
      <trkpt lat="48.9917" lon="1.99088">
        <ele>79.3</ele>
        <time>2021-11-13T09:10:53Z</time>
      </trkpt>
      <trkpt lat="48.99175" lon="1.99082">
        <ele>80.6</ele>
        <time>2021-11-13T09:10:58Z</time>
      </trkpt>
      <trkpt lat="48.99183" lon="1.99074">
        <ele>80.2</ele>
        <time>2021-11-13T09:11:04Z</time>
      </trkpt>
      <trkpt lat="48.99188" lon="1.99066">
        <ele>82.1</ele>
        <time>2021-11-13T09:11:09Z</time>
      </trkpt>
      <trkpt lat="48.99193" lon="1.9906">
        <ele>81.9</ele>
        <time>2021-11-13T09:11:14Z</time>
      </trkpt>
      <trkpt lat="48.99199" lon="1.99053">
        <ele>84.2</ele>
        <time>2021-11-13T09:11:19Z</time>
      </trkpt>
      <trkpt lat="48.99204" lon="1.99045">
        <ele>81.9</ele>
        <time>2021-11-13T09:11:24Z</time>
      </trkpt>
      <trkpt lat="48.9921" lon="1.99036">
        <ele>81.9</ele>
        <time>2021-11-13T09:11:30Z</time>
      </trkpt>
      <trkpt lat="48.99217" lon="1.99026">
        <ele>84.1</ele>
        <time>2021-11-13T09:11:36Z</time>
      </trkpt>
      <trkpt lat="48.99223" lon="1.99019">
        <ele>83.5</ele>
        <time>2021-11-13T09:11:41Z</time>
      </trkpt>
      <trkpt lat="48.99229" lon="1.99012">
        <ele>84.3</ele>
        <time>2021-11-13T09:11:46Z</time>
      </trkpt>
      <trkpt lat="48.99233" lon="1.99005">
        <ele>86.6</ele>
        <time>2021-11-13T09:11:51Z</time>
      </trkpt>
      <trkpt lat="48.9924" lon="1.98997">
        <ele>86.5</ele>
        <time>2021-11-13T09:11:57Z</time>
      </trkpt>
      <trkpt lat="48.99244" lon="1.98991">
        <ele>85</ele>
        <time>2021-11-13T09:12:02Z</time>
      </trkpt>
      <trkpt lat="48.9925" lon="1.98982">
        <ele>87</ele>
        <time>2021-11-13T09:12:08Z</time>
      </trkpt>
      <trkpt lat="48.99256" lon="1.98973">
        <ele>88.8</ele>
        <time>2021-11-13T09:12:13Z</time>
      </trkpt>
      <trkpt lat="48.99263" lon="1.98968">
        <ele>89.1</ele>
        <time>2021-11-13T09:12:19Z</time>
      </trkpt>
      <trkpt lat="48.9927" lon="1.98964">
        <ele>93.1</ele>
        <time>2021-11-13T09:12:25Z</time>
      </trkpt>
      <trkpt lat="48.99278" lon="1.98966">
        <ele>93.8</ele>
        <time>2021-11-13T09:12:31Z</time>
      </trkpt>
      <trkpt lat="48.99285" lon="1.98976">
        <ele>94.5</ele>
        <time>2021-11-13T09:12:37Z</time>
      </trkpt>
      <trkpt lat="48.9929" lon="1.98986">
        <ele>95.1</ele>
        <time>2021-11-13T09:12:43Z</time>
      </trkpt>
      <trkpt lat="48.99293" lon="1.98995">
        <ele>97.8</ele>
        <time>2021-11-13T09:12:48Z</time>
      </trkpt>
      <trkpt lat="48.99292" lon="1.99006">
        <ele>95.7</ele>
        <time>2021-11-13T09:12:54Z</time>
      </trkpt>
      <trkpt lat="48.99288" lon="1.99017">
        <ele>94.9</ele>
        <time>2021-11-13T09:13:00Z</time>
      </trkpt>
      <trkpt lat="48.99282" lon="1.99025">
        <ele>96.5</ele>
        <time>2021-11-13T09:13:06Z</time>
      </trkpt>
      <trkpt lat="48.99277" lon="1.99034">
        <ele>97.8</ele>
        <time>2021-11-13T09:13:12Z</time>
      </trkpt>
      <trkpt lat="48.99272" lon="1.99043">
        <ele>98.1</ele>
        <time>2021-11-13T09:13:18Z</time>
      </trkpt>
      <trkpt lat="48.99268" lon="1.99049">
        <ele>99.3</ele>
        <time>2021-11-13T09:13:23Z</time>
      </trkpt>
      <trkpt lat="48.99265" lon="1.99059">
        <ele>100</ele>
        <time>2021-11-13T09:13:29Z</time>
      </trkpt>
      <trkpt lat="48.99267" lon="1.99069">
        <ele>99.8</ele>
        <time>2021-11-13T09:13:34Z</time>
      </trkpt>
      <trkpt lat="48.99271" lon="1.99079">
        <ele>100.8</ele>
        <time>2021-11-13T09:13:40Z</time>
      </trkpt>
      <trkpt lat="48.99277" lon="1.99083">
        <ele>99.3</ele>
        <time>2021-11-13T09:13:46Z</time>
      </trkpt>
      <trkpt lat="48.99285" lon="1.99088">
        <ele>99.7</ele>
        <time>2021-11-13T09:13:51Z</time>
      </trkpt>
      <trkpt lat="48.99292" lon="1.99095">
        <ele>102.3</ele>
        <time>2021-11-13T09:13:57Z</time>
      </trkpt>
      <trkpt lat="48.99295" lon="1.99099">
        <ele>104.8</ele>
        <time>2021-11-13T09:14:02Z</time>
      </trkpt>
      <trkpt lat="48.99303" lon="1.99104">
        <ele>107</ele>
        <time>2021-11-13T09:14:08Z</time>
      </trkpt>
      <trkpt lat="48.9931" lon="1.99108">
        <ele>106.4</ele>
        <time>2021-11-13T09:14:14Z</time>
      </trkpt>
      <trkpt lat="48.99316" lon="1.99112">
        <ele>107.6</ele>
        <time>2021-11-13T09:14:20Z</time>
      </trkpt>
      <trkpt lat="48.99321" lon="1.99117">
        <ele>111.7</ele>
        <time>2021-11-13T09:14:25Z</time>
      </trkpt>
      <trkpt lat="48.99326" lon="1.99122">
        <ele>110.9</ele>
        <time>2021-11-13T09:14:30Z</time>
      </trkpt>
      <trkpt lat="48.99333" lon="1.99129">
        <ele>108.4</ele>
        <time>2021-11-13T09:14:36Z</time>
      </trkpt>
      <trkpt lat="48.99337" lon="1.99134">
        <ele>109.9</ele>
        <time>2021-11-13T09:14:41Z</time>
      </trkpt>
      <trkpt lat="48.99343" lon="1.99139">
        <ele>109.4</ele>
        <time>2021-11-13T09:14:47Z</time>
      </trkpt>
      <trkpt lat="48.99349" lon="1.99144">
        <ele>113.1</ele>
        <time>2021-11-13T09:14:53Z</time>
      </trkpt>
      <trkpt lat="48.99355" lon="1.99148">
        <ele>111.9</ele>
        <time>2021-11-13T09:14:58Z</time>
      </trkpt>
      <trkpt lat="48.9936" lon="1.99149">
        <ele>115.5</ele>
        <time>2021-11-13T09:15:03Z</time>
      </trkpt>
      <trkpt lat="48.99363" lon="1.9915">
        <ele>116.7</ele>
        <time>2021-11-13T09:15:09Z</time>
      </trkpt>
      <trkpt lat="48.99363" lon="1.99149">
        <ele>117.2</ele>
        <time>2021-11-13T09:15:14Z</time>
      </trkpt>
      <trkpt lat="48.99363" lon="1.99148">
        <ele>115.8</ele>
        <time>2021-11-13T09:15:20Z</time>
      </trkpt>
      <trkpt lat="48.99363" lon="1.99148">
        <ele>116.8</ele>
        <time>2021-11-13T09:15:26Z</time>
      </trkpt>
      <trkpt lat="48.99363" lon="1.99148">
        <ele>115.1</ele>
        <time>2021-11-13T09:15:32Z</time>
      </trkpt>
      <trkpt lat="48.99362" lon="1.99148">
        <ele>115.9</ele>
        <time>2021-11-13T09:15:37Z</time>
      </trkpt>
      <trkpt lat="48.99362" lon="1.99151">
        <ele>114.2</ele>
        <time>2021-11-13T09:15:42Z</time>
      </trkpt>
      <trkpt lat="48.99366" lon="1.99147">
        <ele>114.3</ele>
        <time>2021-11-13T09:15:48Z</time>
      </trkpt>
      <trkpt lat="48.99371" lon="1.99144">
        <ele>113.6</ele>
        <time>2021-11-13T09:15:53Z</time>
      </trkpt>
      <trkpt lat="48.99376" lon="1.99137">
        <ele>115</ele>
        <time>2021-11-13T09:15:59Z</time>
      </trkpt>
      <trkpt lat="48.99379" lon="1.99133">
        <ele>114.5</ele>
        <time>2021-11-13T09:16:05Z</time>
      </trkpt>
      <trkpt lat="48.99379" lon="1.99133">
        <ele>115.4</ele>
        <time>2021-11-13T09:16:10Z</time>
      </trkpt>
      <trkpt lat="48.99381" lon="1.99133">
        <ele>115.8</ele>
        <time>2021-11-13T09:16:15Z</time>
      </trkpt>
      <trkpt lat="48.99382" lon="1.99133">
        <ele>117.5</ele>
        <time>2021-11-13T09:16:21Z</time>
      </trkpt>
      <trkpt lat="48.99382" lon="1.99133">
        <ele>114.3</ele>
        <time>2021-11-13T09:16:26Z</time>
      </trkpt>
      <trkpt lat="48.99382" lon="1.99132">
        <ele>116</ele>
        <time>2021-11-13T09:16:32Z</time>
      </trkpt>
      <trkpt lat="48.99382" lon="1.99132">
        <ele>116.7</ele>
        <time>2021-11-13T09:16:38Z</time>
      </trkpt>
      <trkpt lat="48.99382" lon="1.99132">
        <ele>116.1</ele>
        <time>2021-11-13T09:16:43Z</time>
      </trkpt>
      <trkpt lat="48.99382" lon="1.99132">
        <ele>117.7</ele>
        <time>2021-11-13T09:16:48Z</time>
      </trkpt>
      <trkpt lat="48.99382" lon="1.99132">
        <ele>116</ele>
        <time>2021-11-13T09:16:53Z</time>
      </trkpt>
      <trkpt lat="48.99382" lon="1.99132">
        <ele>114.8</ele>
        <time>2021-11-13T09:16:59Z</time>
      </trkpt>
      <trkpt lat="48.99384" lon="1.99131">
        <ele>115.9</ele>
        <time>2021-11-13T09:17:05Z</time>
      </trkpt>
      <trkpt lat="48.99388" lon="1.99129">
        <ele>114.4</ele>
        <time>2021-11-13T09:17:10Z</time>
      </trkpt>
      <trkpt lat="48.99391" lon="1.99126">
        <ele>112.5</ele>
        <time>2021-11-13T09:17:15Z</time>
      </trkpt>
      <trkpt lat="48.99397" lon="1.99117">
        <ele>113.8</ele>
        <time>2021-11-13T09:17:21Z</time>
      </trkpt>
      <trkpt lat="48.99403" lon="1.99106">
        <ele>116.4</ele>
        <time>2021-11-13T09:17:27Z</time>
      </trkpt>
      <trkpt lat="48.99409" lon="1.99099">
        <ele>117.1</ele>
        <time>2021-11-13T09:17:32Z</time>
      </trkpt>
      <trkpt lat="48.99412" lon="1.99088">
        <ele>117.4</ele>
        <time>2021-11-13T09:17:37Z</time>
      </trkpt>
      <trkpt lat="48.99418" lon="1.99076">
        <ele>116.2</ele>
        <time>2021-11-13T09:17:43Z</time>
      </trkpt>
      <trkpt lat="48.99421" lon="1.99068">
        <ele>117.8</ele>
        <time>2021-11-13T09:17:48Z</time>
      </trkpt>
      <trkpt lat="48.99424" lon="1.9906">
        <ele>121</ele>
        <time>2021-11-13T09:17:53Z</time>
      </trkpt>
      <trkpt lat="48.99428" lon="1.9905">
        <ele>120.9</ele>
        <time>2021-11-13T09:17:58Z</time>
      </trkpt>
      <trkpt lat="48.99432" lon="1.99042">
        <ele>122.7</ele>
        <time>2021-11-13T09:18:04Z</time>
      </trkpt>
      <trkpt lat="48.99438" lon="1.99034">
        <ele>124</ele>
        <time>2021-11-13T09:18:09Z</time>
      </trkpt>
      <trkpt lat="48.9944" lon="1.99031">
        <ele>123.3</ele>
        <time>2021-11-13T09:18:15Z</time>
      </trkpt>
      <trkpt lat="48.9944" lon="1.99031">
        <ele>123.4</ele>
        <time>2021-11-13T09:18:21Z</time>
      </trkpt>
      <trkpt lat="48.99441" lon="1.99032">
        <ele>124.7</ele>
        <time>2021-11-13T09:18:26Z</time>
      </trkpt>
      <trkpt lat="48.99445" lon="1.99038">
        <ele>121.1</ele>
        <time>2021-11-13T09:18:32Z</time>
      </trkpt>
      <trkpt lat="48.99451" lon="1.99046">
        <ele>120.6</ele>
        <time>2021-11-13T09:18:38Z</time>
      </trkpt>
      <trkpt lat="48.99456" lon="1.99053">
        <ele>120.9</ele>
        <time>2021-11-13T09:18:43Z</time>
      </trkpt>
      <trkpt lat="48.99463" lon="1.99061">
        <ele>122.8</ele>
        <time>2021-11-13T09:18:49Z</time>
      </trkpt>
      <trkpt lat="48.99469" lon="1.99067">
        <ele>123.6</ele>
        <time>2021-11-13T09:18:55Z</time>
      </trkpt>
      <trkpt lat="48.99474" lon="1.99073">
        <ele>123.9</ele>
        <time>2021-11-13T09:19:00Z</time>
      </trkpt>
      <trkpt lat="48.99482" lon="1.99076">
        <ele>124.5</ele>
        <time>2021-11-13T09:19:06Z</time>
      </trkpt>
      <trkpt lat="48.99492" lon="1.9908">
        <ele>124.8</ele>
        <time>2021-11-13T09:19:12Z</time>
      </trkpt>
      <trkpt lat="48.995" lon="1.99082">
        <ele>126.6</ele>
        <time>2021-11-13T09:19:18Z</time>
      </trkpt>
      <trkpt lat="48.99505" lon="1.99091">
        <ele>128.1</ele>
        <time>2021-11-13T09:19:24Z</time>
      </trkpt>
      <trkpt lat="48.99501" lon="1.99102">
        <ele>126.6</ele>
        <time>2021-11-13T09:19:30Z</time>
      </trkpt>
      <trkpt lat="48.99497" lon="1.99112">
        <ele>129.7</ele>
        <time>2021-11-13T09:19:35Z</time>
      </trkpt>
      <trkpt lat="48.99493" lon="1.99125">
        <ele>128.6</ele>
        <time>2021-11-13T09:19:41Z</time>
      </trkpt>
      <trkpt lat="48.99491" lon="1.99139">
        <ele>127.8</ele>
        <time>2021-11-13T09:19:47Z</time>
      </trkpt>
      <trkpt lat="48.99488" lon="1.9915">
        <ele>127.8</ele>
        <time>2021-11-13T09:19:53Z</time>
      </trkpt>
      <trkpt lat="48.99483" lon="1.99157">
        <ele>125.3</ele>
        <time>2021-11-13T09:19:59Z</time>
      </trkpt>
      <trkpt lat="48.99478" lon="1.99163">
        <ele>125.1</ele>
        <time>2021-11-13T09:20:04Z</time>
      </trkpt>
      <trkpt lat="48.99469" lon="1.99165">
        <ele>127.8</ele>
        <time>2021-11-13T09:20:10Z</time>
      </trkpt>
      <trkpt lat="48.99461" lon="1.99167">
        <ele>126.2</ele>
        <time>2021-11-13T09:20:15Z</time>
      </trkpt>
      <trkpt lat="48.99455" lon="1.9917">
        <ele>125.4</ele>
        <time>2021-11-13T09:20:20Z</time>
      </trkpt>
      <trkpt lat="48.99447" lon="1.99176">
        <ele>128.8</ele>
        <time>2021-11-13T09:20:26Z</time>
      </trkpt>
      <trkpt lat="48.99438" lon="1.99182">
        <ele>125.7</ele>
        <time>2021-11-13T09:20:32Z</time>
      </trkpt>
      <trkpt lat="48.99432" lon="1.99187">
        <ele>124.1</ele>
        <time>2021-11-13T09:20:37Z</time>
      </trkpt>
      <trkpt lat="48.99423" lon="1.99196">
        <ele>126.5</ele>
        <time>2021-11-13T09:20:43Z</time>
      </trkpt>
      <trkpt lat="48.99419" lon="1.99205">
        <ele>129.6</ele>
        <time>2021-11-13T09:20:49Z</time>
      </trkpt>
      <trkpt lat="48.99414" lon="1.99213">
        <ele>126.8</ele>
        <time>2021-11-13T09:20:55Z</time>
      </trkpt>
      <trkpt lat="48.99408" lon="1.99224">
        <ele>122.1</ele>
        <time>2021-11-13T09:21:01Z</time>
      </trkpt>
      <trkpt lat="48.99403" lon="1.99232">
        <ele>121.3</ele>
        <time>2021-11-13T09:21:06Z</time>
      </trkpt>
      <trkpt lat="48.99395" lon="1.9924">
        <ele>117.9</ele>
        <time>2021-11-13T09:21:11Z</time>
      </trkpt>
      <trkpt lat="48.99389" lon="1.99246">
        <ele>119</ele>
        <time>2021-11-13T09:21:16Z</time>
      </trkpt>
      <trkpt lat="48.99383" lon="1.99254">
        <ele>120</ele>
        <time>2021-11-13T09:21:21Z</time>
      </trkpt>
      <trkpt lat="48.99378" lon="1.99261">
        <ele>120.9</ele>
        <time>2021-11-13T09:21:27Z</time>
      </trkpt>
      <trkpt lat="48.99372" lon="1.99272">
        <ele>119.1</ele>
        <time>2021-11-13T09:21:33Z</time>
      </trkpt>
      <trkpt lat="48.99365" lon="1.99279">
        <ele>118.7</ele>
        <time>2021-11-13T09:21:38Z</time>
      </trkpt>
      <trkpt lat="48.99358" lon="1.99287">
        <ele>117.6</ele>
        <time>2021-11-13T09:21:43Z</time>
      </trkpt>
      <trkpt lat="48.99354" lon="1.99299">
        <ele>120</ele>
        <time>2021-11-13T09:21:49Z</time>
      </trkpt>
      <trkpt lat="48.99351" lon="1.99311">
        <ele>119.9</ele>
        <time>2021-11-13T09:21:55Z</time>
      </trkpt>
      <trkpt lat="48.99345" lon="1.9932">
        <ele>121.1</ele>
        <time>2021-11-13T09:22:00Z</time>
      </trkpt>
      <trkpt lat="48.99335" lon="1.99326">
        <ele>117.7</ele>
        <time>2021-11-13T09:22:06Z</time>
      </trkpt>
      <trkpt lat="48.99326" lon="1.99332">
        <ele>117.3</ele>
        <time>2021-11-13T09:22:11Z</time>
      </trkpt>
      <trkpt lat="48.99318" lon="1.99337">
        <ele>120.2</ele>
        <time>2021-11-13T09:22:16Z</time>
      </trkpt>
      <trkpt lat="48.9931" lon="1.99344">
        <ele>120.8</ele>
        <time>2021-11-13T09:22:22Z</time>
      </trkpt>
      <trkpt lat="48.99302" lon="1.99352">
        <ele>123.3</ele>
        <time>2021-11-13T09:22:28Z</time>
      </trkpt>
      <trkpt lat="48.99298" lon="1.99358">
        <ele>118.9</ele>
        <time>2021-11-13T09:22:33Z</time>
      </trkpt>
      <trkpt lat="48.99291" lon="1.99367">
        <ele>119.5</ele>
        <time>2021-11-13T09:22:39Z</time>
      </trkpt>
      <trkpt lat="48.99287" lon="1.99374">
        <ele>119.4</ele>
        <time>2021-11-13T09:22:44Z</time>
      </trkpt>
      <trkpt lat="48.99281" lon="1.99381">
        <ele>117.9</ele>
        <time>2021-11-13T09:22:49Z</time>
      </trkpt>
      <trkpt lat="48.99274" lon="1.9939">
        <ele>119.1</ele>
        <time>2021-11-13T09:22:55Z</time>
      </trkpt>
      <trkpt lat="48.99268" lon="1.99398">
        <ele>118.1</ele>
        <time>2021-11-13T09:23:01Z</time>
      </trkpt>
      <trkpt lat="48.99261" lon="1.99403">
        <ele>118.7</ele>
        <time>2021-11-13T09:23:06Z</time>
      </trkpt>
      <trkpt lat="48.99253" lon="1.99406">
        <ele>117.4</ele>
        <time>2021-11-13T09:23:12Z</time>
      </trkpt>
      <trkpt lat="48.99243" lon="1.99407">
        <ele>115.5</ele>
        <time>2021-11-13T09:23:18Z</time>
      </trkpt>
      <trkpt lat="48.99235" lon="1.9941">
        <ele>116.8</ele>
        <time>2021-11-13T09:23:23Z</time>
      </trkpt>
      <trkpt lat="48.99229" lon="1.99417">
        <ele>118.7</ele>
        <time>2021-11-13T09:23:29Z</time>
      </trkpt>
      <trkpt lat="48.99224" lon="1.99425">
        <ele>119.6</ele>
        <time>2021-11-13T09:23:35Z</time>
      </trkpt>
      <trkpt lat="48.9922" lon="1.99433">
        <ele>121</ele>
        <time>2021-11-13T09:23:40Z</time>
      </trkpt>
      <trkpt lat="48.99214" lon="1.99441">
        <ele>123.2</ele>
        <time>2021-11-13T09:23:46Z</time>
      </trkpt>
      <trkpt lat="48.99209" lon="1.99452">
        <ele>124.1</ele>
        <time>2021-11-13T09:23:52Z</time>
      </trkpt>
      <trkpt lat="48.99206" lon="1.99461">
        <ele>125.2</ele>
        <time>2021-11-13T09:23:57Z</time>
      </trkpt>
      <trkpt lat="48.99203" lon="1.99471">
        <ele>127</ele>
        <time>2021-11-13T09:24:03Z</time>
      </trkpt>
      <trkpt lat="48.99201" lon="1.99485">
        <ele>124.3</ele>
        <time>2021-11-13T09:24:09Z</time>
      </trkpt>
      <trkpt lat="48.99198" lon="1.99497">
        <ele>128.5</ele>
        <time>2021-11-13T09:24:15Z</time>
      </trkpt>
      <trkpt lat="48.99196" lon="1.99509">
        <ele>128</ele>
        <time>2021-11-13T09:24:21Z</time>
      </trkpt>
      <trkpt lat="48.99194" lon="1.99519">
        <ele>127.3</ele>
        <time>2021-11-13T09:24:26Z</time>
      </trkpt>
      <trkpt lat="48.99191" lon="1.99527">
        <ele>127.7</ele>
        <time>2021-11-13T09:24:31Z</time>
      </trkpt>
      <trkpt lat="48.99185" lon="1.99538">
        <ele>128.5</ele>
        <time>2021-11-13T09:24:37Z</time>
      </trkpt>
      <trkpt lat="48.99181" lon="1.99544">
        <ele>128.6</ele>
        <time>2021-11-13T09:24:42Z</time>
      </trkpt>
      <trkpt lat="48.99177" lon="1.99553">
        <ele>130.5</ele>
        <time>2021-11-13T09:24:48Z</time>
      </trkpt>
      <trkpt lat="48.99177" lon="1.99559">
        <ele>130.2</ele>
        <time>2021-11-13T09:24:53Z</time>
      </trkpt>
      <trkpt lat="48.99176" lon="1.9956">
        <ele>131</ele>
        <time>2021-11-13T09:24:59Z</time>
      </trkpt>
      <trkpt lat="48.99175" lon="1.99558">
        <ele>130.1</ele>
        <time>2021-11-13T09:25:04Z</time>
      </trkpt>
      <trkpt lat="48.99175" lon="1.99558">
        <ele>130.6</ele>
        <time>2021-11-13T09:25:09Z</time>
      </trkpt>
      <trkpt lat="48.99176" lon="1.99558">
        <ele>130.5</ele>
        <time>2021-11-13T09:25:14Z</time>
      </trkpt>
      <trkpt lat="48.99176" lon="1.9956">
        <ele>129.9</ele>
        <time>2021-11-13T09:25:20Z</time>
      </trkpt>
      <trkpt lat="48.99177" lon="1.99568">
        <ele>128.9</ele>
        <time>2021-11-13T09:25:26Z</time>
      </trkpt>
      <trkpt lat="48.99179" lon="1.99579">
        <ele>130</ele>
        <time>2021-11-13T09:25:32Z</time>
      </trkpt>
      <trkpt lat="48.99178" lon="1.99589">
        <ele>131.5</ele>
        <time>2021-11-13T09:25:37Z</time>
      </trkpt>
      <trkpt lat="48.99174" lon="1.99599">
        <ele>132.6</ele>
        <time>2021-11-13T09:25:43Z</time>
      </trkpt>
      <trkpt lat="48.99168" lon="1.9961">
        <ele>133.1</ele>
        <time>2021-11-13T09:25:49Z</time>
      </trkpt>
      <trkpt lat="48.99162" lon="1.99619">
        <ele>133.5</ele>
        <time>2021-11-13T09:25:55Z</time>
      </trkpt>
      <trkpt lat="48.99154" lon="1.99628">
        <ele>131.6</ele>
        <time>2021-11-13T09:26:01Z</time>
      </trkpt>
      <trkpt lat="48.99149" lon="1.99634">
        <ele>133.7</ele>
        <time>2021-11-13T09:26:06Z</time>
      </trkpt>
      <trkpt lat="48.99144" lon="1.99642">
        <ele>134.6</ele>
        <time>2021-11-13T09:26:11Z</time>
      </trkpt>
      <trkpt lat="48.99137" lon="1.99651">
        <ele>139.2</ele>
        <time>2021-11-13T09:26:17Z</time>
      </trkpt>
      <trkpt lat="48.99131" lon="1.99658">
        <ele>136.5</ele>
        <time>2021-11-13T09:26:23Z</time>
      </trkpt>
      <trkpt lat="48.99125" lon="1.99664">
        <ele>138</ele>
        <time>2021-11-13T09:26:28Z</time>
      </trkpt>
      <trkpt lat="48.99117" lon="1.99673">
        <ele>138</ele>
        <time>2021-11-13T09:26:34Z</time>
      </trkpt>
      <trkpt lat="48.99111" lon="1.9968">
        <ele>137.1</ele>
        <time>2021-11-13T09:26:39Z</time>
      </trkpt>
      <trkpt lat="48.99111" lon="1.99691">
        <ele>135.7</ele>
        <time>2021-11-13T09:26:44Z</time>
      </trkpt>
      <trkpt lat="48.99115" lon="1.99701">
        <ele>136.2</ele>
        <time>2021-11-13T09:26:49Z</time>
      </trkpt>
      <trkpt lat="48.99121" lon="1.99712">
        <ele>136.9</ele>
        <time>2021-11-13T09:26:55Z</time>
      </trkpt>
      <trkpt lat="48.99126" lon="1.99722">
        <ele>135.8</ele>
        <time>2021-11-13T09:27:01Z</time>
      </trkpt>
      <trkpt lat="48.9913" lon="1.99732">
        <ele>136.7</ele>
        <time>2021-11-13T09:27:07Z</time>
      </trkpt>
      <trkpt lat="48.99136" lon="1.99737">
        <ele>136.1</ele>
        <time>2021-11-13T09:27:12Z</time>
      </trkpt>
      <trkpt lat="48.99144" lon="1.99735">
        <ele>135</ele>
        <time>2021-11-13T09:27:18Z</time>
      </trkpt>
      <trkpt lat="48.9915" lon="1.9973">
        <ele>132</ele>
        <time>2021-11-13T09:27:23Z</time>
      </trkpt>
      <trkpt lat="48.99153" lon="1.99728">
        <ele>131.4</ele>
        <time>2021-11-13T09:27:28Z</time>
      </trkpt>
      <trkpt lat="48.99164" lon="1.9972">
        <ele>132.8</ele>
        <time>2021-11-13T09:27:34Z</time>
      </trkpt>
      <trkpt lat="48.99173" lon="1.99713">
        <ele>131.5</ele>
        <time>2021-11-13T09:27:40Z</time>
      </trkpt>
      <trkpt lat="48.99179" lon="1.99708">
        <ele>131.3</ele>
        <time>2021-11-13T09:27:45Z</time>
      </trkpt>
      <trkpt lat="48.99183" lon="1.997">
        <ele>133.8</ele>
        <time>2021-11-13T09:27:50Z</time>
      </trkpt>
      <trkpt lat="48.99188" lon="1.99691">
        <ele>131.8</ele>
        <time>2021-11-13T09:27:56Z</time>
      </trkpt>
      <trkpt lat="48.99195" lon="1.99681">
        <ele>132.9</ele>
        <time>2021-11-13T09:28:02Z</time>
      </trkpt>
      <trkpt lat="48.99201" lon="1.9967">
        <ele>130.4</ele>
        <time>2021-11-13T09:28:08Z</time>
      </trkpt>
      <trkpt lat="48.99205" lon="1.99663">
        <ele>134.5</ele>
        <time>2021-11-13T09:28:13Z</time>
      </trkpt>
      <trkpt lat="48.99211" lon="1.99657">
        <ele>131.3</ele>
        <time>2021-11-13T09:28:18Z</time>
      </trkpt>
      <trkpt lat="48.9922" lon="1.99659">
        <ele>132.3</ele>
        <time>2021-11-13T09:28:24Z</time>
      </trkpt>
      <trkpt lat="48.99229" lon="1.99666">
        <ele>132.6</ele>
        <time>2021-11-13T09:28:30Z</time>
      </trkpt>
      <trkpt lat="48.99233" lon="1.99674">
        <ele>132.9</ele>
        <time>2021-11-13T09:28:35Z</time>
      </trkpt>
      <trkpt lat="48.99239" lon="1.99681">
        <ele>133.4</ele>
        <time>2021-11-13T09:28:41Z</time>
      </trkpt>
      <trkpt lat="48.99247" lon="1.99685">
        <ele>135.5</ele>
        <time>2021-11-13T09:28:47Z</time>
      </trkpt>
      <trkpt lat="48.99255" lon="1.99683">
        <ele>137.4</ele>
        <time>2021-11-13T09:28:52Z</time>
      </trkpt>
      <trkpt lat="48.99264" lon="1.99679">
        <ele>138</ele>
        <time>2021-11-13T09:28:58Z</time>
      </trkpt>
      <trkpt lat="48.99271" lon="1.99671">
        <ele>136.6</ele>
        <time>2021-11-13T09:29:04Z</time>
      </trkpt>
      <trkpt lat="48.99279" lon="1.99662">
        <ele>137.6</ele>
        <time>2021-11-13T09:29:10Z</time>
      </trkpt>
      <trkpt lat="48.99286" lon="1.99656">
        <ele>132.3</ele>
        <time>2021-11-13T09:29:16Z</time>
      </trkpt>
      <trkpt lat="48.9929" lon="1.99654">
        <ele>136.6</ele>
        <time>2021-11-13T09:29:21Z</time>
      </trkpt>
      <trkpt lat="48.99295" lon="1.99653">
        <ele>136.2</ele>
        <time>2021-11-13T09:29:26Z</time>
      </trkpt>
      <trkpt lat="48.993" lon="1.99648">
        <ele>137</ele>
        <time>2021-11-13T09:29:31Z</time>
      </trkpt>
      <trkpt lat="48.99308" lon="1.9964">
        <ele>135.5</ele>
        <time>2021-11-13T09:29:37Z</time>
      </trkpt>
      <trkpt lat="48.99314" lon="1.99635">
        <ele>135.1</ele>
        <time>2021-11-13T09:29:42Z</time>
      </trkpt>
      <trkpt lat="48.9932" lon="1.99625">
        <ele>134.4</ele>
        <time>2021-11-13T09:29:48Z</time>
      </trkpt>
      <trkpt lat="48.99326" lon="1.99612">
        <ele>136.8</ele>
        <time>2021-11-13T09:29:54Z</time>
      </trkpt>
      <trkpt lat="48.99332" lon="1.99604">
        <ele>136.5</ele>
        <time>2021-11-13T09:30:00Z</time>
      </trkpt>
      <trkpt lat="48.9934" lon="1.99598">
        <ele>134.8</ele>
        <time>2021-11-13T09:30:06Z</time>
      </trkpt>
      <trkpt lat="48.99347" lon="1.99593">
        <ele>136.7</ele>
        <time>2021-11-13T09:30:11Z</time>
      </trkpt>
      <trkpt lat="48.99352" lon="1.99592">
        <ele>135.7</ele>
        <time>2021-11-13T09:30:17Z</time>
      </trkpt>
      <trkpt lat="48.99358" lon="1.99594">
        <ele>136.9</ele>
        <time>2021-11-13T09:30:23Z</time>
      </trkpt>
      <trkpt lat="48.99364" lon="1.99594">
        <ele>135</ele>
        <time>2021-11-13T09:30:28Z</time>
      </trkpt>
      <trkpt lat="48.99371" lon="1.99594">
        <ele>137.1</ele>
        <time>2021-11-13T09:30:34Z</time>
      </trkpt>
      <trkpt lat="48.99377" lon="1.99589">
        <ele>140.2</ele>
        <time>2021-11-13T09:30:39Z</time>
      </trkpt>
      <trkpt lat="48.99387" lon="1.99582">
        <ele>140</ele>
        <time>2021-11-13T09:30:45Z</time>
      </trkpt>
      <trkpt lat="48.99395" lon="1.99579">
        <ele>141.5</ele>
        <time>2021-11-13T09:30:51Z</time>
      </trkpt>
      <trkpt lat="48.99402" lon="1.99572">
        <ele>141.8</ele>
        <time>2021-11-13T09:30:56Z</time>
      </trkpt>
      <trkpt lat="48.99406" lon="1.99563">
        <ele>142.2</ele>
        <time>2021-11-13T09:31:01Z</time>
      </trkpt>
      <trkpt lat="48.99414" lon="1.99551">
        <ele>145.7</ele>
        <time>2021-11-13T09:31:06Z</time>
      </trkpt>
      <trkpt lat="48.99418" lon="1.99539">
        <ele>143.2</ele>
        <time>2021-11-13T09:31:12Z</time>
      </trkpt>
      <trkpt lat="48.99424" lon="1.99535">
        <ele>144.4</ele>
        <time>2021-11-13T09:31:17Z</time>
      </trkpt>
      <trkpt lat="48.9943" lon="1.99528">
        <ele>142.4</ele>
        <time>2021-11-13T09:31:22Z</time>
      </trkpt>
      <trkpt lat="48.99439" lon="1.99524">
        <ele>141.5</ele>
        <time>2021-11-13T09:31:28Z</time>
      </trkpt>
      <trkpt lat="48.99445" lon="1.99519">
        <ele>143</ele>
        <time>2021-11-13T09:31:33Z</time>
      </trkpt>
      <trkpt lat="48.99449" lon="1.99513">
        <ele>141.4</ele>
        <time>2021-11-13T09:31:38Z</time>
      </trkpt>
      <trkpt lat="48.99453" lon="1.99504">
        <ele>138.3</ele>
        <time>2021-11-13T09:31:43Z</time>
      </trkpt>
      <trkpt lat="48.9946" lon="1.99494">
        <ele>139</ele>
        <time>2021-11-13T09:31:49Z</time>
      </trkpt>
      <trkpt lat="48.99465" lon="1.99486">
        <ele>139.9</ele>
        <time>2021-11-13T09:31:55Z</time>
      </trkpt>
      <trkpt lat="48.99471" lon="1.99481">
        <ele>141.2</ele>
        <time>2021-11-13T09:32:01Z</time>
      </trkpt>
      <trkpt lat="48.9948" lon="1.9948">
        <ele>139.3</ele>
        <time>2021-11-13T09:32:06Z</time>
      </trkpt>
      <trkpt lat="48.99486" lon="1.99486">
        <ele>140.5</ele>
        <time>2021-11-13T09:32:12Z</time>
      </trkpt>
      <trkpt lat="48.99492" lon="1.99493">
        <ele>139.4</ele>
        <time>2021-11-13T09:32:18Z</time>
      </trkpt>
      <trkpt lat="48.99499" lon="1.99493">
        <ele>141.6</ele>
        <time>2021-11-13T09:32:24Z</time>
      </trkpt>
      <trkpt lat="48.99504" lon="1.99489">
        <ele>143</ele>
        <time>2021-11-13T09:32:30Z</time>
      </trkpt>
      <trkpt lat="48.99515" lon="1.99482">
        <ele>140.9</ele>
        <time>2021-11-13T09:32:36Z</time>
      </trkpt>
      <trkpt lat="48.99521" lon="1.99473">
        <ele>144.6</ele>
        <time>2021-11-13T09:32:41Z</time>
      </trkpt>
      <trkpt lat="48.99528" lon="1.99462">
        <ele>142.8</ele>
        <time>2021-11-13T09:32:47Z</time>
      </trkpt>
      <trkpt lat="48.99533" lon="1.99455">
        <ele>142.8</ele>
        <time>2021-11-13T09:32:52Z</time>
      </trkpt>
      <trkpt lat="48.99538" lon="1.99446">
        <ele>146.5</ele>
        <time>2021-11-13T09:32:57Z</time>
      </trkpt>
      <trkpt lat="48.99544" lon="1.99436">
        <ele>146.5</ele>
        <time>2021-11-13T09:33:03Z</time>
      </trkpt>
      <trkpt lat="48.99548" lon="1.9943">
        <ele>145.5</ele>
        <time>2021-11-13T09:33:08Z</time>
      </trkpt>
      <trkpt lat="48.99552" lon="1.99423">
        <ele>146.2</ele>
        <time>2021-11-13T09:33:13Z</time>
      </trkpt>
      <trkpt lat="48.99554" lon="1.99416">
        <ele>148</ele>
        <time>2021-11-13T09:33:19Z</time>
      </trkpt>
      <trkpt lat="48.9956" lon="1.99407">
        <ele>147.8</ele>
        <time>2021-11-13T09:33:24Z</time>
      </trkpt>
      <trkpt lat="48.99567" lon="1.994">
        <ele>147.7</ele>
        <time>2021-11-13T09:33:29Z</time>
      </trkpt>
      <trkpt lat="48.99573" lon="1.99392">
        <ele>148.2</ele>
        <time>2021-11-13T09:33:35Z</time>
      </trkpt>
      <trkpt lat="48.99582" lon="1.99383">
        <ele>149</ele>
        <time>2021-11-13T09:33:41Z</time>
      </trkpt>
      <trkpt lat="48.99587" lon="1.99376">
        <ele>153.5</ele>
        <time>2021-11-13T09:33:46Z</time>
      </trkpt>
      <trkpt lat="48.9959" lon="1.99365">
        <ele>152.5</ele>
        <time>2021-11-13T09:33:51Z</time>
      </trkpt>
      <trkpt lat="48.99594" lon="1.99353">
        <ele>154.5</ele>
        <time>2021-11-13T09:33:57Z</time>
      </trkpt>
      <trkpt lat="48.99597" lon="1.99345">
        <ele>153.5</ele>
        <time>2021-11-13T09:34:03Z</time>
      </trkpt>
      <trkpt lat="48.99601" lon="1.99334">
        <ele>151.7</ele>
        <time>2021-11-13T09:34:09Z</time>
      </trkpt>
      <trkpt lat="48.99606" lon="1.99324">
        <ele>150.2</ele>
        <time>2021-11-13T09:34:14Z</time>
      </trkpt>
      <trkpt lat="48.99609" lon="1.99312">
        <ele>145.5</ele>
        <time>2021-11-13T09:34:19Z</time>
      </trkpt>
      <trkpt lat="48.99612" lon="1.99305">
        <ele>146.9</ele>
        <time>2021-11-13T09:34:25Z</time>
      </trkpt>
      <trkpt lat="48.99617" lon="1.99297">
        <ele>149</ele>
        <time>2021-11-13T09:34:30Z</time>
      </trkpt>
      <trkpt lat="48.99622" lon="1.99287">
        <ele>144.9</ele>
        <time>2021-11-13T09:34:36Z</time>
      </trkpt>
      <trkpt lat="48.99628" lon="1.99275">
        <ele>143.7</ele>
        <time>2021-11-13T09:34:42Z</time>
      </trkpt>
      <trkpt lat="48.99632" lon="1.99266">
        <ele>143.8</ele>
        <time>2021-11-13T09:34:47Z</time>
      </trkpt>
      <trkpt lat="48.99637" lon="1.99258">
        <ele>145.3</ele>
        <time>2021-11-13T09:34:52Z</time>
      </trkpt>
      <trkpt lat="48.9964" lon="1.99251">
        <ele>145.7</ele>
        <time>2021-11-13T09:34:57Z</time>
      </trkpt>
      <trkpt lat="48.99644" lon="1.9924">
        <ele>145.5</ele>
        <time>2021-11-13T09:35:03Z</time>
      </trkpt>
      <trkpt lat="48.99649" lon="1.99222">
        <ele>145.4</ele>
        <time>2021-11-13T09:35:09Z</time>
      </trkpt>
      <trkpt lat="48.99651" lon="1.99213">
        <ele>144.6</ele>
        <time>2021-11-13T09:35:14Z</time>
      </trkpt>
      <trkpt lat="48.99654" lon="1.99205">
        <ele>142.3</ele>
        <time>2021-11-13T09:35:19Z</time>
      </trkpt>
      <trkpt lat="48.99657" lon="1.99196">
        <ele>144.3</ele>
        <time>2021-11-13T09:35:24Z</time>
      </trkpt>
      <trkpt lat="48.99663" lon="1.99187">
        <ele>140</ele>
        <time>2021-11-13T09:35:29Z</time>
      </trkpt>
      <trkpt lat="48.99665" lon="1.9918">
        <ele>144</ele>
        <time>2021-11-13T09:35:34Z</time>
      </trkpt>
      <trkpt lat="48.99668" lon="1.9917">
        <ele>145.7</ele>
        <time>2021-11-13T09:35:39Z</time>
      </trkpt>
      <trkpt lat="48.99673" lon="1.99159">
        <ele>143.4</ele>
        <time>2021-11-13T09:35:45Z</time>
      </trkpt>
      <trkpt lat="48.99675" lon="1.99151">
        <ele>145.4</ele>
        <time>2021-11-13T09:35:50Z</time>
      </trkpt>
      <trkpt lat="48.99678" lon="1.99143">
        <ele>144.1</ele>
        <time>2021-11-13T09:35:55Z</time>
      </trkpt>
      <trkpt lat="48.99682" lon="1.99132">
        <ele>147.2</ele>
        <time>2021-11-13T09:36:01Z</time>
      </trkpt>
      <trkpt lat="48.99686" lon="1.9912">
        <ele>147</ele>
        <time>2021-11-13T09:36:07Z</time>
      </trkpt>
      <trkpt lat="48.99691" lon="1.99109">
        <ele>151</ele>
        <time>2021-11-13T09:36:12Z</time>
      </trkpt>
      <trkpt lat="48.99695" lon="1.99097">
        <ele>151.1</ele>
        <time>2021-11-13T09:36:18Z</time>
      </trkpt>
      <trkpt lat="48.99701" lon="1.99088">
        <ele>147.2</ele>
        <time>2021-11-13T09:36:24Z</time>
      </trkpt>
      <trkpt lat="48.99704" lon="1.9908">
        <ele>148.5</ele>
        <time>2021-11-13T09:36:29Z</time>
      </trkpt>
      <trkpt lat="48.99708" lon="1.99071">
        <ele>145.7</ele>
        <time>2021-11-13T09:36:34Z</time>
      </trkpt>
      <trkpt lat="48.99709" lon="1.99065">
        <ele>145</ele>
        <time>2021-11-13T09:36:40Z</time>
      </trkpt>
      <trkpt lat="48.99713" lon="1.99057">
        <ele>143.9</ele>
        <time>2021-11-13T09:36:45Z</time>
      </trkpt>
      <trkpt lat="48.99717" lon="1.99046">
        <ele>146.8</ele>
        <time>2021-11-13T09:36:51Z</time>
      </trkpt>
      <trkpt lat="48.99718" lon="1.99041">
        <ele>146.6</ele>
        <time>2021-11-13T09:36:57Z</time>
      </trkpt>
      <trkpt lat="48.99716" lon="1.99038">
        <ele>146</ele>
        <time>2021-11-13T09:37:02Z</time>
      </trkpt>
      <trkpt lat="48.99714" lon="1.99035">
        <ele>146.8</ele>
        <time>2021-11-13T09:37:08Z</time>
      </trkpt>
      <trkpt lat="48.99713" lon="1.99035">
        <ele>144.3</ele>
        <time>2021-11-13T09:37:14Z</time>
      </trkpt>
      <trkpt lat="48.99713" lon="1.9903">
        <ele>148.6</ele>
        <time>2021-11-13T09:37:19Z</time>
      </trkpt>
      <trkpt lat="48.99714" lon="1.9902">
        <ele>147.5</ele>
        <time>2021-11-13T09:37:24Z</time>
      </trkpt>
      <trkpt lat="48.99717" lon="1.9901">
        <ele>149.1</ele>
        <time>2021-11-13T09:37:30Z</time>
      </trkpt>
      <trkpt lat="48.99719" lon="1.98999">
        <ele>146.5</ele>
        <time>2021-11-13T09:37:35Z</time>
      </trkpt>
      <trkpt lat="48.99723" lon="1.98991">
        <ele>148.4</ele>
        <time>2021-11-13T09:37:40Z</time>
      </trkpt>
      <trkpt lat="48.99722" lon="1.98983">
        <ele>149</ele>
        <time>2021-11-13T09:37:45Z</time>
      </trkpt>
      <trkpt lat="48.99723" lon="1.98977">
        <ele>149.5</ele>
        <time>2021-11-13T09:37:50Z</time>
      </trkpt>
      <trkpt lat="48.99727" lon="1.98975">
        <ele>148</ele>
        <time>2021-11-13T09:37:55Z</time>
      </trkpt>
      <trkpt lat="48.99731" lon="1.98969">
        <ele>151</ele>
        <time>2021-11-13T09:38:01Z</time>
      </trkpt>
      <trkpt lat="48.99736" lon="1.98961">
        <ele>150.8</ele>
        <time>2021-11-13T09:38:06Z</time>
      </trkpt>
      <trkpt lat="48.99742" lon="1.98951">
        <ele>152.2</ele>
        <time>2021-11-13T09:38:12Z</time>
      </trkpt>
      <trkpt lat="48.99745" lon="1.98944">
        <ele>154</ele>
        <time>2021-11-13T09:38:18Z</time>
      </trkpt>
      <trkpt lat="48.99745" lon="1.98935">
        <ele>155.2</ele>
        <time>2021-11-13T09:38:23Z</time>
      </trkpt>
      <trkpt lat="48.99743" lon="1.98926">
        <ele>156</ele>
        <time>2021-11-13T09:38:29Z</time>
      </trkpt>
      <trkpt lat="48.99746" lon="1.98919">
        <ele>162.7</ele>
        <time>2021-11-13T09:38:35Z</time>
      </trkpt>
      <trkpt lat="48.9975" lon="1.98909">
        <ele>159.6</ele>
        <time>2021-11-13T09:38:40Z</time>
      </trkpt>
      <trkpt lat="48.99754" lon="1.98903">
        <ele>161.5</ele>
        <time>2021-11-13T09:38:45Z</time>
      </trkpt>
      <trkpt lat="48.99758" lon="1.98895">
        <ele>161.3</ele>
        <time>2021-11-13T09:38:51Z</time>
      </trkpt>
      <trkpt lat="48.9976" lon="1.98892">
        <ele>160.6</ele>
        <time>2021-11-13T09:38:56Z</time>
      </trkpt>
      <trkpt lat="48.99763" lon="1.98893">
        <ele>163.2</ele>
        <time>2021-11-13T09:39:02Z</time>
      </trkpt>
      <trkpt lat="48.99762" lon="1.98895">
        <ele>163</ele>
        <time>2021-11-13T09:39:07Z</time>
      </trkpt>
      <trkpt lat="48.99763" lon="1.98896">
        <ele>163</ele>
        <time>2021-11-13T09:39:13Z</time>
      </trkpt>
      <trkpt lat="48.99762" lon="1.98898">
        <ele>162.5</ele>
        <time>2021-11-13T09:39:18Z</time>
      </trkpt>
      <trkpt lat="48.99761" lon="1.98895">
        <ele>161</ele>
        <time>2021-11-13T09:39:24Z</time>
      </trkpt>
      <trkpt lat="48.99761" lon="1.98895">
        <ele>159.1</ele>
        <time>2021-11-13T09:39:30Z</time>
      </trkpt>
      <trkpt lat="48.99761" lon="1.98896">
        <ele>155.8</ele>
        <time>2021-11-13T09:39:36Z</time>
      </trkpt>
      <trkpt lat="48.99761" lon="1.98894">
        <ele>158.2</ele>
        <time>2021-11-13T09:39:42Z</time>
      </trkpt>
      <trkpt lat="48.99763" lon="1.98898">
        <ele>159.9</ele>
        <time>2021-11-13T09:39:47Z</time>
      </trkpt>
      <trkpt lat="48.99765" lon="1.98903">
        <ele>166.5</ele>
        <time>2021-11-13T09:39:52Z</time>
      </trkpt>
      <trkpt lat="48.99769" lon="1.98909">
        <ele>167.1</ele>
        <time>2021-11-13T09:39:58Z</time>
      </trkpt>
      <trkpt lat="48.99774" lon="1.98914">
        <ele>169.2</ele>
        <time>2021-11-13T09:40:03Z</time>
      </trkpt>
      <trkpt lat="48.9978" lon="1.9892">
        <ele>166.8</ele>
        <time>2021-11-13T09:40:09Z</time>
      </trkpt>
      <trkpt lat="48.99785" lon="1.98927">
        <ele>169.5</ele>
        <time>2021-11-13T09:40:15Z</time>
      </trkpt>
      <trkpt lat="48.99791" lon="1.9893">
        <ele>169.1</ele>
        <time>2021-11-13T09:40:21Z</time>
      </trkpt>
      <trkpt lat="48.99794" lon="1.98931">
        <ele>168.4</ele>
        <time>2021-11-13T09:40:26Z</time>
      </trkpt>
      <trkpt lat="48.99799" lon="1.98934">
        <ele>172.6</ele>
        <time>2021-11-13T09:40:31Z</time>
      </trkpt>
      <trkpt lat="48.99801" lon="1.9894">
        <ele>171.2</ele>
        <time>2021-11-13T09:40:36Z</time>
      </trkpt>
      <trkpt lat="48.99802" lon="1.98947">
        <ele>171.8</ele>
        <time>2021-11-13T09:40:41Z</time>
      </trkpt>
      <trkpt lat="48.99802" lon="1.98961">
        <ele>174.7</ele>
        <time>2021-11-13T09:40:47Z</time>
      </trkpt>
      <trkpt lat="48.99807" lon="1.98972">
        <ele>174.7</ele>
        <time>2021-11-13T09:40:53Z</time>
      </trkpt>
      <trkpt lat="48.99812" lon="1.9898">
        <ele>172.6</ele>
        <time>2021-11-13T09:40:58Z</time>
      </trkpt>
      <trkpt lat="48.99817" lon="1.98983">
        <ele>174.2</ele>
        <time>2021-11-13T09:41:04Z</time>
      </trkpt>
      <trkpt lat="48.99824" lon="1.98991">
        <ele>174.1</ele>
        <time>2021-11-13T09:41:10Z</time>
      </trkpt>
      <trkpt lat="48.9983" lon="1.9899">
        <ele>173.3</ele>
        <time>2021-11-13T09:41:16Z</time>
      </trkpt>
      <trkpt lat="48.99835" lon="1.98996">
        <ele>174.7</ele>
        <time>2021-11-13T09:41:22Z</time>
      </trkpt>
      <trkpt lat="48.99838" lon="1.99001">
        <ele>171.9</ele>
        <time>2021-11-13T09:41:27Z</time>
      </trkpt>
      <trkpt lat="48.99843" lon="1.99009">
        <ele>167</ele>
        <time>2021-11-13T09:41:32Z</time>
      </trkpt>
      <trkpt lat="48.99846" lon="1.99016">
        <ele>167.9</ele>
        <time>2021-11-13T09:41:37Z</time>
      </trkpt>
      <trkpt lat="48.99849" lon="1.99022">
        <ele>170.6</ele>
        <time>2021-11-13T09:41:43Z</time>
      </trkpt>
      <trkpt lat="48.9985" lon="1.99022">
        <ele>173</ele>
        <time>2021-11-13T09:41:48Z</time>
      </trkpt>
      <trkpt lat="48.99853" lon="1.99029">
        <ele>174.1</ele>
        <time>2021-11-13T09:41:54Z</time>
      </trkpt>
      <trkpt lat="48.99857" lon="1.99038">
        <ele>177.6</ele>
        <time>2021-11-13T09:42:00Z</time>
      </trkpt>
      <trkpt lat="48.99859" lon="1.99045">
        <ele>175.3</ele>
        <time>2021-11-13T09:42:05Z</time>
      </trkpt>
      <trkpt lat="48.99862" lon="1.99053">
        <ele>177.3</ele>
        <time>2021-11-13T09:42:10Z</time>
      </trkpt>
      <trkpt lat="48.99861" lon="1.99062">
        <ele>179.4</ele>
        <time>2021-11-13T09:42:16Z</time>
      </trkpt>
      <trkpt lat="48.99861" lon="1.99071">
        <ele>181.3</ele>
        <time>2021-11-13T09:42:22Z</time>
      </trkpt>
      <trkpt lat="48.99863" lon="1.99079">
        <ele>183.3</ele>
        <time>2021-11-13T09:42:28Z</time>
      </trkpt>
      <trkpt lat="48.99867" lon="1.99083">
        <ele>179.9</ele>
        <time>2021-11-13T09:42:34Z</time>
      </trkpt>
      <trkpt lat="48.99869" lon="1.9909">
        <ele>182.6</ele>
        <time>2021-11-13T09:42:39Z</time>
      </trkpt>
      <trkpt lat="48.99872" lon="1.99099">
        <ele>182.3</ele>
        <time>2021-11-13T09:42:44Z</time>
      </trkpt>
      <trkpt lat="48.99876" lon="1.99105">
        <ele>181.3</ele>
        <time>2021-11-13T09:42:49Z</time>
      </trkpt>
      <trkpt lat="48.99876" lon="1.99115">
        <ele>179.9</ele>
        <time>2021-11-13T09:42:55Z</time>
      </trkpt>
      <trkpt lat="48.99874" lon="1.99126">
        <ele>179.1</ele>
        <time>2021-11-13T09:43:01Z</time>
      </trkpt>
      <trkpt lat="48.99874" lon="1.99137">
        <ele>182.6</ele>
        <time>2021-11-13T09:43:07Z</time>
      </trkpt>
      <trkpt lat="48.99877" lon="1.99145">
        <ele>178.5</ele>
        <time>2021-11-13T09:43:12Z</time>
      </trkpt>
      <trkpt lat="48.9988" lon="1.99157">
        <ele>175.8</ele>
        <time>2021-11-13T09:43:18Z</time>
      </trkpt>
      <trkpt lat="48.99884" lon="1.99168">
        <ele>174.8</ele>
        <time>2021-11-13T09:43:23Z</time>
      </trkpt>
      <trkpt lat="48.99888" lon="1.99178">
        <ele>178.4</ele>
        <time>2021-11-13T09:43:29Z</time>
      </trkpt>
      <trkpt lat="48.99891" lon="1.99185">
        <ele>176.6</ele>
        <time>2021-11-13T09:43:34Z</time>
      </trkpt>
      <trkpt lat="48.99893" lon="1.99193">
        <ele>178.1</ele>
        <time>2021-11-13T09:43:40Z</time>
      </trkpt>
      <trkpt lat="48.9989" lon="1.992">
        <ele>179.8</ele>
        <time>2021-11-13T09:43:45Z</time>
      </trkpt>
      <trkpt lat="48.9989" lon="1.99207">
        <ele>177.7</ele>
        <time>2021-11-13T09:43:50Z</time>
      </trkpt>
      <trkpt lat="48.99886" lon="1.99215">
        <ele>178</ele>
        <time>2021-11-13T09:43:55Z</time>
      </trkpt>
      <trkpt lat="48.99881" lon="1.99221">
        <ele>177.2</ele>
        <time>2021-11-13T09:44:01Z</time>
      </trkpt>
      <trkpt lat="48.99876" lon="1.99227">
        <ele>177.6</ele>
        <time>2021-11-13T09:44:07Z</time>
      </trkpt>
      <trkpt lat="48.99874" lon="1.99229">
        <ele>176.4</ele>
        <time>2021-11-13T09:44:13Z</time>
      </trkpt>
      <trkpt lat="48.99875" lon="1.99236">
        <ele>175.4</ele>
        <time>2021-11-13T09:44:18Z</time>
      </trkpt>
      <trkpt lat="48.99879" lon="1.99246">
        <ele>174.2</ele>
        <time>2021-11-13T09:44:23Z</time>
      </trkpt>
      <trkpt lat="48.99878" lon="1.99254">
        <ele>172.1</ele>
        <time>2021-11-13T09:44:28Z</time>
      </trkpt>
      <trkpt lat="48.99878" lon="1.99263">
        <ele>172</ele>
        <time>2021-11-13T09:44:34Z</time>
      </trkpt>
      <trkpt lat="48.99879" lon="1.99272">
        <ele>177.8</ele>
        <time>2021-11-13T09:44:39Z</time>
      </trkpt>
      <trkpt lat="48.99879" lon="1.99284">
        <ele>177.4</ele>
        <time>2021-11-13T09:44:45Z</time>
      </trkpt>
      <trkpt lat="48.99874" lon="1.99294">
        <ele>174</ele>
        <time>2021-11-13T09:44:51Z</time>
      </trkpt>
      <trkpt lat="48.99876" lon="1.99308">
        <ele>171.8</ele>
        <time>2021-11-13T09:44:57Z</time>
      </trkpt>
      <trkpt lat="48.9988" lon="1.99312">
        <ele>171</ele>
        <time>2021-11-13T09:45:02Z</time>
      </trkpt>
      <trkpt lat="48.99882" lon="1.99322">
        <ele>171.8</ele>
        <time>2021-11-13T09:45:08Z</time>
      </trkpt>
      <trkpt lat="48.99877" lon="1.99326">
        <ele>172.1</ele>
        <time>2021-11-13T09:45:14Z</time>
      </trkpt>
      <trkpt lat="48.99873" lon="1.99337">
        <ele>176.4</ele>
        <time>2021-11-13T09:45:20Z</time>
      </trkpt>
      <trkpt lat="48.99873" lon="1.99348">
        <ele>177.2</ele>
        <time>2021-11-13T09:45:26Z</time>
      </trkpt>
      <trkpt lat="48.99875" lon="1.99355">
        <ele>179.2</ele>
        <time>2021-11-13T09:45:31Z</time>
      </trkpt>
      <trkpt lat="48.9988" lon="1.99365">
        <ele>180.3</ele>
        <time>2021-11-13T09:45:37Z</time>
      </trkpt>
      <trkpt lat="48.9988" lon="1.99373">
        <ele>181</ele>
        <time>2021-11-13T09:45:43Z</time>
      </trkpt>
      <trkpt lat="48.99882" lon="1.99388">
        <ele>179.3</ele>
        <time>2021-11-13T09:45:49Z</time>
      </trkpt>
      <trkpt lat="48.99887" lon="1.99399">
        <ele>176.5</ele>
        <time>2021-11-13T09:45:55Z</time>
      </trkpt>
      <trkpt lat="48.99889" lon="1.9941">
        <ele>175.6</ele>
        <time>2021-11-13T09:46:00Z</time>
      </trkpt>
      <trkpt lat="48.99889" lon="1.99416">
        <ele>178.1</ele>
        <time>2021-11-13T09:46:06Z</time>
      </trkpt>
      <trkpt lat="48.99885" lon="1.99424">
        <ele>181.7</ele>
        <time>2021-11-13T09:46:11Z</time>
      </trkpt>
      <trkpt lat="48.99881" lon="1.99433">
        <ele>184.7</ele>
        <time>2021-11-13T09:46:17Z</time>
      </trkpt>
      <trkpt lat="48.99876" lon="1.99444">
        <ele>184.7</ele>
        <time>2021-11-13T09:46:23Z</time>
      </trkpt>
      <trkpt lat="48.99875" lon="1.99454">
        <ele>186.5</ele>
        <time>2021-11-13T09:46:29Z</time>
      </trkpt>
      <trkpt lat="48.99872" lon="1.99464">
        <ele>183.8</ele>
        <time>2021-11-13T09:46:35Z</time>
      </trkpt>
      <trkpt lat="48.99869" lon="1.99471">
        <ele>184.8</ele>
        <time>2021-11-13T09:46:41Z</time>
      </trkpt>
      <trkpt lat="48.99866" lon="1.99482">
        <ele>178.9</ele>
        <time>2021-11-13T09:46:47Z</time>
      </trkpt>
      <trkpt lat="48.9986" lon="1.99493">
        <ele>181.7</ele>
        <time>2021-11-13T09:46:53Z</time>
      </trkpt>
      <trkpt lat="48.99855" lon="1.99505">
        <ele>185.7</ele>
        <time>2021-11-13T09:46:58Z</time>
      </trkpt>
      <trkpt lat="48.9985" lon="1.99513">
        <ele>189.7</ele>
        <time>2021-11-13T09:47:03Z</time>
      </trkpt>
      <trkpt lat="48.99847" lon="1.99519">
        <ele>192.4</ele>
        <time>2021-11-13T09:47:09Z</time>
      </trkpt>
      <trkpt lat="48.99842" lon="1.99526">
        <ele>193</ele>
        <time>2021-11-13T09:47:14Z</time>
      </trkpt>
      <trkpt lat="48.99837" lon="1.99533">
        <ele>193.5</ele>
        <time>2021-11-13T09:47:19Z</time>
      </trkpt>
      <trkpt lat="48.99834" lon="1.9954">
        <ele>191.8</ele>
        <time>2021-11-13T09:47:25Z</time>
      </trkpt>
      <trkpt lat="48.99834" lon="1.9955">
        <ele>188.3</ele>
        <time>2021-11-13T09:47:30Z</time>
      </trkpt>
      <trkpt lat="48.99832" lon="1.9956">
        <ele>188.3</ele>
        <time>2021-11-13T09:47:35Z</time>
      </trkpt>
      <trkpt lat="48.99831" lon="1.99572">
        <ele>185.9</ele>
        <time>2021-11-13T09:47:41Z</time>
      </trkpt>
      <trkpt lat="48.99827" lon="1.99586">
        <ele>183.7</ele>
        <time>2021-11-13T09:47:47Z</time>
      </trkpt>
      <trkpt lat="48.99821" lon="1.99588">
        <ele>180.9</ele>
        <time>2021-11-13T09:47:52Z</time>
      </trkpt>
      <trkpt lat="48.99814" lon="1.99592">
        <ele>183</ele>
        <time>2021-11-13T09:47:58Z</time>
      </trkpt>
      <trkpt lat="48.99805" lon="1.99597">
        <ele>184.2</ele>
        <time>2021-11-13T09:48:03Z</time>
      </trkpt>
      <trkpt lat="48.998" lon="1.996">
        <ele>187.9</ele>
        <time>2021-11-13T09:48:08Z</time>
      </trkpt>
      <trkpt lat="48.99796" lon="1.99603">
        <ele>183.9</ele>
        <time>2021-11-13T09:48:13Z</time>
      </trkpt>
      <trkpt lat="48.99789" lon="1.99607">
        <ele>184.9</ele>
        <time>2021-11-13T09:48:19Z</time>
      </trkpt>
      <trkpt lat="48.99777" lon="1.99617">
        <ele>185.7</ele>
        <time>2021-11-13T09:48:25Z</time>
      </trkpt>
      <trkpt lat="48.99767" lon="1.99623">
        <ele>185.8</ele>
        <time>2021-11-13T09:48:31Z</time>
      </trkpt>
      <trkpt lat="48.99763" lon="1.99628">
        <ele>182.3</ele>
        <time>2021-11-13T09:48:37Z</time>
      </trkpt>
      <trkpt lat="48.9976" lon="1.99636">
        <ele>182.7</ele>
        <time>2021-11-13T09:48:42Z</time>
      </trkpt>
      <trkpt lat="48.99753" lon="1.99645">
        <ele>179.3</ele>
        <time>2021-11-13T09:48:47Z</time>
      </trkpt>
      <trkpt lat="48.99749" lon="1.9965">
        <ele>182.1</ele>
        <time>2021-11-13T09:48:52Z</time>
      </trkpt>
      <trkpt lat="48.99741" lon="1.99656">
        <ele>177</ele>
        <time>2021-11-13T09:48:57Z</time>
      </trkpt>
      <trkpt lat="48.99737" lon="1.99661">
        <ele>179.8</ele>
        <time>2021-11-13T09:49:02Z</time>
      </trkpt>
      <trkpt lat="48.9973" lon="1.99668">
        <ele>179.9</ele>
        <time>2021-11-13T09:49:08Z</time>
      </trkpt>
      <trkpt lat="48.99723" lon="1.99677">
        <ele>179.7</ele>
        <time>2021-11-13T09:49:14Z</time>
      </trkpt>
      <trkpt lat="48.99717" lon="1.99685">
        <ele>182.4</ele>
        <time>2021-11-13T09:49:19Z</time>
      </trkpt>
      <trkpt lat="48.99711" lon="1.99691">
        <ele>182.5</ele>
        <time>2021-11-13T09:49:25Z</time>
      </trkpt>
      <trkpt lat="48.99709" lon="1.99696">
        <ele>180.8</ele>
        <time>2021-11-13T09:49:30Z</time>
      </trkpt>
      <trkpt lat="48.99706" lon="1.99702">
        <ele>181</ele>
        <time>2021-11-13T09:49:36Z</time>
      </trkpt>
      <trkpt lat="48.99698" lon="1.99709">
        <ele>179.4</ele>
        <time>2021-11-13T09:49:42Z</time>
      </trkpt>
      <trkpt lat="48.99694" lon="1.99715">
        <ele>181.1</ele>
        <time>2021-11-13T09:49:47Z</time>
      </trkpt>
      <trkpt lat="48.99685" lon="1.99723">
        <ele>179.7</ele>
        <time>2021-11-13T09:49:53Z</time>
      </trkpt>
      <trkpt lat="48.99678" lon="1.99729">
        <ele>177.9</ele>
        <time>2021-11-13T09:49:58Z</time>
      </trkpt>
      <trkpt lat="48.9967" lon="1.99735">
        <ele>177.2</ele>
        <time>2021-11-13T09:50:04Z</time>
      </trkpt>
      <trkpt lat="48.99664" lon="1.99739">
        <ele>181.2</ele>
        <time>2021-11-13T09:50:10Z</time>
      </trkpt>
      <trkpt lat="48.9966" lon="1.99741">
        <ele>183</ele>
        <time>2021-11-13T09:50:16Z</time>
      </trkpt>
      <trkpt lat="48.99657" lon="1.99744">
        <ele>186</ele>
        <time>2021-11-13T09:50:21Z</time>
      </trkpt>
      <trkpt lat="48.99651" lon="1.99749">
        <ele>188.7</ele>
        <time>2021-11-13T09:50:26Z</time>
      </trkpt>
      <trkpt lat="48.99645" lon="1.99752">
        <ele>188.3</ele>
        <time>2021-11-13T09:50:31Z</time>
      </trkpt>
      <trkpt lat="48.99637" lon="1.99757">
        <ele>186</ele>
        <time>2021-11-13T09:50:37Z</time>
      </trkpt>
      <trkpt lat="48.9963" lon="1.9976">
        <ele>185.4</ele>
        <time>2021-11-13T09:50:42Z</time>
      </trkpt>
      <trkpt lat="48.99619" lon="1.99768">
        <ele>183.6</ele>
        <time>2021-11-13T09:50:48Z</time>
      </trkpt>
      <trkpt lat="48.99611" lon="1.99772">
        <ele>184.7</ele>
        <time>2021-11-13T09:50:53Z</time>
      </trkpt>
      <trkpt lat="48.99608" lon="1.99775">
        <ele>184.4</ele>
        <time>2021-11-13T09:50:59Z</time>
      </trkpt>
      <trkpt lat="48.99599" lon="1.9978">
        <ele>182</ele>
        <time>2021-11-13T09:51:04Z</time>
      </trkpt>
      <trkpt lat="48.99591" lon="1.99788">
        <ele>182.6</ele>
        <time>2021-11-13T09:51:09Z</time>
      </trkpt>
      <trkpt lat="48.99579" lon="1.99792">
        <ele>182.7</ele>
        <time>2021-11-13T09:51:15Z</time>
      </trkpt>
      <trkpt lat="48.99571" lon="1.99795">
        <ele>178.8</ele>
        <time>2021-11-13T09:51:21Z</time>
      </trkpt>
      <trkpt lat="48.99562" lon="1.99799">
        <ele>178.3</ele>
        <time>2021-11-13T09:51:26Z</time>
      </trkpt>
      <trkpt lat="48.99557" lon="1.99801">
        <ele>177.4</ele>
        <time>2021-11-13T09:51:31Z</time>
      </trkpt>
      <trkpt lat="48.9955" lon="1.99805">
        <ele>177.7</ele>
        <time>2021-11-13T09:51:36Z</time>
      </trkpt>
      <trkpt lat="48.99539" lon="1.99806">
        <ele>174.2</ele>
        <time>2021-11-13T09:51:42Z</time>
      </trkpt>
      <trkpt lat="48.99535" lon="1.99805">
        <ele>177.5</ele>
        <time>2021-11-13T09:51:48Z</time>
      </trkpt>
      <trkpt lat="48.99526" lon="1.99806">
        <ele>177</ele>
        <time>2021-11-13T09:51:54Z</time>
      </trkpt>
      <trkpt lat="48.99522" lon="1.99809">
        <ele>176.1</ele>
        <time>2021-11-13T09:51:59Z</time>
      </trkpt>
      <trkpt lat="48.99515" lon="1.99814">
        <ele>168.1</ele>
        <time>2021-11-13T09:52:05Z</time>
      </trkpt>
      <trkpt lat="48.99506" lon="1.99815">
        <ele>170</ele>
        <time>2021-11-13T09:52:11Z</time>
      </trkpt>
      <trkpt lat="48.99501" lon="1.99814">
        <ele>172.7</ele>
        <time>2021-11-13T09:52:17Z</time>
      </trkpt>
      <trkpt lat="48.99496" lon="1.99817">
        <ele>170.8</ele>
        <time>2021-11-13T09:52:23Z</time>
      </trkpt>
      <trkpt lat="48.99488" lon="1.99823">
        <ele>167.6</ele>
        <time>2021-11-13T09:52:29Z</time>
      </trkpt>
      <trkpt lat="48.99485" lon="1.99824">
        <ele>171</ele>
        <time>2021-11-13T09:52:34Z</time>
      </trkpt>
      <trkpt lat="48.99478" lon="1.99828">
        <ele>169.8</ele>
        <time>2021-11-13T09:52:39Z</time>
      </trkpt>
      <trkpt lat="48.99471" lon="1.99836">
        <ele>167.8</ele>
        <time>2021-11-13T09:52:45Z</time>
      </trkpt>
      <trkpt lat="48.99464" lon="1.99842">
        <ele>166.6</ele>
        <time>2021-11-13T09:52:50Z</time>
      </trkpt>
      <trkpt lat="48.99454" lon="1.99855">
        <ele>167.2</ele>
        <time>2021-11-13T09:52:56Z</time>
      </trkpt>
      <trkpt lat="48.99446" lon="1.99867">
        <ele>171.1</ele>
        <time>2021-11-13T09:53:02Z</time>
      </trkpt>
      <trkpt lat="48.99441" lon="1.99869">
        <ele>174.1</ele>
        <time>2021-11-13T09:53:07Z</time>
      </trkpt>
      <trkpt lat="48.99434" lon="1.99876">
        <ele>170.1</ele>
        <time>2021-11-13T09:53:12Z</time>
      </trkpt>
      <trkpt lat="48.99425" lon="1.99884">
        <ele>170.2</ele>
        <time>2021-11-13T09:53:18Z</time>
      </trkpt>
      <trkpt lat="48.99421" lon="1.99885">
        <ele>171.3</ele>
        <time>2021-11-13T09:53:23Z</time>
      </trkpt>
      <trkpt lat="48.99412" lon="1.99886">
        <ele>168.3</ele>
        <time>2021-11-13T09:53:29Z</time>
      </trkpt>
      <trkpt lat="48.99405" lon="1.99888">
        <ele>170.3</ele>
        <time>2021-11-13T09:53:34Z</time>
      </trkpt>
      <trkpt lat="48.99399" lon="1.99889">
        <ele>169.1</ele>
        <time>2021-11-13T09:53:39Z</time>
      </trkpt>
      <trkpt lat="48.99389" lon="1.99896">
        <ele>171.9</ele>
        <time>2021-11-13T09:53:44Z</time>
      </trkpt>
      <trkpt lat="48.99378" lon="1.99898">
        <ele>172.7</ele>
        <time>2021-11-13T09:53:50Z</time>
      </trkpt>
      <trkpt lat="48.9937" lon="1.99904">
        <ele>172.2</ele>
        <time>2021-11-13T09:53:56Z</time>
      </trkpt>
      <trkpt lat="48.99364" lon="1.99907">
        <ele>171.3</ele>
        <time>2021-11-13T09:54:02Z</time>
      </trkpt>
      <trkpt lat="48.99355" lon="1.9991">
        <ele>172.5</ele>
        <time>2021-11-13T09:54:07Z</time>
      </trkpt>
      <trkpt lat="48.99352" lon="1.99913">
        <ele>172.8</ele>
        <time>2021-11-13T09:54:12Z</time>
      </trkpt>
      <trkpt lat="48.99344" lon="1.99919">
        <ele>171.9</ele>
        <time>2021-11-13T09:54:18Z</time>
      </trkpt>
      <trkpt lat="48.99335" lon="1.99925">
        <ele>176.5</ele>
        <time>2021-11-13T09:54:23Z</time>
      </trkpt>
      <trkpt lat="48.99324" lon="1.99931">
        <ele>175.8</ele>
        <time>2021-11-13T09:54:29Z</time>
      </trkpt>
      <trkpt lat="48.99318" lon="1.99932">
        <ele>175.5</ele>
        <time>2021-11-13T09:54:35Z</time>
      </trkpt>
      <trkpt lat="48.99313" lon="1.99932">
        <ele>176.7</ele>
        <time>2021-11-13T09:54:40Z</time>
      </trkpt>
      <trkpt lat="48.99309" lon="1.99932">
        <ele>168.3</ele>
        <time>2021-11-13T09:54:46Z</time>
      </trkpt>
      <trkpt lat="48.99301" lon="1.99936">
        <ele>165.7</ele>
        <time>2021-11-13T09:54:51Z</time>
      </trkpt>
      <trkpt lat="48.99297" lon="1.99939">
        <ele>167.8</ele>
        <time>2021-11-13T09:54:56Z</time>
      </trkpt>
      <trkpt lat="48.99292" lon="1.99941">
        <ele>168.9</ele>
        <time>2021-11-13T09:55:02Z</time>
      </trkpt>
      <trkpt lat="48.99283" lon="1.99946">
        <ele>168.3</ele>
        <time>2021-11-13T09:55:08Z</time>
      </trkpt>
      <trkpt lat="48.99279" lon="1.99946">
        <ele>167.2</ele>
        <time>2021-11-13T09:55:13Z</time>
      </trkpt>
      <trkpt lat="48.99273" lon="1.99943">
        <ele>165.7</ele>
        <time>2021-11-13T09:55:18Z</time>
      </trkpt>
      <trkpt lat="48.99272" lon="1.99944">
        <ele>164.5</ele>
        <time>2021-11-13T09:55:24Z</time>
      </trkpt>
      <trkpt lat="48.99272" lon="1.99946">
        <ele>166.2</ele>
        <time>2021-11-13T09:55:29Z</time>
      </trkpt>
      <trkpt lat="48.99271" lon="1.99954">
        <ele>169.9</ele>
        <time>2021-11-13T09:55:35Z</time>
      </trkpt>
      <trkpt lat="48.99268" lon="1.99957">
        <ele>171.2</ele>
        <time>2021-11-13T09:55:41Z</time>
      </trkpt>
      <trkpt lat="48.99268" lon="1.99963">
        <ele>174.1</ele>
        <time>2021-11-13T09:55:46Z</time>
      </trkpt>
      <trkpt lat="48.99268" lon="1.99971">
        <ele>170.1</ele>
        <time>2021-11-13T09:55:51Z</time>
      </trkpt>
      <trkpt lat="48.99268" lon="1.99981">
        <ele>168</ele>
        <time>2021-11-13T09:55:57Z</time>
      </trkpt>
      <trkpt lat="48.99263" lon="1.99984">
        <ele>168.2</ele>
        <time>2021-11-13T09:56:03Z</time>
      </trkpt>
      <trkpt lat="48.9926" lon="1.99987">
        <ele>169.3</ele>
        <time>2021-11-13T09:56:09Z</time>
      </trkpt>
      <trkpt lat="48.9926" lon="1.99991">
        <ele>175.4</ele>
        <time>2021-11-13T09:56:14Z</time>
      </trkpt>
      <trkpt lat="48.99259" lon="1.99995">
        <ele>173.4</ele>
        <time>2021-11-13T09:56:19Z</time>
      </trkpt>
      <trkpt lat="48.99257" lon="2">
        <ele>176.6</ele>
        <time>2021-11-13T09:56:24Z</time>
      </trkpt>
      <trkpt lat="48.99253" lon="2.00004">
        <ele>167.7</ele>
        <time>2021-11-13T09:56:30Z</time>
      </trkpt>
      <trkpt lat="48.99249" lon="2.00013">
        <ele>165.9</ele>
        <time>2021-11-13T09:56:36Z</time>
      </trkpt>
      <trkpt lat="48.99249" lon="2.00022">
        <ele>171.1</ele>
        <time>2021-11-13T09:56:42Z</time>
      </trkpt>
      <trkpt lat="48.9925" lon="2.00028">
        <ele>173.7</ele>
        <time>2021-11-13T09:56:47Z</time>
      </trkpt>
      <trkpt lat="48.99249" lon="2.00035">
        <ele>177.1</ele>
        <time>2021-11-13T09:56:52Z</time>
      </trkpt>
      <trkpt lat="48.99248" lon="2.00048">
        <ele>175.8</ele>
        <time>2021-11-13T09:56:58Z</time>
      </trkpt>
      <trkpt lat="48.99249" lon="2.00063">
        <ele>180.3</ele>
        <time>2021-11-13T09:57:04Z</time>
      </trkpt>
      <trkpt lat="48.99248" lon="2.00071">
        <ele>184.6</ele>
        <time>2021-11-13T09:57:10Z</time>
      </trkpt>
      <trkpt lat="48.99253" lon="2.00077">
        <ele>185</ele>
        <time>2021-11-13T09:57:16Z</time>
      </trkpt>
      <trkpt lat="48.99252" lon="2.00081">
        <ele>185</ele>
        <time>2021-11-13T09:57:22Z</time>
      </trkpt>
      <trkpt lat="48.99254" lon="2.00087">
        <ele>185.1</ele>
        <time>2021-11-13T09:57:27Z</time>
      </trkpt>
      <trkpt lat="48.99252" lon="2.00093">
        <ele>184</ele>
        <time>2021-11-13T09:57:33Z</time>
      </trkpt>
      <trkpt lat="48.99248" lon="2.00104">
        <ele>179.5</ele>
        <time>2021-11-13T09:57:39Z</time>
      </trkpt>
      <trkpt lat="48.99246" lon="2.00113">
        <ele>181.9</ele>
        <time>2021-11-13T09:57:45Z</time>
      </trkpt>
      <trkpt lat="48.99251" lon="2.00123">
        <ele>182</ele>
        <time>2021-11-13T09:57:51Z</time>
      </trkpt>
      <trkpt lat="48.99252" lon="2.00131">
        <ele>177.5</ele>
        <time>2021-11-13T09:57:56Z</time>
      </trkpt>
      <trkpt lat="48.99251" lon="2.00138">
        <ele>180.9</ele>
        <time>2021-11-13T09:58:01Z</time>
      </trkpt>
      <trkpt lat="48.9925" lon="2.00147">
        <ele>183</ele>
        <time>2021-11-13T09:58:07Z</time>
      </trkpt>
      <trkpt lat="48.99252" lon="2.00158">
        <ele>184.9</ele>
        <time>2021-11-13T09:58:13Z</time>
      </trkpt>
      <trkpt lat="48.99254" lon="2.0017">
        <ele>184.7</ele>
        <time>2021-11-13T09:58:19Z</time>
      </trkpt>
      <trkpt lat="48.99252" lon="2.00183">
        <ele>188</ele>
        <time>2021-11-13T09:58:25Z</time>
      </trkpt>
      <trkpt lat="48.99248" lon="2.00186">
        <ele>188.5</ele>
        <time>2021-11-13T09:58:30Z</time>
      </trkpt>
      <trkpt lat="48.99246" lon="2.00195">
        <ele>188.2</ele>
        <time>2021-11-13T09:58:36Z</time>
      </trkpt>
      <trkpt lat="48.99248" lon="2.00204">
        <ele>185.8</ele>
        <time>2021-11-13T09:58:41Z</time>
      </trkpt>
      <trkpt lat="48.99248" lon="2.00215">
        <ele>185.4</ele>
        <time>2021-11-13T09:58:47Z</time>
      </trkpt>
      <trkpt lat="48.99247" lon="2.00224">
        <ele>183.4</ele>
        <time>2021-11-13T09:58:53Z</time>
      </trkpt>
      <trkpt lat="48.99244" lon="2.00234">
        <ele>180</ele>
        <time>2021-11-13T09:58:58Z</time>
      </trkpt>
      <trkpt lat="48.99244" lon="2.00241">
        <ele>183.2</ele>
        <time>2021-11-13T09:59:03Z</time>
      </trkpt>
      <trkpt lat="48.99247" lon="2.00251">
        <ele>183</ele>
        <time>2021-11-13T09:59:09Z</time>
      </trkpt>
      <trkpt lat="48.99251" lon="2.00259">
        <ele>180.3</ele>
        <time>2021-11-13T09:59:14Z</time>
      </trkpt>
      <trkpt lat="48.9925" lon="2.00267">
        <ele>181.1</ele>
        <time>2021-11-13T09:59:20Z</time>
      </trkpt>
      <trkpt lat="48.99253" lon="2.00269">
        <ele>179.7</ele>
        <time>2021-11-13T09:59:26Z</time>
      </trkpt>
      <trkpt lat="48.9926" lon="2.0027">
        <ele>182.1</ele>
        <time>2021-11-13T09:59:32Z</time>
      </trkpt>
      <trkpt lat="48.99265" lon="2.00267">
        <ele>183.1</ele>
        <time>2021-11-13T09:59:37Z</time>
      </trkpt>
      <trkpt lat="48.99267" lon="2.00266">
        <ele>183.3</ele>
        <time>2021-11-13T09:59:43Z</time>
      </trkpt>
      <trkpt lat="48.99272" lon="2.00262">
        <ele>184.4</ele>
        <time>2021-11-13T09:59:49Z</time>
      </trkpt>
      <trkpt lat="48.99277" lon="2.00259">
        <ele>184.4</ele>
        <time>2021-11-13T09:59:55Z</time>
      </trkpt>
      <trkpt lat="48.99283" lon="2.00259">
        <ele>186.3</ele>
        <time>2021-11-13T10:00:01Z</time>
      </trkpt>
      <trkpt lat="48.99285" lon="2.00261">
        <ele>185.3</ele>
        <time>2021-11-13T10:00:06Z</time>
      </trkpt>
      <trkpt lat="48.99289" lon="2.0026">
        <ele>186.7</ele>
        <time>2021-11-13T10:00:11Z</time>
      </trkpt>
      <trkpt lat="48.99293" lon="2.00257">
        <ele>180.4</ele>
        <time>2021-11-13T10:00:17Z</time>
      </trkpt>
      <trkpt lat="48.99294" lon="2.00255">
        <ele>184.1</ele>
        <time>2021-11-13T10:00:23Z</time>
      </trkpt>
      <trkpt lat="48.99298" lon="2.00249">
        <ele>187.3</ele>
        <time>2021-11-13T10:00:29Z</time>
      </trkpt>
      <trkpt lat="48.99306" lon="2.00241">
        <ele>187.7</ele>
        <time>2021-11-13T10:00:35Z</time>
      </trkpt>
      <trkpt lat="48.99314" lon="2.00236">
        <ele>188</ele>
        <time>2021-11-13T10:00:41Z</time>
      </trkpt>
      <trkpt lat="48.99318" lon="2.00231">
        <ele>192.6</ele>
        <time>2021-11-13T10:00:46Z</time>
      </trkpt>
      <trkpt lat="48.99321" lon="2.00225">
        <ele>194.2</ele>
        <time>2021-11-13T10:00:52Z</time>
      </trkpt>
      <trkpt lat="48.99325" lon="2.00224">
        <ele>192.6</ele>
        <time>2021-11-13T10:00:58Z</time>
      </trkpt>
      <trkpt lat="48.99329" lon="2.0022">
        <ele>195.1</ele>
        <time>2021-11-13T10:01:04Z</time>
      </trkpt>
      <trkpt lat="48.99334" lon="2.00216">
        <ele>194.1</ele>
        <time>2021-11-13T10:01:10Z</time>
      </trkpt>
      <trkpt lat="48.99337" lon="2.00209">
        <ele>191.6</ele>
        <time>2021-11-13T10:01:15Z</time>
      </trkpt>
      <trkpt lat="48.9934" lon="2.00203">
        <ele>197.2</ele>
        <time>2021-11-13T10:01:20Z</time>
      </trkpt>
      <trkpt lat="48.99342" lon="2.00201">
        <ele>201.6</ele>
        <time>2021-11-13T10:01:26Z</time>
      </trkpt>
      <trkpt lat="48.99344" lon="2.00198">
        <ele>203.1</ele>
        <time>2021-11-13T10:01:31Z</time>
      </trkpt>
      <trkpt lat="48.99348" lon="2.00198">
        <ele>203.5</ele>
        <time>2021-11-13T10:01:36Z</time>
      </trkpt>
      <trkpt lat="48.99352" lon="2.00196">
        <ele>204.7</ele>
        <time>2021-11-13T10:01:42Z</time>
      </trkpt>
      <trkpt lat="48.99355" lon="2.00194">
        <ele>203.1</ele>
        <time>2021-11-13T10:01:47Z</time>
      </trkpt>
      <trkpt lat="48.99359" lon="2.00194">
        <ele>203.9</ele>
        <time>2021-11-13T10:01:52Z</time>
      </trkpt>
      <trkpt lat="48.99365" lon="2.00195">
        <ele>201.4</ele>
        <time>2021-11-13T10:01:58Z</time>
      </trkpt>
      <trkpt lat="48.99367" lon="2.00198">
        <ele>201.9</ele>
        <time>2021-11-13T10:02:03Z</time>
      </trkpt>
      <trkpt lat="48.99369" lon="2.00198">
        <ele>200.6</ele>
        <time>2021-11-13T10:02:08Z</time>
      </trkpt>
      <trkpt lat="48.99373" lon="2.00201">
        <ele>203.2</ele>
        <time>2021-11-13T10:02:14Z</time>
      </trkpt>
      <trkpt lat="48.99376" lon="2.00205">
        <ele>203.7</ele>
        <time>2021-11-13T10:02:20Z</time>
      </trkpt>
      <trkpt lat="48.99379" lon="2.00208">
        <ele>206.4</ele>
        <time>2021-11-13T10:02:25Z</time>
      </trkpt>
      <trkpt lat="48.99383" lon="2.00212">
        <ele>204.6</ele>
        <time>2021-11-13T10:02:31Z</time>
      </trkpt>
      <trkpt lat="48.99385" lon="2.00212">
        <ele>205.9</ele>
        <time>2021-11-13T10:02:37Z</time>
      </trkpt>
      <trkpt lat="48.99386" lon="2.00212">
        <ele>205.6</ele>
        <time>2021-11-13T10:02:42Z</time>
      </trkpt>
      <trkpt lat="48.99388" lon="2.00211">
        <ele>212</ele>
        <time>2021-11-13T10:02:48Z</time>
      </trkpt>
      <trkpt lat="48.99393" lon="2.00211">
        <ele>208.9</ele>
        <time>2021-11-13T10:02:54Z</time>
      </trkpt>
      <trkpt lat="48.99396" lon="2.00213">
        <ele>213.9</ele>
        <time>2021-11-13T10:02:59Z</time>
      </trkpt>
      <trkpt lat="48.994" lon="2.00214">
        <ele>207.8</ele>
        <time>2021-11-13T10:03:04Z</time>
      </trkpt>
      <trkpt lat="48.99405" lon="2.00217">
        <ele>204.9</ele>
        <time>2021-11-13T10:03:09Z</time>
      </trkpt>
      <trkpt lat="48.99411" lon="2.0022">
        <ele>208</ele>
        <time>2021-11-13T10:03:15Z</time>
      </trkpt>
      <trkpt lat="48.99415" lon="2.00222">
        <ele>211.3</ele>
        <time>2021-11-13T10:03:20Z</time>
      </trkpt>
      <trkpt lat="48.99419" lon="2.00225">
        <ele>210.4</ele>
        <time>2021-11-13T10:03:26Z</time>
      </trkpt>
      <trkpt lat="48.99421" lon="2.00227">
        <ele>215.5</ele>
        <time>2021-11-13T10:03:31Z</time>
      </trkpt>
      <trkpt lat="48.99425" lon="2.00228">
        <ele>212.6</ele>
        <time>2021-11-13T10:03:36Z</time>
      </trkpt>
      <trkpt lat="48.99428" lon="2.0023">
        <ele>215.7</ele>
        <time>2021-11-13T10:03:42Z</time>
      </trkpt>
      <trkpt lat="48.9943" lon="2.0023">
        <ele>214.9</ele>
        <time>2021-11-13T10:03:47Z</time>
      </trkpt>
      <trkpt lat="48.99433" lon="2.00228">
        <ele>213.7</ele>
        <time>2021-11-13T10:03:53Z</time>
      </trkpt>
      <trkpt lat="48.99435" lon="2.00226">
        <ele>216.6</ele>
        <time>2021-11-13T10:03:59Z</time>
      </trkpt>
      <trkpt lat="48.99435" lon="2.00225">
        <ele>215.9</ele>
        <time>2021-11-13T10:04:05Z</time>
      </trkpt>
      <trkpt lat="48.99435" lon="2.00225">
        <ele>215.4</ele>
        <time>2021-11-13T10:04:10Z</time>
      </trkpt>
      <trkpt lat="48.99434" lon="2.00225">
        <ele>214.7</ele>
        <time>2021-11-13T10:04:16Z</time>
      </trkpt>
      <trkpt lat="48.99435" lon="2.00225">
        <ele>213.8</ele>
        <time>2021-11-13T10:04:22Z</time>
      </trkpt>
      <trkpt lat="48.99435" lon="2.00225">
        <ele>214.2</ele>
        <time>2021-11-13T10:04:28Z</time>
      </trkpt>
      <trkpt lat="48.99435" lon="2.00224">
        <ele>179.8</ele>
        <time>2021-11-13T10:04:34Z</time>
      </trkpt>
      <trkpt lat="48.99436" lon="2.00225">
        <ele>207.3</ele>
        <time>2021-11-13T10:04:40Z</time>
      </trkpt>
      <trkpt lat="48.99439" lon="2.00227">
        <ele>210.2</ele>
        <time>2021-11-13T10:04:45Z</time>
      </trkpt>
      <trkpt lat="48.99441" lon="2.00227">
        <ele>209.5</ele>
        <time>2021-11-13T10:04:51Z</time>
      </trkpt>
      <trkpt lat="48.99442" lon="2.00229">
        <ele>211.4</ele>
        <time>2021-11-13T10:04:56Z</time>
      </trkpt>
      <trkpt lat="48.99442" lon="2.00229">
        <ele>213.1</ele>
        <time>2021-11-13T10:05:02Z</time>
      </trkpt>
      <trkpt lat="48.99442" lon="2.00229">
        <ele>208.1</ele>
        <time>2021-11-13T10:05:07Z</time>
      </trkpt>
      <trkpt lat="48.99442" lon="2.00229">
        <ele>210.2</ele>
        <time>2021-11-13T10:05:12Z</time>
      </trkpt>
      <trkpt lat="48.99442" lon="2.00229">
        <ele>211.2</ele>
        <time>2021-11-13T10:05:18Z</time>
      </trkpt>
      <trkpt lat="48.99441" lon="2.00229">
        <ele>208.9</ele>
        <time>2021-11-13T10:05:24Z</time>
      </trkpt>
      <trkpt lat="48.99441" lon="2.00229">
        <ele>211.7</ele>
        <time>2021-11-13T10:05:30Z</time>
      </trkpt>
      <trkpt lat="48.99442" lon="2.00228">
        <ele>209.6</ele>
        <time>2021-11-13T10:05:36Z</time>
      </trkpt>
      <trkpt lat="48.99441" lon="2.00227">
        <ele>210.6</ele>
        <time>2021-11-13T10:05:41Z</time>
      </trkpt>
      <trkpt lat="48.99443" lon="2.00227">
        <ele>214</ele>
        <time>2021-11-13T10:05:46Z</time>
      </trkpt>
      <trkpt lat="48.99444" lon="2.00229">
        <ele>215.8</ele>
        <time>2021-11-13T10:05:52Z</time>
      </trkpt>
      <trkpt lat="48.99444" lon="2.00229">
        <ele>214.6</ele>
        <time>2021-11-13T10:05:57Z</time>
      </trkpt>
      <trkpt lat="48.99446" lon="2.0023">
        <ele>216</ele>
        <time>2021-11-13T10:06:02Z</time>
      </trkpt>
      <trkpt lat="48.99449" lon="2.00225">
        <ele>214.9</ele>
        <time>2021-11-13T10:06:08Z</time>
      </trkpt>
      <trkpt lat="48.99451" lon="2.00225">
        <ele>213.1</ele>
        <time>2021-11-13T10:06:13Z</time>
      </trkpt>
      <trkpt lat="48.99452" lon="2.00226">
        <ele>214.8</ele>
        <time>2021-11-13T10:06:18Z</time>
      </trkpt>
      <trkpt lat="48.99457" lon="2.00227">
        <ele>214.8</ele>
        <time>2021-11-13T10:06:24Z</time>
      </trkpt>
      <trkpt lat="48.99458" lon="2.00227">
        <ele>214.4</ele>
        <time>2021-11-13T10:06:30Z</time>
      </trkpt>
      <trkpt lat="48.99459" lon="2.00227">
        <ele>215.6</ele>
        <time>2021-11-13T10:06:35Z</time>
      </trkpt>
      <trkpt lat="48.99462" lon="2.00229">
        <ele>217.2</ele>
        <time>2021-11-13T10:06:41Z</time>
      </trkpt>
      <trkpt lat="48.99467" lon="2.00229">
        <ele>219</ele>
        <time>2021-11-13T10:06:46Z</time>
      </trkpt>
      <trkpt lat="48.99471" lon="2.00224">
        <ele>213.6</ele>
        <time>2021-11-13T10:06:51Z</time>
      </trkpt>
      <trkpt lat="48.99471" lon="2.00218">
        <ele>210</ele>
        <time>2021-11-13T10:06:57Z</time>
      </trkpt>
      <trkpt lat="48.99471" lon="2.00217">
        <ele>209.8</ele>
        <time>2021-11-13T10:07:02Z</time>
      </trkpt>
      <trkpt lat="48.99475" lon="2.00219">
        <ele>205.3</ele>
        <time>2021-11-13T10:07:08Z</time>
      </trkpt>
      <trkpt lat="48.99479" lon="2.00227">
        <ele>209.5</ele>
        <time>2021-11-13T10:07:13Z</time>
      </trkpt>
      <trkpt lat="48.99479" lon="2.0023">
        <ele>206.9</ele>
        <time>2021-11-13T10:07:19Z</time>
      </trkpt>
      <trkpt lat="48.99481" lon="2.00233">
        <ele>208.7</ele>
        <time>2021-11-13T10:07:25Z</time>
      </trkpt>
      <trkpt lat="48.99484" lon="2.00236">
        <ele>209</ele>
        <time>2021-11-13T10:07:30Z</time>
      </trkpt>
      <trkpt lat="48.99487" lon="2.00238">
        <ele>212.8</ele>
        <time>2021-11-13T10:07:36Z</time>
      </trkpt>
      <trkpt lat="48.99488" lon="2.00239">
        <ele>212.2</ele>
        <time>2021-11-13T10:07:41Z</time>
      </trkpt>
      <trkpt lat="48.99489" lon="2.00241">
        <ele>214.2</ele>
        <time>2021-11-13T10:07:46Z</time>
      </trkpt>
      <trkpt lat="48.99488" lon="2.00246">
        <ele>214.7</ele>
        <time>2021-11-13T10:07:51Z</time>
      </trkpt>
      <trkpt lat="48.99492" lon="2.00251">
        <ele>214.4</ele>
        <time>2021-11-13T10:07:57Z</time>
      </trkpt>
      <trkpt lat="48.99492" lon="2.00257">
        <ele>211.3</ele>
        <time>2021-11-13T10:08:02Z</time>
      </trkpt>
      <trkpt lat="48.99495" lon="2.00265">
        <ele>212.4</ele>
        <time>2021-11-13T10:08:08Z</time>
      </trkpt>
      <trkpt lat="48.99498" lon="2.00271">
        <ele>214.9</ele>
        <time>2021-11-13T10:08:14Z</time>
      </trkpt>
      <trkpt lat="48.995" lon="2.00274">
        <ele>215.8</ele>
        <time>2021-11-13T10:08:19Z</time>
      </trkpt>
      <trkpt lat="48.99506" lon="2.00272">
        <ele>217.6</ele>
        <time>2021-11-13T10:08:25Z</time>
      </trkpt>
      <trkpt lat="48.99507" lon="2.00271">
        <ele>217.4</ele>
        <time>2021-11-13T10:08:30Z</time>
      </trkpt>
      <trkpt lat="48.99511" lon="2.00265">
        <ele>219</ele>
        <time>2021-11-13T10:08:36Z</time>
      </trkpt>
      <trkpt lat="48.99514" lon="2.00263">
        <ele>221.9</ele>
        <time>2021-11-13T10:08:41Z</time>
      </trkpt>
      <trkpt lat="48.99517" lon="2.00262">
        <ele>221.1</ele>
        <time>2021-11-13T10:08:47Z</time>
      </trkpt>
      <trkpt lat="48.99523" lon="2.00258">
        <ele>226.6</ele>
        <time>2021-11-13T10:08:52Z</time>
      </trkpt>
      <trkpt lat="48.99528" lon="2.00253">
        <ele>215.3</ele>
        <time>2021-11-13T10:08:57Z</time>
      </trkpt>
      <trkpt lat="48.99538" lon="2.0025">
        <ele>219.6</ele>
        <time>2021-11-13T10:09:03Z</time>
      </trkpt>
      <trkpt lat="48.99544" lon="2.00249">
        <ele>217.3</ele>
        <time>2021-11-13T10:09:09Z</time>
      </trkpt>
      <trkpt lat="48.99548" lon="2.00241">
        <ele>222.2</ele>
        <time>2021-11-13T10:09:14Z</time>
      </trkpt>
      <trkpt lat="48.99554" lon="2.00237">
        <ele>222.9</ele>
        <time>2021-11-13T10:09:20Z</time>
      </trkpt>
      <trkpt lat="48.99557" lon="2.00234">
        <ele>222.7</ele>
        <time>2021-11-13T10:09:25Z</time>
      </trkpt>
      <trkpt lat="48.9956" lon="2.00231">
        <ele>225.7</ele>
        <time>2021-11-13T10:09:30Z</time>
      </trkpt>
      <trkpt lat="48.99562" lon="2.0023">
        <ele>227.4</ele>
        <time>2021-11-13T10:09:36Z</time>
      </trkpt>
      <trkpt lat="48.99568" lon="2.00228">
        <ele>222.7</ele>
        <time>2021-11-13T10:09:42Z</time>
      </trkpt>
      <trkpt lat="48.99573" lon="2.00225">
        <ele>223.1</ele>
        <time>2021-11-13T10:09:48Z</time>
      </trkpt>
      <trkpt lat="48.99581" lon="2.00221">
        <ele>223.2</ele>
        <time>2021-11-13T10:09:53Z</time>
      </trkpt>
      <trkpt lat="48.99589" lon="2.00219">
        <ele>222.2</ele>
        <time>2021-11-13T10:09:58Z</time>
      </trkpt>
      <trkpt lat="48.99595" lon="2.00217">
        <ele>224.3</ele>
        <time>2021-11-13T10:10:03Z</time>
      </trkpt>
      <trkpt lat="48.99607" lon="2.00209">
        <ele>222</ele>
        <time>2021-11-13T10:10:09Z</time>
      </trkpt>
      <trkpt lat="48.99615" lon="2.00205">
        <ele>222.4</ele>
        <time>2021-11-13T10:10:14Z</time>
      </trkpt>
      <trkpt lat="48.99622" lon="2.00199">
        <ele>223.5</ele>
        <time>2021-11-13T10:10:20Z</time>
      </trkpt>
      <trkpt lat="48.99627" lon="2.00199">
        <ele>223.4</ele>
        <time>2021-11-13T10:10:25Z</time>
      </trkpt>
      <trkpt lat="48.99636" lon="2.00191">
        <ele>226</ele>
        <time>2021-11-13T10:10:30Z</time>
      </trkpt>
      <trkpt lat="48.99643" lon="2.00187">
        <ele>225</ele>
        <time>2021-11-13T10:10:36Z</time>
      </trkpt>
      <trkpt lat="48.99652" lon="2.00186">
        <ele>226.3</ele>
        <time>2021-11-13T10:10:42Z</time>
      </trkpt>
      <trkpt lat="48.99656" lon="2.00185">
        <ele>222.8</ele>
        <time>2021-11-13T10:10:48Z</time>
      </trkpt>
      <trkpt lat="48.99662" lon="2.00185">
        <ele>224.7</ele>
        <time>2021-11-13T10:10:54Z</time>
      </trkpt>
      <trkpt lat="48.99669" lon="2.00183">
        <ele>220.9</ele>
        <time>2021-11-13T10:11:00Z</time>
      </trkpt>
      <trkpt lat="48.99675" lon="2.00181">
        <ele>220.7</ele>
        <time>2021-11-13T10:11:05Z</time>
      </trkpt>
      <trkpt lat="48.99682" lon="2.00177">
        <ele>221.3</ele>
        <time>2021-11-13T10:11:11Z</time>
      </trkpt>
      <trkpt lat="48.99693" lon="2.00172">
        <ele>221</ele>
        <time>2021-11-13T10:11:17Z</time>
      </trkpt>
      <trkpt lat="48.99701" lon="2.00166">
        <ele>215.3</ele>
        <time>2021-11-13T10:11:22Z</time>
      </trkpt>
      <trkpt lat="48.9971" lon="2.00161">
        <ele>218.1</ele>
        <time>2021-11-13T10:11:28Z</time>
      </trkpt>
      <trkpt lat="48.99716" lon="2.00159">
        <ele>223.3</ele>
        <time>2021-11-13T10:11:34Z</time>
      </trkpt>
      <trkpt lat="48.99722" lon="2.00158">
        <ele>220.7</ele>
        <time>2021-11-13T10:11:39Z</time>
      </trkpt>
      <trkpt lat="48.99729" lon="2.00156">
        <ele>222</ele>
        <time>2021-11-13T10:11:44Z</time>
      </trkpt>
      <trkpt lat="48.99734" lon="2.00152">
        <ele>218.8</ele>
        <time>2021-11-13T10:11:49Z</time>
      </trkpt>
      <trkpt lat="48.9974" lon="2.0015">
        <ele>219.2</ele>
        <time>2021-11-13T10:11:55Z</time>
      </trkpt>
      <trkpt lat="48.99745" lon="2.00149">
        <ele>224.6</ele>
        <time>2021-11-13T10:12:01Z</time>
      </trkpt>
      <trkpt lat="48.99751" lon="2.00146">
        <ele>226.2</ele>
        <time>2021-11-13T10:12:06Z</time>
      </trkpt>
      <trkpt lat="48.9976" lon="2.00139">
        <ele>222</ele>
        <time>2021-11-13T10:12:11Z</time>
      </trkpt>
      <trkpt lat="48.99772" lon="2.00138">
        <ele>220.4</ele>
        <time>2021-11-13T10:12:17Z</time>
      </trkpt>
      <trkpt lat="48.99779" lon="2.00135">
        <ele>223.6</ele>
        <time>2021-11-13T10:12:22Z</time>
      </trkpt>
      <trkpt lat="48.99785" lon="2.00132">
        <ele>225.3</ele>
        <time>2021-11-13T10:12:28Z</time>
      </trkpt>
      <trkpt lat="48.99795" lon="2.00129">
        <ele>221.3</ele>
        <time>2021-11-13T10:12:34Z</time>
      </trkpt>
      <trkpt lat="48.99803" lon="2.00127">
        <ele>228.2</ele>
        <time>2021-11-13T10:12:39Z</time>
      </trkpt>
      <trkpt lat="48.99811" lon="2.00125">
        <ele>227.8</ele>
        <time>2021-11-13T10:12:44Z</time>
      </trkpt>
      <trkpt lat="48.99816" lon="2.00121">
        <ele>225.9</ele>
        <time>2021-11-13T10:12:50Z</time>
      </trkpt>
      <trkpt lat="48.99823" lon="2.00118">
        <ele>227.6</ele>
        <time>2021-11-13T10:12:56Z</time>
      </trkpt>
      <trkpt lat="48.99829" lon="2.00117">
        <ele>227.1</ele>
        <time>2021-11-13T10:13:02Z</time>
      </trkpt>
      <trkpt lat="48.99836" lon="2.00112">
        <ele>224.1</ele>
        <time>2021-11-13T10:13:08Z</time>
      </trkpt>
      <trkpt lat="48.99844" lon="2.00109">
        <ele>223.1</ele>
        <time>2021-11-13T10:13:13Z</time>
      </trkpt>
      <trkpt lat="48.99852" lon="2.00108">
        <ele>226.2</ele>
        <time>2021-11-13T10:13:19Z</time>
      </trkpt>
      <trkpt lat="48.9986" lon="2.00102">
        <ele>228.2</ele>
        <time>2021-11-13T10:13:25Z</time>
      </trkpt>
      <trkpt lat="48.99867" lon="2.00097">
        <ele>223.3</ele>
        <time>2021-11-13T10:13:31Z</time>
      </trkpt>
      <trkpt lat="48.99872" lon="2.00097">
        <ele>219.1</ele>
        <time>2021-11-13T10:13:37Z</time>
      </trkpt>
      <trkpt lat="48.99878" lon="2.00095">
        <ele>225.2</ele>
        <time>2021-11-13T10:13:42Z</time>
      </trkpt>
      <trkpt lat="48.99886" lon="2.00094">
        <ele>223.2</ele>
        <time>2021-11-13T10:13:47Z</time>
      </trkpt>
      <trkpt lat="48.99895" lon="2.00093">
        <ele>224</ele>
        <time>2021-11-13T10:13:53Z</time>
      </trkpt>
      <trkpt lat="48.99901" lon="2.00088">
        <ele>222.9</ele>
        <time>2021-11-13T10:13:59Z</time>
      </trkpt>
      <trkpt lat="48.99905" lon="2.00087">
        <ele>217.6</ele>
        <time>2021-11-13T10:14:05Z</time>
      </trkpt>
      <trkpt lat="48.99909" lon="2.00096">
        <ele>215.7</ele>
        <time>2021-11-13T10:14:11Z</time>
      </trkpt>
      <trkpt lat="48.99909" lon="2.00107">
        <ele>219.1</ele>
        <time>2021-11-13T10:14:16Z</time>
      </trkpt>
      <trkpt lat="48.99908" lon="2.00117">
        <ele>221.5</ele>
        <time>2021-11-13T10:14:21Z</time>
      </trkpt>
      <trkpt lat="48.99904" lon="2.00123">
        <ele>219.4</ele>
        <time>2021-11-13T10:14:26Z</time>
      </trkpt>
      <trkpt lat="48.99903" lon="2.00132">
        <ele>219.6</ele>
        <time>2021-11-13T10:14:31Z</time>
      </trkpt>
      <trkpt lat="48.99903" lon="2.00142">
        <ele>217.1</ele>
        <time>2021-11-13T10:14:37Z</time>
      </trkpt>
      <trkpt lat="48.99901" lon="2.00156">
        <ele>224.9</ele>
        <time>2021-11-13T10:14:43Z</time>
      </trkpt>
      <trkpt lat="48.99901" lon="2.00167">
        <ele>221.1</ele>
        <time>2021-11-13T10:14:48Z</time>
      </trkpt>
      <trkpt lat="48.99899" lon="2.00176">
        <ele>222.7</ele>
        <time>2021-11-13T10:14:53Z</time>
      </trkpt>
      <trkpt lat="48.99897" lon="2.0019">
        <ele>222.2</ele>
        <time>2021-11-13T10:14:59Z</time>
      </trkpt>
      <trkpt lat="48.99893" lon="2.002">
        <ele>222.7</ele>
        <time>2021-11-13T10:15:04Z</time>
      </trkpt>
      <trkpt lat="48.99892" lon="2.00205">
        <ele>222.9</ele>
        <time>2021-11-13T10:15:10Z</time>
      </trkpt>
      <trkpt lat="48.99891" lon="2.00217">
        <ele>222.1</ele>
        <time>2021-11-13T10:15:16Z</time>
      </trkpt>
      <trkpt lat="48.99889" lon="2.00229">
        <ele>221.9</ele>
        <time>2021-11-13T10:15:21Z</time>
      </trkpt>
      <trkpt lat="48.99886" lon="2.00242">
        <ele>219.4</ele>
        <time>2021-11-13T10:15:26Z</time>
      </trkpt>
      <trkpt lat="48.99885" lon="2.00251">
        <ele>216</ele>
        <time>2021-11-13T10:15:32Z</time>
      </trkpt>
      <trkpt lat="48.99883" lon="2.00267">
        <ele>216.9</ele>
        <time>2021-11-13T10:15:37Z</time>
      </trkpt>
      <trkpt lat="48.99877" lon="2.00278">
        <ele>222.4</ele>
        <time>2021-11-13T10:15:43Z</time>
      </trkpt>
      <trkpt lat="48.99875" lon="2.00288">
        <ele>220.7</ele>
        <time>2021-11-13T10:15:49Z</time>
      </trkpt>
      <trkpt lat="48.99873" lon="2.00301">
        <ele>222.8</ele>
        <time>2021-11-13T10:15:55Z</time>
      </trkpt>
      <trkpt lat="48.99871" lon="2.00308">
        <ele>221.2</ele>
        <time>2021-11-13T10:16:00Z</time>
      </trkpt>
      <trkpt lat="48.9987" lon="2.00323">
        <ele>220.6</ele>
        <time>2021-11-13T10:16:06Z</time>
      </trkpt>
      <trkpt lat="48.99868" lon="2.00337">
        <ele>222.7</ele>
        <time>2021-11-13T10:16:12Z</time>
      </trkpt>
      <trkpt lat="48.99867" lon="2.00353">
        <ele>219.5</ele>
        <time>2021-11-13T10:16:18Z</time>
      </trkpt>
      <trkpt lat="48.99865" lon="2.00362">
        <ele>218.7</ele>
        <time>2021-11-13T10:16:24Z</time>
      </trkpt>
      <trkpt lat="48.99862" lon="2.00373">
        <ele>219.2</ele>
        <time>2021-11-13T10:16:29Z</time>
      </trkpt>
      <trkpt lat="48.9986" lon="2.00387">
        <ele>215.9</ele>
        <time>2021-11-13T10:16:34Z</time>
      </trkpt>
      <trkpt lat="48.99856" lon="2.00397">
        <ele>223.9</ele>
        <time>2021-11-13T10:16:40Z</time>
      </trkpt>
      <trkpt lat="48.99854" lon="2.00408">
        <ele>227.1</ele>
        <time>2021-11-13T10:16:46Z</time>
      </trkpt>
      <trkpt lat="48.99853" lon="2.00414">
        <ele>228.6</ele>
        <time>2021-11-13T10:16:52Z</time>
      </trkpt>
      <trkpt lat="48.99854" lon="2.00425">
        <ele>225.5</ele>
        <time>2021-11-13T10:16:57Z</time>
      </trkpt>
      <trkpt lat="48.99851" lon="2.00437">
        <ele>228.7</ele>
        <time>2021-11-13T10:17:02Z</time>
      </trkpt>
      <trkpt lat="48.99844" lon="2.00442">
        <ele>223.6</ele>
        <time>2021-11-13T10:17:07Z</time>
      </trkpt>
      <trkpt lat="48.99836" lon="2.00441">
        <ele>223.7</ele>
        <time>2021-11-13T10:17:13Z</time>
      </trkpt>
      <trkpt lat="48.99833" lon="2.00438">
        <ele>222.6</ele>
        <time>2021-11-13T10:17:18Z</time>
      </trkpt>
      <trkpt lat="48.99826" lon="2.00427">
        <ele>223.2</ele>
        <time>2021-11-13T10:17:24Z</time>
      </trkpt>
      <trkpt lat="48.99821" lon="2.00422">
        <ele>223.9</ele>
        <time>2021-11-13T10:17:29Z</time>
      </trkpt>
      <trkpt lat="48.99813" lon="2.00417">
        <ele>226.5</ele>
        <time>2021-11-13T10:17:34Z</time>
      </trkpt>
      <trkpt lat="48.99805" lon="2.00413">
        <ele>227.6</ele>
        <time>2021-11-13T10:17:40Z</time>
      </trkpt>
      <trkpt lat="48.99795" lon="2.0041">
        <ele>223</ele>
        <time>2021-11-13T10:17:46Z</time>
      </trkpt>
      <trkpt lat="48.99791" lon="2.0041">
        <ele>223.3</ele>
        <time>2021-11-13T10:17:51Z</time>
      </trkpt>
      <trkpt lat="48.99782" lon="2.00403">
        <ele>226.5</ele>
        <time>2021-11-13T10:17:57Z</time>
      </trkpt>
      <trkpt lat="48.99773" lon="2.00402">
        <ele>225.1</ele>
        <time>2021-11-13T10:18:02Z</time>
      </trkpt>
      <trkpt lat="48.99766" lon="2.00398">
        <ele>223.7</ele>
        <time>2021-11-13T10:18:08Z</time>
      </trkpt>
      <trkpt lat="48.99764" lon="2.00393">
        <ele>226.8</ele>
        <time>2021-11-13T10:18:13Z</time>
      </trkpt>
      <trkpt lat="48.99759" lon="2.00388">
        <ele>222.4</ele>
        <time>2021-11-13T10:18:18Z</time>
      </trkpt>
      <trkpt lat="48.99747" lon="2.00381">
        <ele>222.3</ele>
        <time>2021-11-13T10:18:24Z</time>
      </trkpt>
      <trkpt lat="48.99744" lon="2.00375">
        <ele>227.4</ele>
        <time>2021-11-13T10:18:29Z</time>
      </trkpt>
      <trkpt lat="48.99734" lon="2.00366">
        <ele>229.7</ele>
        <time>2021-11-13T10:18:35Z</time>
      </trkpt>
      <trkpt lat="48.99728" lon="2.00355">
        <ele>231.2</ele>
        <time>2021-11-13T10:18:41Z</time>
      </trkpt>
      <trkpt lat="48.99724" lon="2.00356">
        <ele>228.8</ele>
        <time>2021-11-13T10:18:46Z</time>
      </trkpt>
      <trkpt lat="48.99717" lon="2.00353">
        <ele>227.2</ele>
        <time>2021-11-13T10:18:51Z</time>
      </trkpt>
      <trkpt lat="48.99711" lon="2.00351">
        <ele>228.6</ele>
        <time>2021-11-13T10:18:56Z</time>
      </trkpt>
      <trkpt lat="48.99704" lon="2.00347">
        <ele>232.1</ele>
        <time>2021-11-13T10:19:01Z</time>
      </trkpt>
      <trkpt lat="48.99696" lon="2.00341">
        <ele>234.3</ele>
        <time>2021-11-13T10:19:07Z</time>
      </trkpt>
      <trkpt lat="48.99685" lon="2.00338">
        <ele>239.9</ele>
        <time>2021-11-13T10:19:13Z</time>
      </trkpt>
      <trkpt lat="48.99679" lon="2.00336">
        <ele>236.4</ele>
        <time>2021-11-13T10:19:18Z</time>
      </trkpt>
      <trkpt lat="48.99671" lon="2.00334">
        <ele>239.2</ele>
        <time>2021-11-13T10:19:24Z</time>
      </trkpt>
      <trkpt lat="48.99665" lon="2.00333">
        <ele>237.9</ele>
        <time>2021-11-13T10:19:29Z</time>
      </trkpt>
      <trkpt lat="48.9966" lon="2.00332">
        <ele>228.7</ele>
        <time>2021-11-13T10:19:35Z</time>
      </trkpt>
      <trkpt lat="48.99654" lon="2.00329">
        <ele>232.9</ele>
        <time>2021-11-13T10:19:40Z</time>
      </trkpt>
      <trkpt lat="48.99643" lon="2.00324">
        <ele>228.3</ele>
        <time>2021-11-13T10:19:46Z</time>
      </trkpt>
      <trkpt lat="48.99639" lon="2.00322">
        <ele>232.6</ele>
        <time>2021-11-13T10:19:51Z</time>
      </trkpt>
      <trkpt lat="48.99633" lon="2.00323">
        <ele>233.8</ele>
        <time>2021-11-13T10:19:56Z</time>
      </trkpt>
      <trkpt lat="48.99625" lon="2.00323">
        <ele>235.2</ele>
        <time>2021-11-13T10:20:01Z</time>
      </trkpt>
      <trkpt lat="48.99618" lon="2.00319">
        <ele>231.9</ele>
        <time>2021-11-13T10:20:07Z</time>
      </trkpt>
      <trkpt lat="48.99606" lon="2.00315">
        <ele>231.4</ele>
        <time>2021-11-13T10:20:13Z</time>
      </trkpt>
      <trkpt lat="48.99599" lon="2.00313">
        <ele>224.7</ele>
        <time>2021-11-13T10:20:19Z</time>
      </trkpt>
      <trkpt lat="48.99594" lon="2.00311">
        <ele>225</ele>
        <time>2021-11-13T10:20:24Z</time>
      </trkpt>
      <trkpt lat="48.99586" lon="2.00309">
        <ele>223.4</ele>
        <time>2021-11-13T10:20:30Z</time>
      </trkpt>
      <trkpt lat="48.99577" lon="2.00309">
        <ele>224.1</ele>
        <time>2021-11-13T10:20:36Z</time>
      </trkpt>
      <trkpt lat="48.9957" lon="2.00306">
        <ele>221.7</ele>
        <time>2021-11-13T10:20:42Z</time>
      </trkpt>
      <trkpt lat="48.99559" lon="2.00304">
        <ele>221.5</ele>
        <time>2021-11-13T10:20:48Z</time>
      </trkpt>
      <trkpt lat="48.99554" lon="2.00303">
        <ele>221.5</ele>
        <time>2021-11-13T10:20:53Z</time>
      </trkpt>
      <trkpt lat="48.99544" lon="2.00305">
        <ele>222.4</ele>
        <time>2021-11-13T10:20:58Z</time>
      </trkpt>
      <trkpt lat="48.99537" lon="2.00303">
        <ele>222.7</ele>
        <time>2021-11-13T10:21:04Z</time>
      </trkpt>
      <trkpt lat="48.99529" lon="2.00299">
        <ele>222.7</ele>
        <time>2021-11-13T10:21:10Z</time>
      </trkpt>
      <trkpt lat="48.99522" lon="2.00297">
        <ele>219</ele>
        <time>2021-11-13T10:21:16Z</time>
      </trkpt>
      <trkpt lat="48.99518" lon="2.00297">
        <ele>218.9</ele>
        <time>2021-11-13T10:21:22Z</time>
      </trkpt>
      <trkpt lat="48.99511" lon="2.00297">
        <ele>220.5</ele>
        <time>2021-11-13T10:21:27Z</time>
      </trkpt>
      <trkpt lat="48.99507" lon="2.00296">
        <ele>214.5</ele>
        <time>2021-11-13T10:21:32Z</time>
      </trkpt>
      <trkpt lat="48.99504" lon="2.00297">
        <ele>214.7</ele>
        <time>2021-11-13T10:21:37Z</time>
      </trkpt>
      <trkpt lat="48.99502" lon="2.00301">
        <ele>215.1</ele>
        <time>2021-11-13T10:21:43Z</time>
      </trkpt>
      <trkpt lat="48.99503" lon="2.00304">
        <ele>213.1</ele>
        <time>2021-11-13T10:21:49Z</time>
      </trkpt>
      <trkpt lat="48.99502" lon="2.00302">
        <ele>215.5</ele>
        <time>2021-11-13T10:21:55Z</time>
      </trkpt>
      <trkpt lat="48.99503" lon="2.00302">
        <ele>216.9</ele>
        <time>2021-11-13T10:22:00Z</time>
      </trkpt>
      <trkpt lat="48.99502" lon="2.00302">
        <ele>219.1</ele>
        <time>2021-11-13T10:22:05Z</time>
      </trkpt>
      <trkpt lat="48.99503" lon="2.00301">
        <ele>217</ele>
        <time>2021-11-13T10:22:10Z</time>
      </trkpt>
      <trkpt lat="48.99503" lon="2.00301">
        <ele>217.7</ele>
        <time>2021-11-13T10:22:16Z</time>
      </trkpt>
      <trkpt lat="48.99501" lon="2.00303">
        <ele>216.9</ele>
        <time>2021-11-13T10:22:21Z</time>
      </trkpt>
      <trkpt lat="48.99495" lon="2.00304">
        <ele>219.7</ele>
        <time>2021-11-13T10:22:27Z</time>
      </trkpt>
      <trkpt lat="48.9949" lon="2.00307">
        <ele>222.9</ele>
        <time>2021-11-13T10:22:33Z</time>
      </trkpt>
      <trkpt lat="48.99488" lon="2.00313">
        <ele>218.7</ele>
        <time>2021-11-13T10:22:38Z</time>
      </trkpt>
      <trkpt lat="48.99483" lon="2.00316">
        <ele>219.2</ele>
        <time>2021-11-13T10:22:44Z</time>
      </trkpt>
      <trkpt lat="48.99477" lon="2.00328">
        <ele>222.4</ele>
        <time>2021-11-13T10:22:50Z</time>
      </trkpt>
      <trkpt lat="48.99473" lon="2.00337">
        <ele>220.2</ele>
        <time>2021-11-13T10:22:55Z</time>
      </trkpt>
      <trkpt lat="48.99469" lon="2.00342">
        <ele>217</ele>
        <time>2021-11-13T10:23:01Z</time>
      </trkpt>
      <trkpt lat="48.99466" lon="2.00345">
        <ele>214</ele>
        <time>2021-11-13T10:23:06Z</time>
      </trkpt>
      <trkpt lat="48.99464" lon="2.00346">
        <ele>216.4</ele>
        <time>2021-11-13T10:23:11Z</time>
      </trkpt>
      <trkpt lat="48.99458" lon="2.00345">
        <ele>211.7</ele>
        <time>2021-11-13T10:23:16Z</time>
      </trkpt>
      <trkpt lat="48.9945" lon="2.00354">
        <ele>210.1</ele>
        <time>2021-11-13T10:23:22Z</time>
      </trkpt>
      <trkpt lat="48.99444" lon="2.0036">
        <ele>213.5</ele>
        <time>2021-11-13T10:23:27Z</time>
      </trkpt>
      <trkpt lat="48.99437" lon="2.00366">
        <ele>215.2</ele>
        <time>2021-11-13T10:23:33Z</time>
      </trkpt>
      <trkpt lat="48.99431" lon="2.00372">
        <ele>212</ele>
        <time>2021-11-13T10:23:39Z</time>
      </trkpt>
      <trkpt lat="48.99425" lon="2.00375">
        <ele>212.6</ele>
        <time>2021-11-13T10:23:44Z</time>
      </trkpt>
      <trkpt lat="48.9942" lon="2.0038">
        <ele>207.5</ele>
        <time>2021-11-13T10:23:50Z</time>
      </trkpt>
      <trkpt lat="48.99415" lon="2.00386">
        <ele>204.8</ele>
        <time>2021-11-13T10:23:55Z</time>
      </trkpt>
      <trkpt lat="48.99413" lon="2.00394">
        <ele>202</ele>
        <time>2021-11-13T10:24:01Z</time>
      </trkpt>
      <trkpt lat="48.99407" lon="2.00403">
        <ele>201.6</ele>
        <time>2021-11-13T10:24:07Z</time>
      </trkpt>
      <trkpt lat="48.99403" lon="2.00414">
        <ele>203.7</ele>
        <time>2021-11-13T10:24:12Z</time>
      </trkpt>
      <trkpt lat="48.99399" lon="2.00423">
        <ele>205.3</ele>
        <time>2021-11-13T10:24:17Z</time>
      </trkpt>
      <trkpt lat="48.99395" lon="2.00428">
        <ele>205.7</ele>
        <time>2021-11-13T10:24:23Z</time>
      </trkpt>
      <trkpt lat="48.9939" lon="2.00432">
        <ele>203.2</ele>
        <time>2021-11-13T10:24:29Z</time>
      </trkpt>
      <trkpt lat="48.99387" lon="2.00432">
        <ele>204.2</ele>
        <time>2021-11-13T10:24:35Z</time>
      </trkpt>
      <trkpt lat="48.99384" lon="2.0043">
        <ele>197.1</ele>
        <time>2021-11-13T10:24:40Z</time>
      </trkpt>
      <trkpt lat="48.9938" lon="2.00427">
        <ele>192.5</ele>
        <time>2021-11-13T10:24:46Z</time>
      </trkpt>
      <trkpt lat="48.99378" lon="2.00425">
        <ele>191</ele>
        <time>2021-11-13T10:24:51Z</time>
      </trkpt>
      <trkpt lat="48.99375" lon="2.00423">
        <ele>192.2</ele>
        <time>2021-11-13T10:24:56Z</time>
      </trkpt>
      <trkpt lat="48.99372" lon="2.00424">
        <ele>191.2</ele>
        <time>2021-11-13T10:25:02Z</time>
      </trkpt>
      <trkpt lat="48.9937" lon="2.00421">
        <ele>190.9</ele>
        <time>2021-11-13T10:25:07Z</time>
      </trkpt>
      <trkpt lat="48.99368" lon="2.00416">
        <ele>186.7</ele>
        <time>2021-11-13T10:25:13Z</time>
      </trkpt>
      <trkpt lat="48.99364" lon="2.00414">
        <ele>189.9</ele>
        <time>2021-11-13T10:25:19Z</time>
      </trkpt>
      <trkpt lat="48.9936" lon="2.00408">
        <ele>190.1</ele>
        <time>2021-11-13T10:25:24Z</time>
      </trkpt>
      <trkpt lat="48.99359" lon="2.00404">
        <ele>190.8</ele>
        <time>2021-11-13T10:25:29Z</time>
      </trkpt>
      <trkpt lat="48.99358" lon="2.00404">
        <ele>189.8</ele>
        <time>2021-11-13T10:25:35Z</time>
      </trkpt>
      <trkpt lat="48.9936" lon="2.00408">
        <ele>186.9</ele>
        <time>2021-11-13T10:25:40Z</time>
      </trkpt>
      <trkpt lat="48.99359" lon="2.00415">
        <ele>187.1</ele>
        <time>2021-11-13T10:25:46Z</time>
      </trkpt>
      <trkpt lat="48.99357" lon="2.00416">
        <ele>187.8</ele>
        <time>2021-11-13T10:25:51Z</time>
      </trkpt>
      <trkpt lat="48.99356" lon="2.00422">
        <ele>190.7</ele>
        <time>2021-11-13T10:25:56Z</time>
      </trkpt>
      <trkpt lat="48.99355" lon="2.00422">
        <ele>187.3</ele>
        <time>2021-11-13T10:26:01Z</time>
      </trkpt>
      <trkpt lat="48.99353" lon="2.00421">
        <ele>185.8</ele>
        <time>2021-11-13T10:26:07Z</time>
      </trkpt>
      <trkpt lat="48.99353" lon="2.00422">
        <ele>181.9</ele>
        <time>2021-11-13T10:26:13Z</time>
      </trkpt>
      <trkpt lat="48.99354" lon="2.00424">
        <ele>180.1</ele>
        <time>2021-11-13T10:26:18Z</time>
      </trkpt>
      <trkpt lat="48.99352" lon="2.00424">
        <ele>177.4</ele>
        <time>2021-11-13T10:26:24Z</time>
      </trkpt>
      <trkpt lat="48.99353" lon="2.00428">
        <ele>177.5</ele>
        <time>2021-11-13T10:26:30Z</time>
      </trkpt>
      <trkpt lat="48.99355" lon="2.0043">
        <ele>171.8</ele>
        <time>2021-11-13T10:26:35Z</time>
      </trkpt>
      <trkpt lat="48.99358" lon="2.00431">
        <ele>175.5</ele>
        <time>2021-11-13T10:26:41Z</time>
      </trkpt>
      <trkpt lat="48.99359" lon="2.00429">
        <ele>176.2</ele>
        <time>2021-11-13T10:26:47Z</time>
      </trkpt>
      <trkpt lat="48.9936" lon="2.00427">
        <ele>175.2</ele>
        <time>2021-11-13T10:26:52Z</time>
      </trkpt>
      <trkpt lat="48.9936" lon="2.0043">
        <ele>177</ele>
        <time>2021-11-13T10:26:58Z</time>
      </trkpt>
      <trkpt lat="48.99361" lon="2.00429">
        <ele>180.7</ele>
        <time>2021-11-13T10:27:03Z</time>
      </trkpt>
      <trkpt lat="48.99362" lon="2.00427">
        <ele>182.4</ele>
        <time>2021-11-13T10:27:08Z</time>
      </trkpt>
      <trkpt lat="48.99364" lon="2.00428">
        <ele>184</ele>
        <time>2021-11-13T10:27:13Z</time>
      </trkpt>
      <trkpt lat="48.99365" lon="2.00429">
        <ele>185.9</ele>
        <time>2021-11-13T10:27:19Z</time>
      </trkpt>
      <trkpt lat="48.99369" lon="2.00432">
        <ele>183.8</ele>
        <time>2021-11-13T10:27:25Z</time>
      </trkpt>
      <trkpt lat="48.99372" lon="2.00436">
        <ele>186.3</ele>
        <time>2021-11-13T10:27:30Z</time>
      </trkpt>
      <trkpt lat="48.99376" lon="2.00439">
        <ele>187.4</ele>
        <time>2021-11-13T10:27:36Z</time>
      </trkpt>
      <trkpt lat="48.99381" lon="2.0044">
        <ele>188</ele>
        <time>2021-11-13T10:27:42Z</time>
      </trkpt>
      <trkpt lat="48.99387" lon="2.00446">
        <ele>188.4</ele>
        <time>2021-11-13T10:27:48Z</time>
      </trkpt>
      <trkpt lat="48.9939" lon="2.0045">
        <ele>187.7</ele>
        <time>2021-11-13T10:27:54Z</time>
      </trkpt>
      <trkpt lat="48.99392" lon="2.00445">
        <ele>185.7</ele>
        <time>2021-11-13T10:28:00Z</time>
      </trkpt>
      <trkpt lat="48.99394" lon="2.00443">
        <ele>187.1</ele>
        <time>2021-11-13T10:28:05Z</time>
      </trkpt>
      <trkpt lat="48.99394" lon="2.00444">
        <ele>187.6</ele>
        <time>2021-11-13T10:28:11Z</time>
      </trkpt>
      <trkpt lat="48.99394" lon="2.00444">
        <ele>187.2</ele>
        <time>2021-11-13T10:28:17Z</time>
      </trkpt>
      <trkpt lat="48.99394" lon="2.00445">
        <ele>186.1</ele>
        <time>2021-11-13T10:28:23Z</time>
      </trkpt>
      <trkpt lat="48.99393" lon="2.00448">
        <ele>187.8</ele>
        <time>2021-11-13T10:28:28Z</time>
      </trkpt>
      <trkpt lat="48.99392" lon="2.00451">
        <ele>192.6</ele>
        <time>2021-11-13T10:28:33Z</time>
      </trkpt>
      <trkpt lat="48.99394" lon="2.00453">
        <ele>187.9</ele>
        <time>2021-11-13T10:28:39Z</time>
      </trkpt>
      <trkpt lat="48.99394" lon="2.00455">
        <ele>194.1</ele>
        <time>2021-11-13T10:28:45Z</time>
      </trkpt>
      <trkpt lat="48.99395" lon="2.00457">
        <ele>193</ele>
        <time>2021-11-13T10:28:51Z</time>
      </trkpt>
      <trkpt lat="48.99398" lon="2.00459">
        <ele>188.8</ele>
        <time>2021-11-13T10:28:56Z</time>
      </trkpt>
      <trkpt lat="48.994" lon="2.00464">
        <ele>195.3</ele>
        <time>2021-11-13T10:29:02Z</time>
      </trkpt>
      <trkpt lat="48.99401" lon="2.00468">
        <ele>193.4</ele>
        <time>2021-11-13T10:29:08Z</time>
      </trkpt>
      <trkpt lat="48.99401" lon="2.00471">
        <ele>193.9</ele>
        <time>2021-11-13T10:29:13Z</time>
      </trkpt>
      <trkpt lat="48.99404" lon="2.00473">
        <ele>192.8</ele>
        <time>2021-11-13T10:29:19Z</time>
      </trkpt>
      <trkpt lat="48.99407" lon="2.00475">
        <ele>191.3</ele>
        <time>2021-11-13T10:29:25Z</time>
      </trkpt>
      <trkpt lat="48.99408" lon="2.00476">
        <ele>188.2</ele>
        <time>2021-11-13T10:29:31Z</time>
      </trkpt>
      <trkpt lat="48.99412" lon="2.0048">
        <ele>193.4</ele>
        <time>2021-11-13T10:29:36Z</time>
      </trkpt>
      <trkpt lat="48.99419" lon="2.00488">
        <ele>191.9</ele>
        <time>2021-11-13T10:29:42Z</time>
      </trkpt>
      <trkpt lat="48.99423" lon="2.00493">
        <ele>194.1</ele>
        <time>2021-11-13T10:29:48Z</time>
      </trkpt>
      <trkpt lat="48.99428" lon="2.00495">
        <ele>189</ele>
        <time>2021-11-13T10:29:54Z</time>
      </trkpt>
      <trkpt lat="48.9943" lon="2.00497">
        <ele>190.7</ele>
        <time>2021-11-13T10:30:00Z</time>
      </trkpt>
      <trkpt lat="48.99433" lon="2.00499">
        <ele>189.1</ele>
        <time>2021-11-13T10:30:05Z</time>
      </trkpt>
      <trkpt lat="48.99435" lon="2.005">
        <ele>186.3</ele>
        <time>2021-11-13T10:30:11Z</time>
      </trkpt>
      <trkpt lat="48.99435" lon="2.00504">
        <ele>188.3</ele>
        <time>2021-11-13T10:30:17Z</time>
      </trkpt>
      <trkpt lat="48.99427" lon="2.00517">
        <ele>188.8</ele>
        <time>2021-11-13T10:30:22Z</time>
      </trkpt>
      <trkpt lat="48.99417" lon="2.0052">
        <ele>188.2</ele>
        <time>2021-11-13T10:30:28Z</time>
      </trkpt>
      <trkpt lat="48.99411" lon="2.00528">
        <ele>185.6</ele>
        <time>2021-11-13T10:30:34Z</time>
      </trkpt>
      <trkpt lat="48.99407" lon="2.00532">
        <ele>187</ele>
        <time>2021-11-13T10:30:39Z</time>
      </trkpt>
      <trkpt lat="48.99402" lon="2.00533">
        <ele>185.6</ele>
        <time>2021-11-13T10:30:44Z</time>
      </trkpt>
      <trkpt lat="48.99399" lon="2.00533">
        <ele>185.2</ele>
        <time>2021-11-13T10:30:50Z</time>
      </trkpt>
      <trkpt lat="48.99396" lon="2.00536">
        <ele>181.5</ele>
        <time>2021-11-13T10:30:56Z</time>
      </trkpt>
      <trkpt lat="48.99394" lon="2.00533">
        <ele>181.9</ele>
        <time>2021-11-13T10:31:02Z</time>
      </trkpt>
      <trkpt lat="48.99387" lon="2.00532">
        <ele>181</ele>
        <time>2021-11-13T10:31:07Z</time>
      </trkpt>
      <trkpt lat="48.99382" lon="2.00534">
        <ele>183.3</ele>
        <time>2021-11-13T10:31:12Z</time>
      </trkpt>
      <trkpt lat="48.99378" lon="2.00541">
        <ele>185.9</ele>
        <time>2021-11-13T10:31:18Z</time>
      </trkpt>
      <trkpt lat="48.99376" lon="2.00549">
        <ele>180.2</ele>
        <time>2021-11-13T10:31:23Z</time>
      </trkpt>
      <trkpt lat="48.99379" lon="2.00557">
        <ele>181.1</ele>
        <time>2021-11-13T10:31:29Z</time>
      </trkpt>
      <trkpt lat="48.99377" lon="2.00561">
        <ele>181.7</ele>
        <time>2021-11-13T10:31:35Z</time>
      </trkpt>
      <trkpt lat="48.99376" lon="2.00566">
        <ele>174.8</ele>
        <time>2021-11-13T10:31:41Z</time>
      </trkpt>
      <trkpt lat="48.99373" lon="2.0057">
        <ele>175.3</ele>
        <time>2021-11-13T10:31:46Z</time>
      </trkpt>
      <trkpt lat="48.99372" lon="2.00576">
        <ele>175.9</ele>
        <time>2021-11-13T10:31:52Z</time>
      </trkpt>
      <trkpt lat="48.9937" lon="2.00579">
        <ele>173.6</ele>
        <time>2021-11-13T10:31:58Z</time>
      </trkpt>
      <trkpt lat="48.99369" lon="2.00579">
        <ele>173.5</ele>
        <time>2021-11-13T10:32:03Z</time>
      </trkpt>
      <trkpt lat="48.99367" lon="2.00583">
        <ele>175.1</ele>
        <time>2021-11-13T10:32:09Z</time>
      </trkpt>
      <trkpt lat="48.99366" lon="2.00594">
        <ele>175.1</ele>
        <time>2021-11-13T10:32:15Z</time>
      </trkpt>
      <trkpt lat="48.99367" lon="2.00605">
        <ele>173.4</ele>
        <time>2021-11-13T10:32:20Z</time>
      </trkpt>
      <trkpt lat="48.99364" lon="2.00611">
        <ele>176.4</ele>
        <time>2021-11-13T10:32:26Z</time>
      </trkpt>
      <trkpt lat="48.99363" lon="2.00615">
        <ele>173.6</ele>
        <time>2021-11-13T10:32:32Z</time>
      </trkpt>
      <trkpt lat="48.99362" lon="2.00618">
        <ele>176</ele>
        <time>2021-11-13T10:32:37Z</time>
      </trkpt>
      <trkpt lat="48.99358" lon="2.00621">
        <ele>181</ele>
        <time>2021-11-13T10:32:43Z</time>
      </trkpt>
      <trkpt lat="48.99353" lon="2.00625">
        <ele>181.7</ele>
        <time>2021-11-13T10:32:48Z</time>
      </trkpt>
      <trkpt lat="48.99353" lon="2.0063">
        <ele>182.5</ele>
        <time>2021-11-13T10:32:53Z</time>
      </trkpt>
      <trkpt lat="48.99353" lon="2.00631">
        <ele>181.9</ele>
        <time>2021-11-13T10:32:58Z</time>
      </trkpt>
      <trkpt lat="48.99353" lon="2.00632">
        <ele>183.2</ele>
        <time>2021-11-13T10:33:03Z</time>
      </trkpt>
      <trkpt lat="48.99352" lon="2.00635">
        <ele>183</ele>
        <time>2021-11-13T10:33:09Z</time>
      </trkpt>
      <trkpt lat="48.99354" lon="2.00642">
        <ele>185.7</ele>
        <time>2021-11-13T10:33:14Z</time>
      </trkpt>
      <trkpt lat="48.9936" lon="2.00647">
        <ele>183.3</ele>
        <time>2021-11-13T10:33:20Z</time>
      </trkpt>
      <trkpt lat="48.99365" lon="2.00642">
        <ele>184</ele>
        <time>2021-11-13T10:33:25Z</time>
      </trkpt>
      <trkpt lat="48.9937" lon="2.00636">
        <ele>185</ele>
        <time>2021-11-13T10:33:30Z</time>
      </trkpt>
      <trkpt lat="48.99373" lon="2.00634">
        <ele>185</ele>
        <time>2021-11-13T10:33:36Z</time>
      </trkpt>
      <trkpt lat="48.99377" lon="2.00635">
        <ele>186.5</ele>
        <time>2021-11-13T10:33:41Z</time>
      </trkpt>
      <trkpt lat="48.99379" lon="2.00638">
        <ele>187.2</ele>
        <time>2021-11-13T10:33:46Z</time>
      </trkpt>
      <trkpt lat="48.99382" lon="2.00639">
        <ele>188.5</ele>
        <time>2021-11-13T10:33:52Z</time>
      </trkpt>
      <trkpt lat="48.99385" lon="2.00639">
        <ele>188.2</ele>
        <time>2021-11-13T10:33:58Z</time>
      </trkpt>
      <trkpt lat="48.99388" lon="2.00641">
        <ele>190.2</ele>
        <time>2021-11-13T10:34:03Z</time>
      </trkpt>
      <trkpt lat="48.99388" lon="2.0064">
        <ele>192</ele>
        <time>2021-11-13T10:34:09Z</time>
      </trkpt>
      <trkpt lat="48.99389" lon="2.0064">
        <ele>191.7</ele>
        <time>2021-11-13T10:34:14Z</time>
      </trkpt>
      <trkpt lat="48.99394" lon="2.00643">
        <ele>190.9</ele>
        <time>2021-11-13T10:34:20Z</time>
      </trkpt>
      <trkpt lat="48.99399" lon="2.00648">
        <ele>191.1</ele>
        <time>2021-11-13T10:34:26Z</time>
      </trkpt>
      <trkpt lat="48.99402" lon="2.00649">
        <ele>196.9</ele>
        <time>2021-11-13T10:34:32Z</time>
      </trkpt>
      <trkpt lat="48.99406" lon="2.00651">
        <ele>196.3</ele>
        <time>2021-11-13T10:34:37Z</time>
      </trkpt>
      <trkpt lat="48.99412" lon="2.00654">
        <ele>195.4</ele>
        <time>2021-11-13T10:34:43Z</time>
      </trkpt>
      <trkpt lat="48.99418" lon="2.00659">
        <ele>194.7</ele>
        <time>2021-11-13T10:34:48Z</time>
      </trkpt>
      <trkpt lat="48.99424" lon="2.00662">
        <ele>195.7</ele>
        <time>2021-11-13T10:34:54Z</time>
      </trkpt>
      <trkpt lat="48.99429" lon="2.00665">
        <ele>195.4</ele>
        <time>2021-11-13T10:34:59Z</time>
      </trkpt>
      <trkpt lat="48.99434" lon="2.00672">
        <ele>196.6</ele>
        <time>2021-11-13T10:35:05Z</time>
      </trkpt>
      <trkpt lat="48.99438" lon="2.00676">
        <ele>199.9</ele>
        <time>2021-11-13T10:35:10Z</time>
      </trkpt>
      <trkpt lat="48.99443" lon="2.00684">
        <ele>203.2</ele>
        <time>2021-11-13T10:35:16Z</time>
      </trkpt>
      <trkpt lat="48.99446" lon="2.0069">
        <ele>200.1</ele>
        <time>2021-11-13T10:35:22Z</time>
      </trkpt>
      <trkpt lat="48.9945" lon="2.00691">
        <ele>201.7</ele>
        <time>2021-11-13T10:35:27Z</time>
      </trkpt>
      <trkpt lat="48.99455" lon="2.00696">
        <ele>204.5</ele>
        <time>2021-11-13T10:35:33Z</time>
      </trkpt>
      <trkpt lat="48.99461" lon="2.00697">
        <ele>200.5</ele>
        <time>2021-11-13T10:35:38Z</time>
      </trkpt>
      <trkpt lat="48.99464" lon="2.00697">
        <ele>205.7</ele>
        <time>2021-11-13T10:35:43Z</time>
      </trkpt>
      <trkpt lat="48.99467" lon="2.00698">
        <ele>205.8</ele>
        <time>2021-11-13T10:35:48Z</time>
      </trkpt>
      <trkpt lat="48.99473" lon="2.00698">
        <ele>202.9</ele>
        <time>2021-11-13T10:35:54Z</time>
      </trkpt>
      <trkpt lat="48.99478" lon="2.007">
        <ele>202.6</ele>
        <time>2021-11-13T10:35:59Z</time>
      </trkpt>
      <trkpt lat="48.99483" lon="2.00703">
        <ele>200.1</ele>
        <time>2021-11-13T10:36:05Z</time>
      </trkpt>
      <trkpt lat="48.99486" lon="2.00707">
        <ele>201.1</ele>
        <time>2021-11-13T10:36:10Z</time>
      </trkpt>
      <trkpt lat="48.99491" lon="2.0071">
        <ele>203.8</ele>
        <time>2021-11-13T10:36:15Z</time>
      </trkpt>
      <trkpt lat="48.99493" lon="2.00712">
        <ele>200</ele>
        <time>2021-11-13T10:36:20Z</time>
      </trkpt>
      <trkpt lat="48.99496" lon="2.00714">
        <ele>202.3</ele>
        <time>2021-11-13T10:36:26Z</time>
      </trkpt>
      <trkpt lat="48.99503" lon="2.00717">
        <ele>207.6</ele>
        <time>2021-11-13T10:36:32Z</time>
      </trkpt>
      <trkpt lat="48.99509" lon="2.0072">
        <ele>209</ele>
        <time>2021-11-13T10:36:38Z</time>
      </trkpt>
      <trkpt lat="48.99513" lon="2.00725">
        <ele>204.9</ele>
        <time>2021-11-13T10:36:44Z</time>
      </trkpt>
      <trkpt lat="48.99518" lon="2.00729">
        <ele>205.6</ele>
        <time>2021-11-13T10:36:49Z</time>
      </trkpt>
      <trkpt lat="48.99523" lon="2.00733">
        <ele>202.4</ele>
        <time>2021-11-13T10:36:54Z</time>
      </trkpt>
      <trkpt lat="48.99527" lon="2.00733">
        <ele>207.9</ele>
        <time>2021-11-13T10:36:59Z</time>
      </trkpt>
      <trkpt lat="48.99528" lon="2.00733">
        <ele>203.3</ele>
        <time>2021-11-13T10:37:05Z</time>
      </trkpt>
      <trkpt lat="48.99533" lon="2.00737">
        <ele>203.5</ele>
        <time>2021-11-13T10:37:11Z</time>
      </trkpt>
      <trkpt lat="48.99537" lon="2.00741">
        <ele>205.5</ele>
        <time>2021-11-13T10:37:16Z</time>
      </trkpt>
      <trkpt lat="48.9954" lon="2.00743">
        <ele>201.5</ele>
        <time>2021-11-13T10:37:21Z</time>
      </trkpt>
      <trkpt lat="48.99547" lon="2.00749">
        <ele>203.4</ele>
        <time>2021-11-13T10:37:27Z</time>
      </trkpt>
      <trkpt lat="48.99552" lon="2.00754">
        <ele>204.1</ele>
        <time>2021-11-13T10:37:33Z</time>
      </trkpt>
      <trkpt lat="48.99559" lon="2.00766">
        <ele>202.7</ele>
        <time>2021-11-13T10:37:39Z</time>
      </trkpt>
      <trkpt lat="48.99566" lon="2.0077">
        <ele>202</ele>
        <time>2021-11-13T10:37:45Z</time>
      </trkpt>
      <trkpt lat="48.99573" lon="2.00776">
        <ele>206.4</ele>
        <time>2021-11-13T10:37:50Z</time>
      </trkpt>
      <trkpt lat="48.99577" lon="2.00783">
        <ele>210.9</ele>
        <time>2021-11-13T10:37:55Z</time>
      </trkpt>
      <trkpt lat="48.9958" lon="2.0079">
        <ele>214.2</ele>
        <time>2021-11-13T10:38:01Z</time>
      </trkpt>
      <trkpt lat="48.99579" lon="2.00792">
        <ele>213.4</ele>
        <time>2021-11-13T10:38:07Z</time>
      </trkpt>
      <trkpt lat="48.99574" lon="2.00794">
        <ele>210.2</ele>
        <time>2021-11-13T10:38:13Z</time>
      </trkpt>
      <trkpt lat="48.99569" lon="2.00796">
        <ele>211.3</ele>
        <time>2021-11-13T10:38:19Z</time>
      </trkpt>
      <trkpt lat="48.99564" lon="2.00793">
        <ele>217.1</ele>
        <time>2021-11-13T10:38:24Z</time>
      </trkpt>
      <trkpt lat="48.99556" lon="2.00794">
        <ele>214.8</ele>
        <time>2021-11-13T10:38:30Z</time>
      </trkpt>
      <trkpt lat="48.9955" lon="2.00792">
        <ele>214.9</ele>
        <time>2021-11-13T10:38:35Z</time>
      </trkpt>
      <trkpt lat="48.99542" lon="2.00788">
        <ele>216.9</ele>
        <time>2021-11-13T10:38:40Z</time>
      </trkpt>
      <trkpt lat="48.99534" lon="2.00777">
        <ele>216.9</ele>
        <time>2021-11-13T10:38:46Z</time>
      </trkpt>
      <trkpt lat="48.99527" lon="2.00772">
        <ele>217.1</ele>
        <time>2021-11-13T10:38:52Z</time>
      </trkpt>
      <trkpt lat="48.99519" lon="2.0077">
        <ele>214.9</ele>
        <time>2021-11-13T10:38:58Z</time>
      </trkpt>
      <trkpt lat="48.99513" lon="2.00764">
        <ele>212.2</ele>
        <time>2021-11-13T10:39:03Z</time>
      </trkpt>
      <trkpt lat="48.99502" lon="2.00761">
        <ele>212.8</ele>
        <time>2021-11-13T10:39:09Z</time>
      </trkpt>
      <trkpt lat="48.99495" lon="2.00759">
        <ele>211.7</ele>
        <time>2021-11-13T10:39:14Z</time>
      </trkpt>
      <trkpt lat="48.99488" lon="2.00761">
        <ele>212.6</ele>
        <time>2021-11-13T10:39:19Z</time>
      </trkpt>
      <trkpt lat="48.99482" lon="2.00762">
        <ele>213.4</ele>
        <time>2021-11-13T10:39:25Z</time>
      </trkpt>
      <trkpt lat="48.99476" lon="2.00763">
        <ele>215.9</ele>
        <time>2021-11-13T10:39:30Z</time>
      </trkpt>
      <trkpt lat="48.99472" lon="2.00766">
        <ele>210.3</ele>
        <time>2021-11-13T10:39:35Z</time>
      </trkpt>
      <trkpt lat="48.99468" lon="2.00773">
        <ele>210.9</ele>
        <time>2021-11-13T10:39:40Z</time>
      </trkpt>
      <trkpt lat="48.99462" lon="2.00778">
        <ele>213.8</ele>
        <time>2021-11-13T10:39:45Z</time>
      </trkpt>
      <trkpt lat="48.99455" lon="2.0078">
        <ele>214</ele>
        <time>2021-11-13T10:39:51Z</time>
      </trkpt>
      <trkpt lat="48.9945" lon="2.00784">
        <ele>214.9</ele>
        <time>2021-11-13T10:39:57Z</time>
      </trkpt>
      <trkpt lat="48.99442" lon="2.00787">
        <ele>216</ele>
        <time>2021-11-13T10:40:03Z</time>
      </trkpt>
      <trkpt lat="48.99435" lon="2.0079">
        <ele>214.8</ele>
        <time>2021-11-13T10:40:08Z</time>
      </trkpt>
      <trkpt lat="48.99431" lon="2.00791">
        <ele>213.6</ele>
        <time>2021-11-13T10:40:14Z</time>
      </trkpt>
      <trkpt lat="48.99425" lon="2.00795">
        <ele>211.7</ele>
        <time>2021-11-13T10:40:20Z</time>
      </trkpt>
      <trkpt lat="48.99419" lon="2.00802">
        <ele>216.5</ele>
        <time>2021-11-13T10:40:26Z</time>
      </trkpt>
      <trkpt lat="48.99411" lon="2.00809">
        <ele>215.5</ele>
        <time>2021-11-13T10:40:32Z</time>
      </trkpt>
      <trkpt lat="48.99403" lon="2.00813">
        <ele>218.9</ele>
        <time>2021-11-13T10:40:37Z</time>
      </trkpt>
      <trkpt lat="48.99398" lon="2.00816">
        <ele>220.6</ele>
        <time>2021-11-13T10:40:42Z</time>
      </trkpt>
      <trkpt lat="48.99391" lon="2.0082">
        <ele>218.5</ele>
        <time>2021-11-13T10:40:48Z</time>
      </trkpt>
      <trkpt lat="48.99384" lon="2.00829">
        <ele>216.6</ele>
        <time>2021-11-13T10:40:53Z</time>
      </trkpt>
      <trkpt lat="48.99378" lon="2.00835">
        <ele>217.7</ele>
        <time>2021-11-13T10:40:59Z</time>
      </trkpt>
      <trkpt lat="48.99376" lon="2.00843">
        <ele>220.7</ele>
        <time>2021-11-13T10:41:05Z</time>
      </trkpt>
      <trkpt lat="48.99371" lon="2.00847">
        <ele>224.8</ele>
        <time>2021-11-13T10:41:10Z</time>
      </trkpt>
      <trkpt lat="48.99366" lon="2.00849">
        <ele>218.4</ele>
        <time>2021-11-13T10:41:15Z</time>
      </trkpt>
      <trkpt lat="48.9936" lon="2.00844">
        <ele>219.5</ele>
        <time>2021-11-13T10:41:21Z</time>
      </trkpt>
      <trkpt lat="48.99352" lon="2.00839">
        <ele>221</ele>
        <time>2021-11-13T10:41:26Z</time>
      </trkpt>
      <trkpt lat="48.99349" lon="2.00834">
        <ele>216.6</ele>
        <time>2021-11-13T10:41:31Z</time>
      </trkpt>
      <trkpt lat="48.99344" lon="2.00837">
        <ele>219.7</ele>
        <time>2021-11-13T10:41:37Z</time>
      </trkpt>
      <trkpt lat="48.99338" lon="2.00843">
        <ele>212.9</ele>
        <time>2021-11-13T10:41:42Z</time>
      </trkpt>
      <trkpt lat="48.99328" lon="2.00851">
        <ele>213.2</ele>
        <time>2021-11-13T10:41:48Z</time>
      </trkpt>
      <trkpt lat="48.99323" lon="2.00848">
        <ele>214.7</ele>
        <time>2021-11-13T10:41:53Z</time>
      </trkpt>
      <trkpt lat="48.99319" lon="2.00854">
        <ele>214.6</ele>
        <time>2021-11-13T10:41:58Z</time>
      </trkpt>
      <trkpt lat="48.99312" lon="2.00863">
        <ele>214</ele>
        <time>2021-11-13T10:42:04Z</time>
      </trkpt>
      <trkpt lat="48.99312" lon="2.00869">
        <ele>216.5</ele>
        <time>2021-11-13T10:42:09Z</time>
      </trkpt>
      <trkpt lat="48.9931" lon="2.00883">
        <ele>216.8</ele>
        <time>2021-11-13T10:42:14Z</time>
      </trkpt>
      <trkpt lat="48.99315" lon="2.00891">
        <ele>215</ele>
        <time>2021-11-13T10:42:20Z</time>
      </trkpt>
      <trkpt lat="48.9932" lon="2.00897">
        <ele>213.5</ele>
        <time>2021-11-13T10:42:25Z</time>
      </trkpt>
      <trkpt lat="48.99322" lon="2.00907">
        <ele>209.8</ele>
        <time>2021-11-13T10:42:31Z</time>
      </trkpt>
      <trkpt lat="48.99326" lon="2.00913">
        <ele>212.2</ele>
        <time>2021-11-13T10:42:36Z</time>
      </trkpt>
      <trkpt lat="48.9933" lon="2.0092">
        <ele>213.8</ele>
        <time>2021-11-13T10:42:42Z</time>
      </trkpt>
      <trkpt lat="48.99334" lon="2.00925">
        <ele>215.3</ele>
        <time>2021-11-13T10:42:47Z</time>
      </trkpt>
      <trkpt lat="48.99332" lon="2.00934">
        <ele>209.1</ele>
        <time>2021-11-13T10:42:53Z</time>
      </trkpt>
      <trkpt lat="48.99332" lon="2.00944">
        <ele>217.4</ele>
        <time>2021-11-13T10:42:59Z</time>
      </trkpt>
      <trkpt lat="48.99334" lon="2.00956">
        <ele>223</ele>
        <time>2021-11-13T10:43:05Z</time>
      </trkpt>
      <trkpt lat="48.99336" lon="2.00966">
        <ele>225.6</ele>
        <time>2021-11-13T10:43:11Z</time>
      </trkpt>
      <trkpt lat="48.99336" lon="2.00976">
        <ele>223.8</ele>
        <time>2021-11-13T10:43:17Z</time>
      </trkpt>
      <trkpt lat="48.99337" lon="2.00985">
        <ele>220.5</ele>
        <time>2021-11-13T10:43:22Z</time>
      </trkpt>
      <trkpt lat="48.99334" lon="2.00993">
        <ele>227.3</ele>
        <time>2021-11-13T10:43:28Z</time>
      </trkpt>
      <trkpt lat="48.99331" lon="2.01">
        <ele>226</ele>
        <time>2021-11-13T10:43:34Z</time>
      </trkpt>
      <trkpt lat="48.99329" lon="2.01011">
        <ele>232.1</ele>
        <time>2021-11-13T10:43:39Z</time>
      </trkpt>
      <trkpt lat="48.99326" lon="2.01024">
        <ele>226.3</ele>
        <time>2021-11-13T10:43:45Z</time>
      </trkpt>
      <trkpt lat="48.99327" lon="2.01038">
        <ele>232.7</ele>
        <time>2021-11-13T10:43:51Z</time>
      </trkpt>
      <trkpt lat="48.99326" lon="2.01044">
        <ele>230</ele>
        <time>2021-11-13T10:43:56Z</time>
      </trkpt>
      <trkpt lat="48.99323" lon="2.0105">
        <ele>226.3</ele>
        <time>2021-11-13T10:44:01Z</time>
      </trkpt>
      <trkpt lat="48.99319" lon="2.01059">
        <ele>227.2</ele>
        <time>2021-11-13T10:44:07Z</time>
      </trkpt>
      <trkpt lat="48.99313" lon="2.01068">
        <ele>232.5</ele>
        <time>2021-11-13T10:44:13Z</time>
      </trkpt>
      <trkpt lat="48.99309" lon="2.01079">
        <ele>221.6</ele>
        <time>2021-11-13T10:44:19Z</time>
      </trkpt>
      <trkpt lat="48.99303" lon="2.01088">
        <ele>218</ele>
        <time>2021-11-13T10:44:24Z</time>
      </trkpt>
      <trkpt lat="48.99297" lon="2.011">
        <ele>221.6</ele>
        <time>2021-11-13T10:44:30Z</time>
      </trkpt>
      <trkpt lat="48.99292" lon="2.01103">
        <ele>219.1</ele>
        <time>2021-11-13T10:44:35Z</time>
      </trkpt>
      <trkpt lat="48.99287" lon="2.0111">
        <ele>219.8</ele>
        <time>2021-11-13T10:44:41Z</time>
      </trkpt>
      <trkpt lat="48.99283" lon="2.01118">
        <ele>217</ele>
        <time>2021-11-13T10:44:47Z</time>
      </trkpt>
      <trkpt lat="48.9928" lon="2.0112">
        <ele>211.6</ele>
        <time>2021-11-13T10:44:52Z</time>
      </trkpt>
      <trkpt lat="48.99277" lon="2.01127">
        <ele>213.3</ele>
        <time>2021-11-13T10:44:58Z</time>
      </trkpt>
      <trkpt lat="48.99271" lon="2.01132">
        <ele>212.1</ele>
        <time>2021-11-13T10:45:04Z</time>
      </trkpt>
      <trkpt lat="48.99268" lon="2.01134">
        <ele>212.3</ele>
        <time>2021-11-13T10:45:10Z</time>
      </trkpt>
      <trkpt lat="48.99261" lon="2.01144">
        <ele>216.9</ele>
        <time>2021-11-13T10:45:16Z</time>
      </trkpt>
      <trkpt lat="48.99255" lon="2.01151">
        <ele>219.3</ele>
        <time>2021-11-13T10:45:21Z</time>
      </trkpt>
      <trkpt lat="48.99248" lon="2.01163">
        <ele>220.1</ele>
        <time>2021-11-13T10:45:27Z</time>
      </trkpt>
      <trkpt lat="48.99243" lon="2.01172">
        <ele>220.9</ele>
        <time>2021-11-13T10:45:32Z</time>
      </trkpt>
      <trkpt lat="48.99236" lon="2.01183">
        <ele>225.2</ele>
        <time>2021-11-13T10:45:38Z</time>
      </trkpt>
      <trkpt lat="48.99233" lon="2.01196">
        <ele>224.5</ele>
        <time>2021-11-13T10:45:44Z</time>
      </trkpt>
      <trkpt lat="48.99229" lon="2.01203">
        <ele>228.4</ele>
        <time>2021-11-13T10:45:50Z</time>
      </trkpt>
      <trkpt lat="48.99225" lon="2.01207">
        <ele>222.3</ele>
        <time>2021-11-13T10:45:56Z</time>
      </trkpt>
      <trkpt lat="48.99222" lon="2.01212">
        <ele>218.1</ele>
        <time>2021-11-13T10:46:01Z</time>
      </trkpt>
      <trkpt lat="48.99219" lon="2.01215">
        <ele>216</ele>
        <time>2021-11-13T10:46:06Z</time>
      </trkpt>
      <trkpt lat="48.9921" lon="2.01226">
        <ele>223.2</ele>
        <time>2021-11-13T10:46:12Z</time>
      </trkpt>
      <trkpt lat="48.99204" lon="2.01236">
        <ele>223.1</ele>
        <time>2021-11-13T10:46:18Z</time>
      </trkpt>
      <trkpt lat="48.99201" lon="2.01237">
        <ele>219.8</ele>
        <time>2021-11-13T10:46:24Z</time>
      </trkpt>
      <trkpt lat="48.99198" lon="2.01244">
        <ele>219.3</ele>
        <time>2021-11-13T10:46:29Z</time>
      </trkpt>
      <trkpt lat="48.9919" lon="2.01258">
        <ele>220</ele>
        <time>2021-11-13T10:46:35Z</time>
      </trkpt>
      <trkpt lat="48.99181" lon="2.0127">
        <ele>220.6</ele>
        <time>2021-11-13T10:46:40Z</time>
      </trkpt>
      <trkpt lat="48.99176" lon="2.01279">
        <ele>220</ele>
        <time>2021-11-13T10:46:45Z</time>
      </trkpt>
      <trkpt lat="48.99173" lon="2.01285">
        <ele>221.6</ele>
        <time>2021-11-13T10:46:51Z</time>
      </trkpt>
      <trkpt lat="48.99171" lon="2.01289">
        <ele>220.7</ele>
        <time>2021-11-13T10:46:56Z</time>
      </trkpt>
      <trkpt lat="48.99166" lon="2.01295">
        <ele>223.9</ele>
        <time>2021-11-13T10:47:01Z</time>
      </trkpt>
      <trkpt lat="48.99162" lon="2.01304">
        <ele>225.3</ele>
        <time>2021-11-13T10:47:07Z</time>
      </trkpt>
      <trkpt lat="48.99157" lon="2.01312">
        <ele>220.2</ele>
        <time>2021-11-13T10:47:12Z</time>
      </trkpt>
      <trkpt lat="48.99151" lon="2.01317">
        <ele>225.7</ele>
        <time>2021-11-13T10:47:17Z</time>
      </trkpt>
      <trkpt lat="48.99142" lon="2.01328">
        <ele>230.5</ele>
        <time>2021-11-13T10:47:23Z</time>
      </trkpt>
      <trkpt lat="48.99142" lon="2.01334">
        <ele>230.6</ele>
        <time>2021-11-13T10:47:28Z</time>
      </trkpt>
      <trkpt lat="48.99143" lon="2.01341">
        <ele>228.7</ele>
        <time>2021-11-13T10:47:34Z</time>
      </trkpt>
      <trkpt lat="48.99141" lon="2.01353">
        <ele>223.1</ele>
        <time>2021-11-13T10:47:40Z</time>
      </trkpt>
      <trkpt lat="48.99141" lon="2.01368">
        <ele>222.9</ele>
        <time>2021-11-13T10:47:46Z</time>
      </trkpt>
      <trkpt lat="48.99143" lon="2.01378">
        <ele>216.9</ele>
        <time>2021-11-13T10:47:51Z</time>
      </trkpt>
      <trkpt lat="48.99137" lon="2.01388">
        <ele>220.3</ele>
        <time>2021-11-13T10:47:56Z</time>
      </trkpt>
      <trkpt lat="48.99131" lon="2.014">
        <ele>221.3</ele>
        <time>2021-11-13T10:48:01Z</time>
      </trkpt>
      <trkpt lat="48.99131" lon="2.01411">
        <ele>226.6</ele>
        <time>2021-11-13T10:48:07Z</time>
      </trkpt>
      <trkpt lat="48.99127" lon="2.01426">
        <ele>222</ele>
        <time>2021-11-13T10:48:13Z</time>
      </trkpt>
      <trkpt lat="48.99126" lon="2.01436">
        <ele>219.7</ele>
        <time>2021-11-13T10:48:19Z</time>
      </trkpt>
      <trkpt lat="48.99122" lon="2.01447">
        <ele>222.1</ele>
        <time>2021-11-13T10:48:24Z</time>
      </trkpt>
      <trkpt lat="48.99122" lon="2.01455">
        <ele>221.3</ele>
        <time>2021-11-13T10:48:30Z</time>
      </trkpt>
      <trkpt lat="48.99121" lon="2.01465">
        <ele>222.3</ele>
        <time>2021-11-13T10:48:36Z</time>
      </trkpt>
      <trkpt lat="48.9912" lon="2.01474">
        <ele>224.5</ele>
        <time>2021-11-13T10:48:41Z</time>
      </trkpt>
      <trkpt lat="48.99119" lon="2.01484">
        <ele>223.4</ele>
        <time>2021-11-13T10:48:47Z</time>
      </trkpt>
      <trkpt lat="48.99118" lon="2.01498">
        <ele>223</ele>
        <time>2021-11-13T10:48:53Z</time>
      </trkpt>
      <trkpt lat="48.99115" lon="2.01509">
        <ele>223.6</ele>
        <time>2021-11-13T10:48:58Z</time>
      </trkpt>
      <trkpt lat="48.99113" lon="2.01515">
        <ele>225.3</ele>
        <time>2021-11-13T10:49:04Z</time>
      </trkpt>
      <trkpt lat="48.99112" lon="2.01525">
        <ele>224.3</ele>
        <time>2021-11-13T10:49:09Z</time>
      </trkpt>
      <trkpt lat="48.99113" lon="2.01537">
        <ele>220.5</ele>
        <time>2021-11-13T10:49:15Z</time>
      </trkpt>
      <trkpt lat="48.99108" lon="2.01551">
        <ele>219</ele>
        <time>2021-11-13T10:49:21Z</time>
      </trkpt>
      <trkpt lat="48.99104" lon="2.01566">
        <ele>214.1</ele>
        <time>2021-11-13T10:49:26Z</time>
      </trkpt>
      <trkpt lat="48.99103" lon="2.01575">
        <ele>213.8</ele>
        <time>2021-11-13T10:49:31Z</time>
      </trkpt>
      <trkpt lat="48.991" lon="2.01587">
        <ele>216.3</ele>
        <time>2021-11-13T10:49:37Z</time>
      </trkpt>
      <trkpt lat="48.99098" lon="2.01602">
        <ele>217.9</ele>
        <time>2021-11-13T10:49:43Z</time>
      </trkpt>
      <trkpt lat="48.99093" lon="2.01613">
        <ele>219.9</ele>
        <time>2021-11-13T10:49:48Z</time>
      </trkpt>
      <trkpt lat="48.99089" lon="2.0162">
        <ele>218</ele>
        <time>2021-11-13T10:49:54Z</time>
      </trkpt>
      <trkpt lat="48.99083" lon="2.01622">
        <ele>212.2</ele>
        <time>2021-11-13T10:50:00Z</time>
      </trkpt>
      <trkpt lat="48.99075" lon="2.01624">
        <ele>216.1</ele>
        <time>2021-11-13T10:50:06Z</time>
      </trkpt>
      <trkpt lat="48.99066" lon="2.01628">
        <ele>215.2</ele>
        <time>2021-11-13T10:50:11Z</time>
      </trkpt>
      <trkpt lat="48.9906" lon="2.01627">
        <ele>209.8</ele>
        <time>2021-11-13T10:50:17Z</time>
      </trkpt>
      <trkpt lat="48.99057" lon="2.01626">
        <ele>205.5</ele>
        <time>2021-11-13T10:50:22Z</time>
      </trkpt>
      <trkpt lat="48.99051" lon="2.01626">
        <ele>208.9</ele>
        <time>2021-11-13T10:50:27Z</time>
      </trkpt>
      <trkpt lat="48.99046" lon="2.01625">
        <ele>210.7</ele>
        <time>2021-11-13T10:50:32Z</time>
      </trkpt>
      <trkpt lat="48.99037" lon="2.01629">
        <ele>215.6</ele>
        <time>2021-11-13T10:50:38Z</time>
      </trkpt>
      <trkpt lat="48.99033" lon="2.01631">
        <ele>214.8</ele>
        <time>2021-11-13T10:50:43Z</time>
      </trkpt>
      <trkpt lat="48.99027" lon="2.01632">
        <ele>209.3</ele>
        <time>2021-11-13T10:50:48Z</time>
      </trkpt>
      <trkpt lat="48.99015" lon="2.01636">
        <ele>215.3</ele>
        <time>2021-11-13T10:50:54Z</time>
      </trkpt>
      <trkpt lat="48.99008" lon="2.0164">
        <ele>209.8</ele>
        <time>2021-11-13T10:50:59Z</time>
      </trkpt>
      <trkpt lat="48.98997" lon="2.01646">
        <ele>210</ele>
        <time>2021-11-13T10:51:05Z</time>
      </trkpt>
      <trkpt lat="48.98989" lon="2.01648">
        <ele>211.4</ele>
        <time>2021-11-13T10:51:11Z</time>
      </trkpt>
      <trkpt lat="48.98982" lon="2.01649">
        <ele>207.8</ele>
        <time>2021-11-13T10:51:16Z</time>
      </trkpt>
      <trkpt lat="48.98975" lon="2.0165">
        <ele>215</ele>
        <time>2021-11-13T10:51:21Z</time>
      </trkpt>
      <trkpt lat="48.98966" lon="2.01652">
        <ele>214.9</ele>
        <time>2021-11-13T10:51:27Z</time>
      </trkpt>
      <trkpt lat="48.98958" lon="2.01654">
        <ele>219.6</ele>
        <time>2021-11-13T10:51:33Z</time>
      </trkpt>
      <trkpt lat="48.98952" lon="2.01658">
        <ele>220.9</ele>
        <time>2021-11-13T10:51:38Z</time>
      </trkpt>
      <trkpt lat="48.98942" lon="2.01664">
        <ele>220.5</ele>
        <time>2021-11-13T10:51:44Z</time>
      </trkpt>
      <trkpt lat="48.98934" lon="2.01668">
        <ele>219.9</ele>
        <time>2021-11-13T10:51:50Z</time>
      </trkpt>
      <trkpt lat="48.98929" lon="2.0167">
        <ele>221.4</ele>
        <time>2021-11-13T10:51:55Z</time>
      </trkpt>
      <trkpt lat="48.98922" lon="2.01672">
        <ele>220.6</ele>
        <time>2021-11-13T10:52:01Z</time>
      </trkpt>
      <trkpt lat="48.98914" lon="2.01671">
        <ele>218.1</ele>
        <time>2021-11-13T10:52:06Z</time>
      </trkpt>
      <trkpt lat="48.98908" lon="2.0167">
        <ele>219.3</ele>
        <time>2021-11-13T10:52:11Z</time>
      </trkpt>
      <trkpt lat="48.98902" lon="2.0167">
        <ele>219.4</ele>
        <time>2021-11-13T10:52:17Z</time>
      </trkpt>
      <trkpt lat="48.98893" lon="2.0167">
        <ele>217.9</ele>
        <time>2021-11-13T10:52:23Z</time>
      </trkpt>
      <trkpt lat="48.98883" lon="2.01672">
        <ele>217.9</ele>
        <time>2021-11-13T10:52:28Z</time>
      </trkpt>
      <trkpt lat="48.98875" lon="2.01674">
        <ele>219.3</ele>
        <time>2021-11-13T10:52:34Z</time>
      </trkpt>
      <trkpt lat="48.98868" lon="2.01677">
        <ele>218.8</ele>
        <time>2021-11-13T10:52:39Z</time>
      </trkpt>
      <trkpt lat="48.98859" lon="2.01681">
        <ele>220.9</ele>
        <time>2021-11-13T10:52:45Z</time>
      </trkpt>
      <trkpt lat="48.98854" lon="2.01682">
        <ele>223.3</ele>
        <time>2021-11-13T10:52:50Z</time>
      </trkpt>
      <trkpt lat="48.98846" lon="2.01689">
        <ele>225.3</ele>
        <time>2021-11-13T10:52:56Z</time>
      </trkpt>
      <trkpt lat="48.9884" lon="2.01699">
        <ele>225.3</ele>
        <time>2021-11-13T10:53:02Z</time>
      </trkpt>
      <trkpt lat="48.98833" lon="2.01702">
        <ele>226.9</ele>
        <time>2021-11-13T10:53:07Z</time>
      </trkpt>
      <trkpt lat="48.98826" lon="2.01708">
        <ele>224.5</ele>
        <time>2021-11-13T10:53:12Z</time>
      </trkpt>
      <trkpt lat="48.98823" lon="2.0171">
        <ele>226.8</ele>
        <time>2021-11-13T10:53:18Z</time>
      </trkpt>
      <trkpt lat="48.98815" lon="2.01705">
        <ele>221.6</ele>
        <time>2021-11-13T10:53:23Z</time>
      </trkpt>
      <trkpt lat="48.98809" lon="2.01705">
        <ele>222.8</ele>
        <time>2021-11-13T10:53:29Z</time>
      </trkpt>
      <trkpt lat="48.9881" lon="2.01703">
        <ele>223.2</ele>
        <time>2021-11-13T10:53:35Z</time>
      </trkpt>
      <trkpt lat="48.98809" lon="2.01703">
        <ele>221.4</ele>
        <time>2021-11-13T10:53:41Z</time>
      </trkpt>
      <trkpt lat="48.98807" lon="2.01697">
        <ele>224</ele>
        <time>2021-11-13T10:53:46Z</time>
      </trkpt>
      <trkpt lat="48.98801" lon="2.01688">
        <ele>220.5</ele>
        <time>2021-11-13T10:53:51Z</time>
      </trkpt>
      <trkpt lat="48.98796" lon="2.0168">
        <ele>222.4</ele>
        <time>2021-11-13T10:53:57Z</time>
      </trkpt>
      <trkpt lat="48.98795" lon="2.01673">
        <ele>220.6</ele>
        <time>2021-11-13T10:54:03Z</time>
      </trkpt>
      <trkpt lat="48.98792" lon="2.01659">
        <ele>216.1</ele>
        <time>2021-11-13T10:54:09Z</time>
      </trkpt>
      <trkpt lat="48.9879" lon="2.01645">
        <ele>216.7</ele>
        <time>2021-11-13T10:54:15Z</time>
      </trkpt>
      <trkpt lat="48.98785" lon="2.01642">
        <ele>214.5</ele>
        <time>2021-11-13T10:54:20Z</time>
      </trkpt>
      <trkpt lat="48.98776" lon="2.01632">
        <ele>211.4</ele>
        <time>2021-11-13T10:54:26Z</time>
      </trkpt>
      <trkpt lat="48.98772" lon="2.0162">
        <ele>210.6</ele>
        <time>2021-11-13T10:54:32Z</time>
      </trkpt>
      <trkpt lat="48.98776" lon="2.01612">
        <ele>208.2</ele>
        <time>2021-11-13T10:54:38Z</time>
      </trkpt>
      <trkpt lat="48.98777" lon="2.01601">
        <ele>210.3</ele>
        <time>2021-11-13T10:54:44Z</time>
      </trkpt>
      <trkpt lat="48.98778" lon="2.01587">
        <ele>212.4</ele>
        <time>2021-11-13T10:54:49Z</time>
      </trkpt>
      <trkpt lat="48.98777" lon="2.01573">
        <ele>213.3</ele>
        <time>2021-11-13T10:54:54Z</time>
      </trkpt>
      <trkpt lat="48.98777" lon="2.01563">
        <ele>209.1</ele>
        <time>2021-11-13T10:55:00Z</time>
      </trkpt>
      <trkpt lat="48.98785" lon="2.01555">
        <ele>212</ele>
        <time>2021-11-13T10:55:06Z</time>
      </trkpt>
      <trkpt lat="48.9879" lon="2.01545">
        <ele>211</ele>
        <time>2021-11-13T10:55:11Z</time>
      </trkpt>
      <trkpt lat="48.98792" lon="2.01532">
        <ele>203.8</ele>
        <time>2021-11-13T10:55:17Z</time>
      </trkpt>
      <trkpt lat="48.98796" lon="2.01523">
        <ele>204.8</ele>
        <time>2021-11-13T10:55:22Z</time>
      </trkpt>
      <trkpt lat="48.98799" lon="2.01518">
        <ele>204.4</ele>
        <time>2021-11-13T10:55:27Z</time>
      </trkpt>
      <trkpt lat="48.98799" lon="2.01509">
        <ele>204.8</ele>
        <time>2021-11-13T10:55:33Z</time>
      </trkpt>
      <trkpt lat="48.98803" lon="2.01497">
        <ele>205.6</ele>
        <time>2021-11-13T10:55:39Z</time>
      </trkpt>
      <trkpt lat="48.98807" lon="2.01491">
        <ele>207.7</ele>
        <time>2021-11-13T10:55:45Z</time>
      </trkpt>
      <trkpt lat="48.98814" lon="2.01483">
        <ele>209.2</ele>
        <time>2021-11-13T10:55:51Z</time>
      </trkpt>
      <trkpt lat="48.98815" lon="2.01474">
        <ele>206.9</ele>
        <time>2021-11-13T10:55:57Z</time>
      </trkpt>
      <trkpt lat="48.98816" lon="2.0147">
        <ele>210.9</ele>
        <time>2021-11-13T10:56:02Z</time>
      </trkpt>
      <trkpt lat="48.98817" lon="2.01459">
        <ele>210</ele>
        <time>2021-11-13T10:56:08Z</time>
      </trkpt>
      <trkpt lat="48.98822" lon="2.0145">
        <ele>205.8</ele>
        <time>2021-11-13T10:56:13Z</time>
      </trkpt>
      <trkpt lat="48.98828" lon="2.01443">
        <ele>206.9</ele>
        <time>2021-11-13T10:56:19Z</time>
      </trkpt>
      <trkpt lat="48.98832" lon="2.01436">
        <ele>212.9</ele>
        <time>2021-11-13T10:56:25Z</time>
      </trkpt>
      <trkpt lat="48.98837" lon="2.0143">
        <ele>211.2</ele>
        <time>2021-11-13T10:56:30Z</time>
      </trkpt>
      <trkpt lat="48.9884" lon="2.01424">
        <ele>210.3</ele>
        <time>2021-11-13T10:56:36Z</time>
      </trkpt>
      <trkpt lat="48.98845" lon="2.01419">
        <ele>209.4</ele>
        <time>2021-11-13T10:56:41Z</time>
      </trkpt>
      <trkpt lat="48.98849" lon="2.01407">
        <ele>212.6</ele>
        <time>2021-11-13T10:56:47Z</time>
      </trkpt>
      <trkpt lat="48.98857" lon="2.01398">
        <ele>211</ele>
        <time>2021-11-13T10:56:53Z</time>
      </trkpt>
      <trkpt lat="48.98863" lon="2.01392">
        <ele>207.4</ele>
        <time>2021-11-13T10:56:58Z</time>
      </trkpt>
      <trkpt lat="48.98869" lon="2.01387">
        <ele>211.5</ele>
        <time>2021-11-13T10:57:03Z</time>
      </trkpt>
      <trkpt lat="48.98873" lon="2.0138">
        <ele>209.8</ele>
        <time>2021-11-13T10:57:08Z</time>
      </trkpt>
      <trkpt lat="48.98877" lon="2.01372">
        <ele>202.6</ele>
        <time>2021-11-13T10:57:14Z</time>
      </trkpt>
      <trkpt lat="48.98883" lon="2.01363">
        <ele>200.4</ele>
        <time>2021-11-13T10:57:20Z</time>
      </trkpt>
      <trkpt lat="48.98887" lon="2.01364">
        <ele>203.9</ele>
        <time>2021-11-13T10:57:26Z</time>
      </trkpt>
      <trkpt lat="48.9889" lon="2.01366">
        <ele>206.3</ele>
        <time>2021-11-13T10:57:31Z</time>
      </trkpt>
      <trkpt lat="48.98891" lon="2.01366">
        <ele>207.6</ele>
        <time>2021-11-13T10:57:36Z</time>
      </trkpt>
      <trkpt lat="48.98894" lon="2.0136">
        <ele>204.3</ele>
        <time>2021-11-13T10:57:42Z</time>
      </trkpt>
      <trkpt lat="48.98901" lon="2.01347">
        <ele>206.5</ele>
        <time>2021-11-13T10:57:47Z</time>
      </trkpt>
      <trkpt lat="48.98903" lon="2.01335">
        <ele>205.7</ele>
        <time>2021-11-13T10:57:53Z</time>
      </trkpt>
      <trkpt lat="48.98907" lon="2.01328">
        <ele>210.2</ele>
        <time>2021-11-13T10:57:59Z</time>
      </trkpt>
      <trkpt lat="48.98908" lon="2.01323">
        <ele>208.4</ele>
        <time>2021-11-13T10:58:04Z</time>
      </trkpt>
      <trkpt lat="48.98914" lon="2.01316">
        <ele>207.5</ele>
        <time>2021-11-13T10:58:09Z</time>
      </trkpt>
      <trkpt lat="48.98921" lon="2.01312">
        <ele>207.3</ele>
        <time>2021-11-13T10:58:15Z</time>
      </trkpt>
      <trkpt lat="48.98926" lon="2.01313">
        <ele>207.4</ele>
        <time>2021-11-13T10:58:20Z</time>
      </trkpt>
      <trkpt lat="48.98932" lon="2.01312">
        <ele>210</ele>
        <time>2021-11-13T10:58:25Z</time>
      </trkpt>
      <trkpt lat="48.98937" lon="2.01311">
        <ele>208.8</ele>
        <time>2021-11-13T10:58:31Z</time>
      </trkpt>
      <trkpt lat="48.98942" lon="2.01301">
        <ele>200.3</ele>
        <time>2021-11-13T10:58:37Z</time>
      </trkpt>
      <trkpt lat="48.98944" lon="2.01293">
        <ele>196.8</ele>
        <time>2021-11-13T10:58:42Z</time>
      </trkpt>
      <trkpt lat="48.9895" lon="2.0129">
        <ele>197.8</ele>
        <time>2021-11-13T10:58:47Z</time>
      </trkpt>
      <trkpt lat="48.98956" lon="2.01286">
        <ele>202.5</ele>
        <time>2021-11-13T10:58:52Z</time>
      </trkpt>
      <trkpt lat="48.98961" lon="2.01284">
        <ele>204</ele>
        <time>2021-11-13T10:58:57Z</time>
      </trkpt>
      <trkpt lat="48.98966" lon="2.01281">
        <ele>204.4</ele>
        <time>2021-11-13T10:59:03Z</time>
      </trkpt>
      <trkpt lat="48.98972" lon="2.01277">
        <ele>204.6</ele>
        <time>2021-11-13T10:59:09Z</time>
      </trkpt>
      <trkpt lat="48.98974" lon="2.01276">
        <ele>205</ele>
        <time>2021-11-13T10:59:14Z</time>
      </trkpt>
      <trkpt lat="48.9898" lon="2.0128">
        <ele>197.6</ele>
        <time>2021-11-13T10:59:19Z</time>
      </trkpt>
      <trkpt lat="48.98988" lon="2.01283">
        <ele>201.7</ele>
        <time>2021-11-13T10:59:25Z</time>
      </trkpt>
      <trkpt lat="48.98993" lon="2.01287">
        <ele>201.3</ele>
        <time>2021-11-13T10:59:30Z</time>
      </trkpt>
      <trkpt lat="48.98998" lon="2.0129">
        <ele>200.9</ele>
        <time>2021-11-13T10:59:36Z</time>
      </trkpt>
      <trkpt lat="48.99003" lon="2.0129">
        <ele>203.7</ele>
        <time>2021-11-13T10:59:42Z</time>
      </trkpt>
      <trkpt lat="48.99008" lon="2.01293">
        <ele>201.3</ele>
        <time>2021-11-13T10:59:47Z</time>
      </trkpt>
      <trkpt lat="48.99012" lon="2.01297">
        <ele>203.9</ele>
        <time>2021-11-13T10:59:52Z</time>
      </trkpt>
      <trkpt lat="48.99014" lon="2.01301">
        <ele>208.6</ele>
        <time>2021-11-13T10:59:58Z</time>
      </trkpt>
      <trkpt lat="48.99017" lon="2.01309">
        <ele>205.9</ele>
        <time>2021-11-13T11:00:03Z</time>
      </trkpt>
      <trkpt lat="48.99023" lon="2.01317">
        <ele>206</ele>
        <time>2021-11-13T11:00:09Z</time>
      </trkpt>
      <trkpt lat="48.99029" lon="2.01313">
        <ele>210.1</ele>
        <time>2021-11-13T11:00:15Z</time>
      </trkpt>
      <trkpt lat="48.99035" lon="2.01312">
        <ele>213.3</ele>
        <time>2021-11-13T11:00:20Z</time>
      </trkpt>
      <trkpt lat="48.9904" lon="2.01307">
        <ele>217.9</ele>
        <time>2021-11-13T11:00:25Z</time>
      </trkpt>
      <trkpt lat="48.99046" lon="2.01303">
        <ele>219</ele>
        <time>2021-11-13T11:00:30Z</time>
      </trkpt>
      <trkpt lat="48.99053" lon="2.01297">
        <ele>218.6</ele>
        <time>2021-11-13T11:00:36Z</time>
      </trkpt>
      <trkpt lat="48.99057" lon="2.01294">
        <ele>223.7</ele>
        <time>2021-11-13T11:00:42Z</time>
      </trkpt>
      <trkpt lat="48.99059" lon="2.01293">
        <ele>222.3</ele>
        <time>2021-11-13T11:00:47Z</time>
      </trkpt>
      <trkpt lat="48.99064" lon="2.0129">
        <ele>222.1</ele>
        <time>2021-11-13T11:00:52Z</time>
      </trkpt>
      <trkpt lat="48.99068" lon="2.01288">
        <ele>224</ele>
        <time>2021-11-13T11:00:57Z</time>
      </trkpt>
      <trkpt lat="48.99074" lon="2.01284">
        <ele>220.4</ele>
        <time>2021-11-13T11:01:03Z</time>
      </trkpt>
      <trkpt lat="48.99078" lon="2.01283">
        <ele>221.3</ele>
        <time>2021-11-13T11:01:09Z</time>
      </trkpt>
      <trkpt lat="48.99086" lon="2.01272">
        <ele>220.9</ele>
        <time>2021-11-13T11:01:15Z</time>
      </trkpt>
      <trkpt lat="48.99088" lon="2.01266">
        <ele>219.4</ele>
        <time>2021-11-13T11:01:20Z</time>
      </trkpt>
      <trkpt lat="48.99092" lon="2.01263">
        <ele>217.5</ele>
        <time>2021-11-13T11:01:25Z</time>
      </trkpt>
      <trkpt lat="48.99097" lon="2.01258">
        <ele>219.4</ele>
        <time>2021-11-13T11:01:31Z</time>
      </trkpt>
      <trkpt lat="48.99103" lon="2.01256">
        <ele>221.6</ele>
        <time>2021-11-13T11:01:37Z</time>
      </trkpt>
      <trkpt lat="48.99108" lon="2.0126">
        <ele>225.1</ele>
        <time>2021-11-13T11:01:42Z</time>
      </trkpt>
      <trkpt lat="48.99116" lon="2.01251">
        <ele>220.8</ele>
        <time>2021-11-13T11:01:48Z</time>
      </trkpt>
      <trkpt lat="48.99116" lon="2.01244">
        <ele>220.6</ele>
        <time>2021-11-13T11:01:54Z</time>
      </trkpt>
      <trkpt lat="48.99114" lon="2.01237">
        <ele>214.2</ele>
        <time>2021-11-13T11:01:59Z</time>
      </trkpt>
      <trkpt lat="48.99113" lon="2.01227">
        <ele>214.5</ele>
        <time>2021-11-13T11:02:04Z</time>
      </trkpt>
      <trkpt lat="48.99111" lon="2.01219">
        <ele>216.8</ele>
        <time>2021-11-13T11:02:10Z</time>
      </trkpt>
      <trkpt lat="48.99107" lon="2.01213">
        <ele>215.6</ele>
        <time>2021-11-13T11:02:16Z</time>
      </trkpt>
      <trkpt lat="48.99103" lon="2.01203">
        <ele>217.6</ele>
        <time>2021-11-13T11:02:22Z</time>
      </trkpt>
      <trkpt lat="48.99102" lon="2.01189">
        <ele>213</ele>
        <time>2021-11-13T11:02:28Z</time>
      </trkpt>
      <trkpt lat="48.99103" lon="2.01179">
        <ele>207.4</ele>
        <time>2021-11-13T11:02:33Z</time>
      </trkpt>
      <trkpt lat="48.99102" lon="2.01168">
        <ele>205.6</ele>
        <time>2021-11-13T11:02:39Z</time>
      </trkpt>
      <trkpt lat="48.99104" lon="2.01155">
        <ele>203.8</ele>
        <time>2021-11-13T11:02:45Z</time>
      </trkpt>
      <trkpt lat="48.99101" lon="2.01145">
        <ele>201.9</ele>
        <time>2021-11-13T11:02:51Z</time>
      </trkpt>
      <trkpt lat="48.99099" lon="2.01137">
        <ele>201.9</ele>
        <time>2021-11-13T11:02:57Z</time>
      </trkpt>
      <trkpt lat="48.99097" lon="2.01131">
        <ele>204</ele>
        <time>2021-11-13T11:03:02Z</time>
      </trkpt>
      <trkpt lat="48.99096" lon="2.01126">
        <ele>205.7</ele>
        <time>2021-11-13T11:03:07Z</time>
      </trkpt>
      <trkpt lat="48.99096" lon="2.01119">
        <ele>202.9</ele>
        <time>2021-11-13T11:03:12Z</time>
      </trkpt>
      <trkpt lat="48.99098" lon="2.01113">
        <ele>199.7</ele>
        <time>2021-11-13T11:03:18Z</time>
      </trkpt>
      <trkpt lat="48.99097" lon="2.01105">
        <ele>193.6</ele>
        <time>2021-11-13T11:03:24Z</time>
      </trkpt>
      <trkpt lat="48.99093" lon="2.01093">
        <ele>197.2</ele>
        <time>2021-11-13T11:03:30Z</time>
      </trkpt>
      <trkpt lat="48.99089" lon="2.01084">
        <ele>197.8</ele>
        <time>2021-11-13T11:03:35Z</time>
      </trkpt>
      <trkpt lat="48.99087" lon="2.01077">
        <ele>198.4</ele>
        <time>2021-11-13T11:03:40Z</time>
      </trkpt>
      <trkpt lat="48.99084" lon="2.01065">
        <ele>195.3</ele>
        <time>2021-11-13T11:03:46Z</time>
      </trkpt>
      <trkpt lat="48.9908" lon="2.01058">
        <ele>194</ele>
        <time>2021-11-13T11:03:52Z</time>
      </trkpt>
      <trkpt lat="48.99076" lon="2.01049">
        <ele>196.8</ele>
        <time>2021-11-13T11:03:58Z</time>
      </trkpt>
      <trkpt lat="48.9907" lon="2.01037">
        <ele>189.9</ele>
        <time>2021-11-13T11:04:04Z</time>
      </trkpt>
      <trkpt lat="48.99066" lon="2.01027">
        <ele>193.1</ele>
        <time>2021-11-13T11:04:09Z</time>
      </trkpt>
      <trkpt lat="48.99061" lon="2.0102">
        <ele>192.7</ele>
        <time>2021-11-13T11:04:15Z</time>
      </trkpt>
      <trkpt lat="48.99056" lon="2.01018">
        <ele>186.9</ele>
        <time>2021-11-13T11:04:21Z</time>
      </trkpt>
      <trkpt lat="48.9905" lon="2.01008">
        <ele>183.7</ele>
        <time>2021-11-13T11:04:27Z</time>
      </trkpt>
      <trkpt lat="48.99043" lon="2.01001">
        <ele>178.6</ele>
        <time>2021-11-13T11:04:33Z</time>
      </trkpt>
      <trkpt lat="48.9904" lon="2.00996">
        <ele>177.9</ele>
        <time>2021-11-13T11:04:38Z</time>
      </trkpt>
      <trkpt lat="48.99039" lon="2.00987">
        <ele>169.5</ele>
        <time>2021-11-13T11:04:44Z</time>
      </trkpt>
      <trkpt lat="48.99035" lon="2.00981">
        <ele>169.4</ele>
        <time>2021-11-13T11:04:50Z</time>
      </trkpt>
      <trkpt lat="48.99033" lon="2.0098">
        <ele>171</ele>
        <time>2021-11-13T11:04:55Z</time>
      </trkpt>
      <trkpt lat="48.99031" lon="2.00978">
        <ele>169.5</ele>
        <time>2021-11-13T11:05:01Z</time>
      </trkpt>
      <trkpt lat="48.99026" lon="2.00972">
        <ele>168.9</ele>
        <time>2021-11-13T11:05:07Z</time>
      </trkpt>
      <trkpt lat="48.99022" lon="2.00968">
        <ele>169.4</ele>
        <time>2021-11-13T11:05:12Z</time>
      </trkpt>
      <trkpt lat="48.99016" lon="2.0096">
        <ele>168.8</ele>
        <time>2021-11-13T11:05:18Z</time>
      </trkpt>
      <trkpt lat="48.99011" lon="2.00955">
        <ele>167.3</ele>
        <time>2021-11-13T11:05:23Z</time>
      </trkpt>
      <trkpt lat="48.99006" lon="2.00946">
        <ele>166.5</ele>
        <time>2021-11-13T11:05:29Z</time>
      </trkpt>
      <trkpt lat="48.98999" lon="2.00937">
        <ele>169.4</ele>
        <time>2021-11-13T11:05:35Z</time>
      </trkpt>
      <trkpt lat="48.98993" lon="2.00932">
        <ele>171.5</ele>
        <time>2021-11-13T11:05:41Z</time>
      </trkpt>
      <trkpt lat="48.9899" lon="2.00939">
        <ele>168.2</ele>
        <time>2021-11-13T11:05:46Z</time>
      </trkpt>
      <trkpt lat="48.98981" lon="2.00944">
        <ele>167.3</ele>
        <time>2021-11-13T11:05:51Z</time>
      </trkpt>
      <trkpt lat="48.98976" lon="2.00951">
        <ele>168.1</ele>
        <time>2021-11-13T11:05:56Z</time>
      </trkpt>
      <trkpt lat="48.98976" lon="2.00958">
        <ele>164.7</ele>
        <time>2021-11-13T11:06:01Z</time>
      </trkpt>
      <trkpt lat="48.98972" lon="2.00968">
        <ele>165.8</ele>
        <time>2021-11-13T11:06:07Z</time>
      </trkpt>
      <trkpt lat="48.98966" lon="2.00975">
        <ele>168.6</ele>
        <time>2021-11-13T11:06:13Z</time>
      </trkpt>
      <trkpt lat="48.98964" lon="2.00976">
        <ele>167.4</ele>
        <time>2021-11-13T11:06:18Z</time>
      </trkpt>
      <trkpt lat="48.98964" lon="2.00976">
        <ele>171.5</ele>
        <time>2021-11-13T11:06:23Z</time>
      </trkpt>
      <trkpt lat="48.98963" lon="2.00976">
        <ele>170</ele>
        <time>2021-11-13T11:06:29Z</time>
      </trkpt>
      <trkpt lat="48.98963" lon="2.00977">
        <ele>169.9</ele>
        <time>2021-11-13T11:06:34Z</time>
      </trkpt>
      <trkpt lat="48.98963" lon="2.00976">
        <ele>171.4</ele>
        <time>2021-11-13T11:06:39Z</time>
      </trkpt>
      <trkpt lat="48.98963" lon="2.00976">
        <ele>170.1</ele>
        <time>2021-11-13T11:06:45Z</time>
      </trkpt>
      <trkpt lat="48.98963" lon="2.00976">
        <ele>170.4</ele>
        <time>2021-11-13T11:06:50Z</time>
      </trkpt>
      <trkpt lat="48.98964" lon="2.00975">
        <ele>170.9</ele>
        <time>2021-11-13T11:06:56Z</time>
      </trkpt>
      <trkpt lat="48.98964" lon="2.00975">
        <ele>169.5</ele>
        <time>2021-11-13T11:07:02Z</time>
      </trkpt>
      <trkpt lat="48.98957" lon="2.00971">
        <ele>174.5</ele>
        <time>2021-11-13T11:07:08Z</time>
      </trkpt>
      <trkpt lat="48.98954" lon="2.00969">
        <ele>181.3</ele>
        <time>2021-11-13T11:07:13Z</time>
      </trkpt>
      <trkpt lat="48.98954" lon="2.00974">
        <ele>174.2</ele>
        <time>2021-11-13T11:07:18Z</time>
      </trkpt>
      <trkpt lat="48.98955" lon="2.00979">
        <ele>170.5</ele>
        <time>2021-11-13T11:07:23Z</time>
      </trkpt>
      <trkpt lat="48.98958" lon="2.00979">
        <ele>169.3</ele>
        <time>2021-11-13T11:07:29Z</time>
      </trkpt>
      <trkpt lat="48.98964" lon="2.00982">
        <ele>179.3</ele>
        <time>2021-11-13T11:07:34Z</time>
      </trkpt>
      <trkpt lat="48.98965" lon="2.00987">
        <ele>173.2</ele>
        <time>2021-11-13T11:07:40Z</time>
      </trkpt>
      <trkpt lat="48.98958" lon="2.00992">
        <ele>168.8</ele>
        <time>2021-11-13T11:07:46Z</time>
      </trkpt>
      <trkpt lat="48.98952" lon="2.00991">
        <ele>168.6</ele>
        <time>2021-11-13T11:07:52Z</time>
      </trkpt>
      <trkpt lat="48.9895" lon="2.0099">
        <ele>169.8</ele>
        <time>2021-11-13T11:07:57Z</time>
      </trkpt>
      <trkpt lat="48.98945" lon="2.00988">
        <ele>169.1</ele>
        <time>2021-11-13T11:08:02Z</time>
      </trkpt>
      <trkpt lat="48.98942" lon="2.00984">
        <ele>172.8</ele>
        <time>2021-11-13T11:08:08Z</time>
      </trkpt>
      <trkpt lat="48.9894" lon="2.00983">
        <ele>174.2</ele>
        <time>2021-11-13T11:08:14Z</time>
      </trkpt>
      <trkpt lat="48.98939" lon="2.00982">
        <ele>172.7</ele>
        <time>2021-11-13T11:08:20Z</time>
      </trkpt>
      <trkpt lat="48.98938" lon="2.0098">
        <ele>173.3</ele>
        <time>2021-11-13T11:08:26Z</time>
      </trkpt>
      <trkpt lat="48.98937" lon="2.00979">
        <ele>172.9</ele>
        <time>2021-11-13T11:08:31Z</time>
      </trkpt>
      <trkpt lat="48.98936" lon="2.00978">
        <ele>176</ele>
        <time>2021-11-13T11:08:36Z</time>
      </trkpt>
      <trkpt lat="48.98936" lon="2.00978">
        <ele>176</ele>
        <time>2021-11-13T11:08:42Z</time>
      </trkpt>
      <trkpt lat="48.98936" lon="2.00978">
        <ele>176.6</ele>
        <time>2021-11-13T11:08:47Z</time>
      </trkpt>
      <trkpt lat="48.98936" lon="2.00978">
        <ele>177.2</ele>
        <time>2021-11-13T11:08:53Z</time>
      </trkpt>
      <trkpt lat="48.98936" lon="2.00978">
        <ele>175.5</ele>
        <time>2021-11-13T11:08:58Z</time>
      </trkpt>
      <trkpt lat="48.98936" lon="2.00978">
        <ele>177.4</ele>
        <time>2021-11-13T11:09:03Z</time>
      </trkpt>
      <trkpt lat="48.98936" lon="2.00978">
        <ele>175.7</ele>
        <time>2021-11-13T11:09:09Z</time>
      </trkpt>
      <trkpt lat="48.98936" lon="2.0098">
        <ele>174.1</ele>
        <time>2021-11-13T11:09:14Z</time>
      </trkpt>
      <trkpt lat="48.98936" lon="2.00981">
        <ele>171.8</ele>
        <time>2021-11-13T11:09:19Z</time>
      </trkpt>
      <trkpt lat="48.98936" lon="2.00981">
        <ele>174.6</ele>
        <time>2021-11-13T11:09:25Z</time>
      </trkpt>
      <trkpt lat="48.98936" lon="2.00981">
        <ele>174.7</ele>
        <time>2021-11-13T11:09:30Z</time>
      </trkpt>
      <trkpt lat="48.98938" lon="2.00981">
        <ele>169</ele>
        <time>2021-11-13T11:09:35Z</time>
      </trkpt>
      <trkpt lat="48.98939" lon="2.00984">
        <ele>175.6</ele>
        <time>2021-11-13T11:09:40Z</time>
      </trkpt>
      <trkpt lat="48.98939" lon="2.00988">
        <ele>176.6</ele>
        <time>2021-11-13T11:09:46Z</time>
      </trkpt>
      <trkpt lat="48.98937" lon="2.01">
        <ele>173.8</ele>
        <time>2021-11-13T11:09:51Z</time>
      </trkpt>
      <trkpt lat="48.98933" lon="2.01009">
        <ele>171</ele>
        <time>2021-11-13T11:09:57Z</time>
      </trkpt>
      <trkpt lat="48.98929" lon="2.01013">
        <ele>170.3</ele>
        <time>2021-11-13T11:10:02Z</time>
      </trkpt>
      <trkpt lat="48.98928" lon="2.01018">
        <ele>169.7</ele>
        <time>2021-11-13T11:10:08Z</time>
      </trkpt>
      <trkpt lat="48.98928" lon="2.01018">
        <ele>170.4</ele>
        <time>2021-11-13T11:10:13Z</time>
      </trkpt>
      <trkpt lat="48.98926" lon="2.01019">
        <ele>171.6</ele>
        <time>2021-11-13T11:10:19Z</time>
      </trkpt>
      <trkpt lat="48.98925" lon="2.0102">
        <ele>168.7</ele>
        <time>2021-11-13T11:10:24Z</time>
      </trkpt>
      <trkpt lat="48.98918" lon="2.01024">
        <ele>176.4</ele>
        <time>2021-11-13T11:10:30Z</time>
      </trkpt>
      <trkpt lat="48.98908" lon="2.01035">
        <ele>180.1</ele>
        <time>2021-11-13T11:10:36Z</time>
      </trkpt>
      <trkpt lat="48.98899" lon="2.01046">
        <ele>173</ele>
        <time>2021-11-13T11:10:41Z</time>
      </trkpt>
      <trkpt lat="48.98892" lon="2.01057">
        <ele>170</ele>
        <time>2021-11-13T11:10:47Z</time>
      </trkpt>
      <trkpt lat="48.98885" lon="2.01067">
        <ele>170.7</ele>
        <time>2021-11-13T11:10:53Z</time>
      </trkpt>
      <trkpt lat="48.98879" lon="2.01076">
        <ele>168.8</ele>
        <time>2021-11-13T11:10:59Z</time>
      </trkpt>
      <trkpt lat="48.98875" lon="2.0108">
        <ele>169.8</ele>
        <time>2021-11-13T11:11:05Z</time>
      </trkpt>
      <trkpt lat="48.98875" lon="2.01081">
        <ele>170.2</ele>
        <time>2021-11-13T11:11:10Z</time>
      </trkpt>
      <trkpt lat="48.98871" lon="2.01087">
        <ele>167.7</ele>
        <time>2021-11-13T11:11:16Z</time>
      </trkpt>
      <trkpt lat="48.98868" lon="2.01096">
        <ele>166.2</ele>
        <time>2021-11-13T11:11:22Z</time>
      </trkpt>
      <trkpt lat="48.98863" lon="2.01103">
        <ele>164.9</ele>
        <time>2021-11-13T11:11:27Z</time>
      </trkpt>
      <trkpt lat="48.98856" lon="2.01108">
        <ele>163.2</ele>
        <time>2021-11-13T11:11:33Z</time>
      </trkpt>
      <trkpt lat="48.98853" lon="2.01113">
        <ele>163.6</ele>
        <time>2021-11-13T11:11:38Z</time>
      </trkpt>
      <trkpt lat="48.98848" lon="2.0112">
        <ele>162</ele>
        <time>2021-11-13T11:11:44Z</time>
      </trkpt>
      <trkpt lat="48.98846" lon="2.01127">
        <ele>164.7</ele>
        <time>2021-11-13T11:11:49Z</time>
      </trkpt>
      <trkpt lat="48.98843" lon="2.01132">
        <ele>163.4</ele>
        <time>2021-11-13T11:11:54Z</time>
      </trkpt>
      <trkpt lat="48.98838" lon="2.01136">
        <ele>159.6</ele>
        <time>2021-11-13T11:11:59Z</time>
      </trkpt>
      <trkpt lat="48.98832" lon="2.01135">
        <ele>161.4</ele>
        <time>2021-11-13T11:12:05Z</time>
      </trkpt>
      <trkpt lat="48.98826" lon="2.01138">
        <ele>163.3</ele>
        <time>2021-11-13T11:12:10Z</time>
      </trkpt>
      <trkpt lat="48.9882" lon="2.01141">
        <ele>166</ele>
        <time>2021-11-13T11:12:16Z</time>
      </trkpt>
      <trkpt lat="48.98811" lon="2.01143">
        <ele>170.7</ele>
        <time>2021-11-13T11:12:22Z</time>
      </trkpt>
      <trkpt lat="48.9881" lon="2.01143">
        <ele>172.5</ele>
        <time>2021-11-13T11:12:27Z</time>
      </trkpt>
      <trkpt lat="48.98807" lon="2.01139">
        <ele>175.9</ele>
        <time>2021-11-13T11:12:33Z</time>
      </trkpt>
      <trkpt lat="48.98798" lon="2.01135">
        <ele>169.2</ele>
        <time>2021-11-13T11:12:39Z</time>
      </trkpt>
      <trkpt lat="48.9879" lon="2.01132">
        <ele>168.7</ele>
        <time>2021-11-13T11:12:44Z</time>
      </trkpt>
      <trkpt lat="48.98783" lon="2.01129">
        <ele>167</ele>
        <time>2021-11-13T11:12:50Z</time>
      </trkpt>
      <trkpt lat="48.98777" lon="2.01124">
        <ele>167.9</ele>
        <time>2021-11-13T11:12:56Z</time>
      </trkpt>
      <trkpt lat="48.98773" lon="2.01117">
        <ele>163.8</ele>
        <time>2021-11-13T11:13:02Z</time>
      </trkpt>
      <trkpt lat="48.98767" lon="2.01111">
        <ele>163.3</ele>
        <time>2021-11-13T11:13:07Z</time>
      </trkpt>
      <trkpt lat="48.98762" lon="2.01113">
        <ele>159.1</ele>
        <time>2021-11-13T11:13:13Z</time>
      </trkpt>
      <trkpt lat="48.98756" lon="2.01112">
        <ele>163.4</ele>
        <time>2021-11-13T11:13:19Z</time>
      </trkpt>
      <trkpt lat="48.98754" lon="2.01104">
        <ele>163.8</ele>
        <time>2021-11-13T11:13:25Z</time>
      </trkpt>
      <trkpt lat="48.98752" lon="2.01102">
        <ele>164.1</ele>
        <time>2021-11-13T11:13:30Z</time>
      </trkpt>
      <trkpt lat="48.98749" lon="2.01101">
        <ele>159.9</ele>
        <time>2021-11-13T11:13:36Z</time>
      </trkpt>
      <trkpt lat="48.98745" lon="2.01095">
        <ele>158.2</ele>
        <time>2021-11-13T11:13:41Z</time>
      </trkpt>
      <trkpt lat="48.98737" lon="2.01091">
        <ele>154</ele>
        <time>2021-11-13T11:13:47Z</time>
      </trkpt>
      <trkpt lat="48.98734" lon="2.01088">
        <ele>152.4</ele>
        <time>2021-11-13T11:13:52Z</time>
      </trkpt>
      <trkpt lat="48.98729" lon="2.0108">
        <ele>145.5</ele>
        <time>2021-11-13T11:13:58Z</time>
      </trkpt>
      <trkpt lat="48.98724" lon="2.01078">
        <ele>142.4</ele>
        <time>2021-11-13T11:14:03Z</time>
      </trkpt>
      <trkpt lat="48.98719" lon="2.01075">
        <ele>142.4</ele>
        <time>2021-11-13T11:14:09Z</time>
      </trkpt>
      <trkpt lat="48.98714" lon="2.01072">
        <ele>136.7</ele>
        <time>2021-11-13T11:14:15Z</time>
      </trkpt>
      <trkpt lat="48.98707" lon="2.01068">
        <ele>138.8</ele>
        <time>2021-11-13T11:14:21Z</time>
      </trkpt>
      <trkpt lat="48.98705" lon="2.01067">
        <ele>140</ele>
        <time>2021-11-13T11:14:26Z</time>
      </trkpt>
      <trkpt lat="48.98703" lon="2.01071">
        <ele>139.4</ele>
        <time>2021-11-13T11:14:31Z</time>
      </trkpt>
      <trkpt lat="48.98707" lon="2.01078">
        <ele>140</ele>
        <time>2021-11-13T11:14:37Z</time>
      </trkpt>
      <trkpt lat="48.98709" lon="2.01086">
        <ele>140.8</ele>
        <time>2021-11-13T11:14:43Z</time>
      </trkpt>
      <trkpt lat="48.98708" lon="2.01094">
        <ele>142.8</ele>
        <time>2021-11-13T11:14:49Z</time>
      </trkpt>
      <trkpt lat="48.98708" lon="2.011">
        <ele>141.6</ele>
        <time>2021-11-13T11:14:54Z</time>
      </trkpt>
      <trkpt lat="48.98708" lon="2.01109">
        <ele>140.2</ele>
        <time>2021-11-13T11:15:00Z</time>
      </trkpt>
      <trkpt lat="48.9871" lon="2.01118">
        <ele>139.3</ele>
        <time>2021-11-13T11:15:06Z</time>
      </trkpt>
      <trkpt lat="48.98708" lon="2.01129">
        <ele>140.7</ele>
        <time>2021-11-13T11:15:12Z</time>
      </trkpt>
      <trkpt lat="48.98703" lon="2.01139">
        <ele>138.3</ele>
        <time>2021-11-13T11:15:18Z</time>
      </trkpt>
      <trkpt lat="48.98697" lon="2.01148">
        <ele>139.3</ele>
        <time>2021-11-13T11:15:24Z</time>
      </trkpt>
      <trkpt lat="48.98692" lon="2.01155">
        <ele>139.7</ele>
        <time>2021-11-13T11:15:29Z</time>
      </trkpt>
      <trkpt lat="48.98687" lon="2.01161">
        <ele>138.4</ele>
        <time>2021-11-13T11:15:35Z</time>
      </trkpt>
      <trkpt lat="48.98681" lon="2.01164">
        <ele>140.4</ele>
        <time>2021-11-13T11:15:40Z</time>
      </trkpt>
      <trkpt lat="48.98675" lon="2.01171">
        <ele>139.2</ele>
        <time>2021-11-13T11:15:45Z</time>
      </trkpt>
      <trkpt lat="48.98668" lon="2.01174">
        <ele>138.4</ele>
        <time>2021-11-13T11:15:51Z</time>
      </trkpt>
      <trkpt lat="48.98662" lon="2.01177">
        <ele>136.4</ele>
        <time>2021-11-13T11:15:56Z</time>
      </trkpt>
      <trkpt lat="48.98657" lon="2.01178">
        <ele>137.3</ele>
        <time>2021-11-13T11:16:01Z</time>
      </trkpt>
      <trkpt lat="48.9865" lon="2.01183">
        <ele>137.1</ele>
        <time>2021-11-13T11:16:07Z</time>
      </trkpt>
      <trkpt lat="48.98644" lon="2.01187">
        <ele>132.1</ele>
        <time>2021-11-13T11:16:12Z</time>
      </trkpt>
      <trkpt lat="48.98638" lon="2.01189">
        <ele>133.4</ele>
        <time>2021-11-13T11:16:17Z</time>
      </trkpt>
      <trkpt lat="48.98634" lon="2.01187">
        <ele>135.6</ele>
        <time>2021-11-13T11:16:23Z</time>
      </trkpt>
      <trkpt lat="48.98631" lon="2.01183">
        <ele>139.6</ele>
        <time>2021-11-13T11:16:29Z</time>
      </trkpt>
      <trkpt lat="48.98628" lon="2.01177">
        <ele>142.9</ele>
        <time>2021-11-13T11:16:35Z</time>
      </trkpt>
      <trkpt lat="48.98624" lon="2.01173">
        <ele>140.6</ele>
        <time>2021-11-13T11:16:41Z</time>
      </trkpt>
      <trkpt lat="48.98622" lon="2.01168">
        <ele>144.4</ele>
        <time>2021-11-13T11:16:46Z</time>
      </trkpt>
      <trkpt lat="48.98616" lon="2.01162">
        <ele>145.2</ele>
        <time>2021-11-13T11:16:52Z</time>
      </trkpt>
      <trkpt lat="48.98612" lon="2.01156">
        <ele>148.6</ele>
        <time>2021-11-13T11:16:57Z</time>
      </trkpt>
      <trkpt lat="48.98605" lon="2.0115">
        <ele>148.9</ele>
        <time>2021-11-13T11:17:03Z</time>
      </trkpt>
      <trkpt lat="48.98599" lon="2.01146">
        <ele>151.3</ele>
        <time>2021-11-13T11:17:09Z</time>
      </trkpt>
      <trkpt lat="48.98593" lon="2.01146">
        <ele>151.1</ele>
        <time>2021-11-13T11:17:15Z</time>
      </trkpt>
      <trkpt lat="48.98589" lon="2.0115">
        <ele>150.6</ele>
        <time>2021-11-13T11:17:20Z</time>
      </trkpt>
      <trkpt lat="48.98586" lon="2.01152">
        <ele>153.2</ele>
        <time>2021-11-13T11:17:25Z</time>
      </trkpt>
      <trkpt lat="48.9858" lon="2.01155">
        <ele>155.3</ele>
        <time>2021-11-13T11:17:31Z</time>
      </trkpt>
      <trkpt lat="48.98574" lon="2.01157">
        <ele>157.3</ele>
        <time>2021-11-13T11:17:37Z</time>
      </trkpt>
      <trkpt lat="48.98569" lon="2.01158">
        <ele>157.2</ele>
        <time>2021-11-13T11:17:42Z</time>
      </trkpt>
      <trkpt lat="48.98562" lon="2.0116">
        <ele>160.8</ele>
        <time>2021-11-13T11:17:48Z</time>
      </trkpt>
      <trkpt lat="48.98558" lon="2.01163">
        <ele>162.8</ele>
        <time>2021-11-13T11:17:53Z</time>
      </trkpt>
      <trkpt lat="48.98553" lon="2.01164">
        <ele>166</ele>
        <time>2021-11-13T11:17:58Z</time>
      </trkpt>
      <trkpt lat="48.98545" lon="2.01167">
        <ele>166.9</ele>
        <time>2021-11-13T11:18:04Z</time>
      </trkpt>
      <trkpt lat="48.98539" lon="2.01168">
        <ele>162.6</ele>
        <time>2021-11-13T11:18:09Z</time>
      </trkpt>
      <trkpt lat="48.98533" lon="2.01172">
        <ele>166.9</ele>
        <time>2021-11-13T11:18:14Z</time>
      </trkpt>
      <trkpt lat="48.98529" lon="2.01175">
        <ele>167.6</ele>
        <time>2021-11-13T11:18:20Z</time>
      </trkpt>
      <trkpt lat="48.98525" lon="2.01176">
        <ele>164.4</ele>
        <time>2021-11-13T11:18:25Z</time>
      </trkpt>
      <trkpt lat="48.98518" lon="2.0118">
        <ele>166.9</ele>
        <time>2021-11-13T11:18:30Z</time>
      </trkpt>
      <trkpt lat="48.98511" lon="2.01184">
        <ele>169.3</ele>
        <time>2021-11-13T11:18:36Z</time>
      </trkpt>
      <trkpt lat="48.98507" lon="2.0119">
        <ele>169.9</ele>
        <time>2021-11-13T11:18:42Z</time>
      </trkpt>
      <trkpt lat="48.98505" lon="2.0119">
        <ele>169.7</ele>
        <time>2021-11-13T11:18:48Z</time>
      </trkpt>
      <trkpt lat="48.98504" lon="2.01191">
        <ele>169</ele>
        <time>2021-11-13T11:18:53Z</time>
      </trkpt>
      <trkpt lat="48.98504" lon="2.01191">
        <ele>168</ele>
        <time>2021-11-13T11:18:58Z</time>
      </trkpt>
      <trkpt lat="48.98499" lon="2.01186">
        <ele>163.3</ele>
        <time>2021-11-13T11:19:04Z</time>
      </trkpt>
      <trkpt lat="48.98495" lon="2.01178">
        <ele>166.7</ele>
        <time>2021-11-13T11:19:10Z</time>
      </trkpt>
      <trkpt lat="48.98489" lon="2.01169">
        <ele>163.6</ele>
        <time>2021-11-13T11:19:16Z</time>
      </trkpt>
      <trkpt lat="48.98484" lon="2.01161">
        <ele>163.2</ele>
        <time>2021-11-13T11:19:22Z</time>
      </trkpt>
      <trkpt lat="48.98481" lon="2.01152">
        <ele>164.3</ele>
        <time>2021-11-13T11:19:27Z</time>
      </trkpt>
      <trkpt lat="48.98479" lon="2.01141">
        <ele>161.5</ele>
        <time>2021-11-13T11:19:32Z</time>
      </trkpt>
      <trkpt lat="48.98477" lon="2.01129">
        <ele>155.9</ele>
        <time>2021-11-13T11:19:39Z</time>
      </trkpt>
      <trkpt lat="48.98476" lon="2.0112">
        <ele>154.8</ele>
        <time>2021-11-13T11:19:44Z</time>
      </trkpt>
      <trkpt lat="48.98476" lon="2.01112">
        <ele>156.1</ele>
        <time>2021-11-13T11:19:49Z</time>
      </trkpt>
      <trkpt lat="48.98477" lon="2.01098">
        <ele>153.7</ele>
        <time>2021-11-13T11:19:55Z</time>
      </trkpt>
      <trkpt lat="48.98473" lon="2.01083">
        <ele>152.7</ele>
        <time>2021-11-13T11:20:01Z</time>
      </trkpt>
      <trkpt lat="48.98472" lon="2.01074">
        <ele>155.6</ele>
        <time>2021-11-13T11:20:06Z</time>
      </trkpt>
      <trkpt lat="48.98469" lon="2.01064">
        <ele>157</ele>
        <time>2021-11-13T11:20:12Z</time>
      </trkpt>
      <trkpt lat="48.98467" lon="2.01052">
        <ele>155.3</ele>
        <time>2021-11-13T11:20:17Z</time>
      </trkpt>
      <trkpt lat="48.98467" lon="2.01037">
        <ele>157.6</ele>
        <time>2021-11-13T11:20:23Z</time>
      </trkpt>
      <trkpt lat="48.9847" lon="2.01027">
        <ele>157.5</ele>
        <time>2021-11-13T11:20:28Z</time>
      </trkpt>
      <trkpt lat="48.98472" lon="2.01017">
        <ele>156</ele>
        <time>2021-11-13T11:20:34Z</time>
      </trkpt>
      <trkpt lat="48.98471" lon="2.01006">
        <ele>157.5</ele>
        <time>2021-11-13T11:20:39Z</time>
      </trkpt>
      <trkpt lat="48.98473" lon="2.00996">
        <ele>156.5</ele>
        <time>2021-11-13T11:20:44Z</time>
      </trkpt>
      <trkpt lat="48.98472" lon="2.00981">
        <ele>155.8</ele>
        <time>2021-11-13T11:20:50Z</time>
      </trkpt>
      <trkpt lat="48.98471" lon="2.0097">
        <ele>153.5</ele>
        <time>2021-11-13T11:20:55Z</time>
      </trkpt>
      <trkpt lat="48.98472" lon="2.00962">
        <ele>155.3</ele>
        <time>2021-11-13T11:21:00Z</time>
      </trkpt>
      <trkpt lat="48.98474" lon="2.00954">
        <ele>148.4</ele>
        <time>2021-11-13T11:21:06Z</time>
      </trkpt>
      <trkpt lat="48.98475" lon="2.00943">
        <ele>148.7</ele>
        <time>2021-11-13T11:21:11Z</time>
      </trkpt>
      <trkpt lat="48.98477" lon="2.00932">
        <ele>149.6</ele>
        <time>2021-11-13T11:21:16Z</time>
      </trkpt>
      <trkpt lat="48.98475" lon="2.00922">
        <ele>147.1</ele>
        <time>2021-11-13T11:21:21Z</time>
      </trkpt>
      <trkpt lat="48.98475" lon="2.00914">
        <ele>145.3</ele>
        <time>2021-11-13T11:21:27Z</time>
      </trkpt>
      <trkpt lat="48.98474" lon="2.00905">
        <ele>149.4</ele>
        <time>2021-11-13T11:21:32Z</time>
      </trkpt>
      <trkpt lat="48.98475" lon="2.00894">
        <ele>144.8</ele>
        <time>2021-11-13T11:21:38Z</time>
      </trkpt>
      <trkpt lat="48.98475" lon="2.00881">
        <ele>145.5</ele>
        <time>2021-11-13T11:21:43Z</time>
      </trkpt>
      <trkpt lat="48.98473" lon="2.00869">
        <ele>142</ele>
        <time>2021-11-13T11:21:48Z</time>
      </trkpt>
      <trkpt lat="48.98472" lon="2.0086">
        <ele>142.6</ele>
        <time>2021-11-13T11:21:53Z</time>
      </trkpt>
      <trkpt lat="48.9847" lon="2.00848">
        <ele>140.8</ele>
        <time>2021-11-13T11:21:59Z</time>
      </trkpt>
      <trkpt lat="48.98469" lon="2.00839">
        <ele>143.3</ele>
        <time>2021-11-13T11:22:04Z</time>
      </trkpt>
      <trkpt lat="48.98467" lon="2.00829">
        <ele>141.6</ele>
        <time>2021-11-13T11:22:10Z</time>
      </trkpt>
      <trkpt lat="48.98466" lon="2.00819">
        <ele>141.1</ele>
        <time>2021-11-13T11:22:15Z</time>
      </trkpt>
      <trkpt lat="48.98465" lon="2.00806">
        <ele>142.4</ele>
        <time>2021-11-13T11:22:20Z</time>
      </trkpt>
      <trkpt lat="48.98466" lon="2.00796">
        <ele>137.4</ele>
        <time>2021-11-13T11:22:25Z</time>
      </trkpt>
      <trkpt lat="48.98464" lon="2.00783">
        <ele>137.5</ele>
        <time>2021-11-13T11:22:31Z</time>
      </trkpt>
      <trkpt lat="48.98463" lon="2.00772">
        <ele>136</ele>
        <time>2021-11-13T11:22:36Z</time>
      </trkpt>
      <trkpt lat="48.9846" lon="2.00758">
        <ele>135.1</ele>
        <time>2021-11-13T11:22:42Z</time>
      </trkpt>
      <trkpt lat="48.98458" lon="2.00747">
        <ele>136.3</ele>
        <time>2021-11-13T11:22:48Z</time>
      </trkpt>
      <trkpt lat="48.98455" lon="2.00741">
        <ele>137.7</ele>
        <time>2021-11-13T11:22:53Z</time>
      </trkpt>
      <trkpt lat="48.98452" lon="2.00728">
        <ele>134.4</ele>
        <time>2021-11-13T11:22:59Z</time>
      </trkpt>
      <trkpt lat="48.9845" lon="2.00716">
        <ele>134.2</ele>
        <time>2021-11-13T11:23:05Z</time>
      </trkpt>
      <trkpt lat="48.98448" lon="2.00708">
        <ele>134.1</ele>
        <time>2021-11-13T11:23:10Z</time>
      </trkpt>
      <trkpt lat="48.98445" lon="2.007">
        <ele>128.8</ele>
        <time>2021-11-13T11:23:16Z</time>
      </trkpt>
      <trkpt lat="48.9844" lon="2.00689">
        <ele>128.6</ele>
        <time>2021-11-13T11:23:22Z</time>
      </trkpt>
      <trkpt lat="48.98436" lon="2.00685">
        <ele>125.7</ele>
        <time>2021-11-13T11:23:27Z</time>
      </trkpt>
      <trkpt lat="48.98433" lon="2.00678">
        <ele>127.1</ele>
        <time>2021-11-13T11:23:32Z</time>
      </trkpt>
      <trkpt lat="48.98428" lon="2.0067">
        <ele>122.1</ele>
        <time>2021-11-13T11:23:38Z</time>
      </trkpt>
      <trkpt lat="48.98426" lon="2.00664">
        <ele>120.4</ele>
        <time>2021-11-13T11:23:43Z</time>
      </trkpt>
      <trkpt lat="48.98422" lon="2.00654">
        <ele>118.5</ele>
        <time>2021-11-13T11:23:49Z</time>
      </trkpt>
      <trkpt lat="48.98419" lon="2.00646">
        <ele>119</ele>
        <time>2021-11-13T11:23:54Z</time>
      </trkpt>
      <trkpt lat="48.98414" lon="2.00639">
        <ele>118.5</ele>
        <time>2021-11-13T11:23:59Z</time>
      </trkpt>
      <trkpt lat="48.9841" lon="2.00633">
        <ele>120.3</ele>
        <time>2021-11-13T11:24:05Z</time>
      </trkpt>
      <trkpt lat="48.98406" lon="2.00626">
        <ele>115.9</ele>
        <time>2021-11-13T11:24:10Z</time>
      </trkpt>
      <trkpt lat="48.98396" lon="2.00626">
        <ele>113.8</ele>
        <time>2021-11-13T11:24:16Z</time>
      </trkpt>
      <trkpt lat="48.98389" lon="2.00634">
        <ele>115.7</ele>
        <time>2021-11-13T11:24:22Z</time>
      </trkpt>
      <trkpt lat="48.98384" lon="2.0064">
        <ele>116</ele>
        <time>2021-11-13T11:24:27Z</time>
      </trkpt>
      <trkpt lat="48.98378" lon="2.00647">
        <ele>117.9</ele>
        <time>2021-11-13T11:24:32Z</time>
      </trkpt>
      <trkpt lat="48.98372" lon="2.00653">
        <ele>116</ele>
        <time>2021-11-13T11:24:38Z</time>
      </trkpt>
      <trkpt lat="48.98366" lon="2.0066">
        <ele>117.8</ele>
        <time>2021-11-13T11:24:44Z</time>
      </trkpt>
      <trkpt lat="48.98359" lon="2.0067">
        <ele>124.2</ele>
        <time>2021-11-13T11:24:50Z</time>
      </trkpt>
      <trkpt lat="48.98354" lon="2.00676">
        <ele>125</ele>
        <time>2021-11-13T11:24:56Z</time>
      </trkpt>
      <trkpt lat="48.98351" lon="2.00685">
        <ele>122.9</ele>
        <time>2021-11-13T11:25:02Z</time>
      </trkpt>
      <trkpt lat="48.98347" lon="2.00691">
        <ele>125.9</ele>
        <time>2021-11-13T11:25:07Z</time>
      </trkpt>
      <trkpt lat="48.98344" lon="2.00695">
        <ele>125.3</ele>
        <time>2021-11-13T11:25:13Z</time>
      </trkpt>
      <trkpt lat="48.9834" lon="2.00701">
        <ele>122.5</ele>
        <time>2021-11-13T11:25:19Z</time>
      </trkpt>
      <trkpt lat="48.98338" lon="2.00709">
        <ele>125.5</ele>
        <time>2021-11-13T11:25:25Z</time>
      </trkpt>
      <trkpt lat="48.9834" lon="2.00718">
        <ele>125</ele>
        <time>2021-11-13T11:25:31Z</time>
      </trkpt>
      <trkpt lat="48.98341" lon="2.00726">
        <ele>126.4</ele>
        <time>2021-11-13T11:25:36Z</time>
      </trkpt>
      <trkpt lat="48.98337" lon="2.00732">
        <ele>125.8</ele>
        <time>2021-11-13T11:25:41Z</time>
      </trkpt>
      <trkpt lat="48.9833" lon="2.0074">
        <ele>124.8</ele>
        <time>2021-11-13T11:25:47Z</time>
      </trkpt>
      <trkpt lat="48.98324" lon="2.00748">
        <ele>127.1</ele>
        <time>2021-11-13T11:25:53Z</time>
      </trkpt>
      <trkpt lat="48.98318" lon="2.00758">
        <ele>131.1</ele>
        <time>2021-11-13T11:25:59Z</time>
      </trkpt>
      <trkpt lat="48.98314" lon="2.00764">
        <ele>132.4</ele>
        <time>2021-11-13T11:26:04Z</time>
      </trkpt>
      <trkpt lat="48.98308" lon="2.0077">
        <ele>131.9</ele>
        <time>2021-11-13T11:26:09Z</time>
      </trkpt>
      <trkpt lat="48.98302" lon="2.00781">
        <ele>129.1</ele>
        <time>2021-11-13T11:26:15Z</time>
      </trkpt>
      <trkpt lat="48.98297" lon="2.00788">
        <ele>133.4</ele>
        <time>2021-11-13T11:26:20Z</time>
      </trkpt>
      <trkpt lat="48.98292" lon="2.00796">
        <ele>133.8</ele>
        <time>2021-11-13T11:26:26Z</time>
      </trkpt>
      <trkpt lat="48.98287" lon="2.00803">
        <ele>133.4</ele>
        <time>2021-11-13T11:26:32Z</time>
      </trkpt>
      <trkpt lat="48.98282" lon="2.00813">
        <ele>131.9</ele>
        <time>2021-11-13T11:26:38Z</time>
      </trkpt>
      <trkpt lat="48.9828" lon="2.00822">
        <ele>134.6</ele>
        <time>2021-11-13T11:26:43Z</time>
      </trkpt>
      <trkpt lat="48.98277" lon="2.00832">
        <ele>130.4</ele>
        <time>2021-11-13T11:26:48Z</time>
      </trkpt>
      <trkpt lat="48.98272" lon="2.00843">
        <ele>131.6</ele>
        <time>2021-11-13T11:26:54Z</time>
      </trkpt>
      <trkpt lat="48.98267" lon="2.00856">
        <ele>133.4</ele>
        <time>2021-11-13T11:27:00Z</time>
      </trkpt>
      <trkpt lat="48.98263" lon="2.00865">
        <ele>131.5</ele>
        <time>2021-11-13T11:27:06Z</time>
      </trkpt>
      <trkpt lat="48.9826" lon="2.00872">
        <ele>132.5</ele>
        <time>2021-11-13T11:27:11Z</time>
      </trkpt>
      <trkpt lat="48.98255" lon="2.00882">
        <ele>132.4</ele>
        <time>2021-11-13T11:27:16Z</time>
      </trkpt>
      <trkpt lat="48.98251" lon="2.0089">
        <ele>130.8</ele>
        <time>2021-11-13T11:27:21Z</time>
      </trkpt>
      <trkpt lat="48.98244" lon="2.00901">
        <ele>129.8</ele>
        <time>2021-11-13T11:27:27Z</time>
      </trkpt>
      <trkpt lat="48.98236" lon="2.00911">
        <ele>131.6</ele>
        <time>2021-11-13T11:27:33Z</time>
      </trkpt>
      <trkpt lat="48.98229" lon="2.00917">
        <ele>128.9</ele>
        <time>2021-11-13T11:27:39Z</time>
      </trkpt>
      <trkpt lat="48.98223" lon="2.00925">
        <ele>130.5</ele>
        <time>2021-11-13T11:27:45Z</time>
      </trkpt>
      <trkpt lat="48.98215" lon="2.00933">
        <ele>131.4</ele>
        <time>2021-11-13T11:27:51Z</time>
      </trkpt>
      <trkpt lat="48.98209" lon="2.0094">
        <ele>130.3</ele>
        <time>2021-11-13T11:27:57Z</time>
      </trkpt>
      <trkpt lat="48.98203" lon="2.00949">
        <ele>129.1</ele>
        <time>2021-11-13T11:28:03Z</time>
      </trkpt>
      <trkpt lat="48.98197" lon="2.00957">
        <ele>130.5</ele>
        <time>2021-11-13T11:28:08Z</time>
      </trkpt>
      <trkpt lat="48.98192" lon="2.00964">
        <ele>129.8</ele>
        <time>2021-11-13T11:28:14Z</time>
      </trkpt>
      <trkpt lat="48.98186" lon="2.00972">
        <ele>131.4</ele>
        <time>2021-11-13T11:28:19Z</time>
      </trkpt>
      <trkpt lat="48.98181" lon="2.00981">
        <ele>130.9</ele>
        <time>2021-11-13T11:28:24Z</time>
      </trkpt>
      <trkpt lat="48.98176" lon="2.00992">
        <ele>129.4</ele>
        <time>2021-11-13T11:28:30Z</time>
      </trkpt>
      <trkpt lat="48.98174" lon="2.01">
        <ele>129.1</ele>
        <time>2021-11-13T11:28:35Z</time>
      </trkpt>
      <trkpt lat="48.98173" lon="2.0101">
        <ele>129.8</ele>
        <time>2021-11-13T11:28:41Z</time>
      </trkpt>
      <trkpt lat="48.98175" lon="2.01021">
        <ele>130.5</ele>
        <time>2021-11-13T11:28:47Z</time>
      </trkpt>
      <trkpt lat="48.98178" lon="2.01029">
        <ele>132.1</ele>
        <time>2021-11-13T11:28:52Z</time>
      </trkpt>
      <trkpt lat="48.98183" lon="2.01038">
        <ele>132.7</ele>
        <time>2021-11-13T11:28:58Z</time>
      </trkpt>
      <trkpt lat="48.98187" lon="2.01045">
        <ele>134.5</ele>
        <time>2021-11-13T11:29:04Z</time>
      </trkpt>
      <trkpt lat="48.98193" lon="2.01053">
        <ele>136.2</ele>
        <time>2021-11-13T11:29:09Z</time>
      </trkpt>
      <trkpt lat="48.98199" lon="2.0106">
        <ele>135.8</ele>
        <time>2021-11-13T11:29:15Z</time>
      </trkpt>
      <trkpt lat="48.98206" lon="2.01068">
        <ele>133.2</ele>
        <time>2021-11-13T11:29:20Z</time>
      </trkpt>
      <trkpt lat="48.98211" lon="2.01076">
        <ele>134.8</ele>
        <time>2021-11-13T11:29:26Z</time>
      </trkpt>
      <trkpt lat="48.98215" lon="2.01081">
        <ele>138.7</ele>
        <time>2021-11-13T11:29:31Z</time>
      </trkpt>
      <trkpt lat="48.98219" lon="2.01088">
        <ele>137.3</ele>
        <time>2021-11-13T11:29:36Z</time>
      </trkpt>
      <trkpt lat="48.98222" lon="2.01097">
        <ele>133.8</ele>
        <time>2021-11-13T11:29:42Z</time>
      </trkpt>
      <trkpt lat="48.98227" lon="2.01105">
        <ele>133.3</ele>
        <time>2021-11-13T11:29:47Z</time>
      </trkpt>
      <trkpt lat="48.98229" lon="2.01107">
        <ele>135.6</ele>
        <time>2021-11-13T11:29:53Z</time>
      </trkpt>
      <trkpt lat="48.98229" lon="2.01111">
        <ele>138.9</ele>
        <time>2021-11-13T11:29:59Z</time>
      </trkpt>
      <trkpt lat="48.98225" lon="2.0112">
        <ele>134.8</ele>
        <time>2021-11-13T11:30:05Z</time>
      </trkpt>
      <trkpt lat="48.98221" lon="2.01128">
        <ele>136.6</ele>
        <time>2021-11-13T11:30:10Z</time>
      </trkpt>
      <trkpt lat="48.98216" lon="2.01136">
        <ele>138.6</ele>
        <time>2021-11-13T11:30:16Z</time>
      </trkpt>
      <trkpt lat="48.98211" lon="2.01144">
        <ele>139.7</ele>
        <time>2021-11-13T11:30:21Z</time>
      </trkpt>
      <trkpt lat="48.98206" lon="2.01153">
        <ele>144.6</ele>
        <time>2021-11-13T11:30:27Z</time>
      </trkpt>
      <trkpt lat="48.98198" lon="2.0116">
        <ele>145.1</ele>
        <time>2021-11-13T11:30:33Z</time>
      </trkpt>
      <trkpt lat="48.9819" lon="2.01166">
        <ele>145.3</ele>
        <time>2021-11-13T11:30:38Z</time>
      </trkpt>
      <trkpt lat="48.98183" lon="2.01169">
        <ele>145.9</ele>
        <time>2021-11-13T11:30:44Z</time>
      </trkpt>
      <trkpt lat="48.98175" lon="2.01174">
        <ele>145.3</ele>
        <time>2021-11-13T11:30:50Z</time>
      </trkpt>
      <trkpt lat="48.98166" lon="2.01181">
        <ele>145.4</ele>
        <time>2021-11-13T11:30:56Z</time>
      </trkpt>
      <trkpt lat="48.98161" lon="2.01189">
        <ele>145.8</ele>
        <time>2021-11-13T11:31:02Z</time>
      </trkpt>
      <trkpt lat="48.98156" lon="2.01195">
        <ele>145.2</ele>
        <time>2021-11-13T11:31:07Z</time>
      </trkpt>
      <trkpt lat="48.98153" lon="2.01204">
        <ele>141.7</ele>
        <time>2021-11-13T11:31:12Z</time>
      </trkpt>
      <trkpt lat="48.9815" lon="2.01214">
        <ele>143.7</ele>
        <time>2021-11-13T11:31:18Z</time>
      </trkpt>
      <trkpt lat="48.98146" lon="2.01225">
        <ele>143.9</ele>
        <time>2021-11-13T11:31:24Z</time>
      </trkpt>
      <trkpt lat="48.98141" lon="2.01238">
        <ele>144.3</ele>
        <time>2021-11-13T11:31:30Z</time>
      </trkpt>
      <trkpt lat="48.98144" lon="2.01252">
        <ele>143.9</ele>
        <time>2021-11-13T11:31:38Z</time>
      </trkpt>
      <trkpt lat="48.98151" lon="2.01261">
        <ele>145</ele>
        <time>2021-11-13T11:31:44Z</time>
      </trkpt>
      <trkpt lat="48.98157" lon="2.01266">
        <ele>142.4</ele>
        <time>2021-11-13T11:31:49Z</time>
      </trkpt>
      <trkpt lat="48.98163" lon="2.01271">
        <ele>144.4</ele>
        <time>2021-11-13T11:31:55Z</time>
      </trkpt>
      <trkpt lat="48.9817" lon="2.01276">
        <ele>142.7</ele>
        <time>2021-11-13T11:32:01Z</time>
      </trkpt>
      <trkpt lat="48.98177" lon="2.01281">
        <ele>145.6</ele>
        <time>2021-11-13T11:32:07Z</time>
      </trkpt>
      <trkpt lat="48.98182" lon="2.01286">
        <ele>147.3</ele>
        <time>2021-11-13T11:32:12Z</time>
      </trkpt>
      <trkpt lat="48.98188" lon="2.01288">
        <ele>146.5</ele>
        <time>2021-11-13T11:32:17Z</time>
      </trkpt>
      <trkpt lat="48.98195" lon="2.01291">
        <ele>146.1</ele>
        <time>2021-11-13T11:32:23Z</time>
      </trkpt>
      <trkpt lat="48.98201" lon="2.01296">
        <ele>146.7</ele>
        <time>2021-11-13T11:32:29Z</time>
      </trkpt>
      <trkpt lat="48.98207" lon="2.01301">
        <ele>147</ele>
        <time>2021-11-13T11:32:34Z</time>
      </trkpt>
      <trkpt lat="48.98212" lon="2.01304">
        <ele>146</ele>
        <time>2021-11-13T11:32:39Z</time>
      </trkpt>
      <trkpt lat="48.98213" lon="2.01305">
        <ele>149.5</ele>
        <time>2021-11-13T11:32:45Z</time>
      </trkpt>
      <trkpt lat="48.98214" lon="2.01305">
        <ele>150.2</ele>
        <time>2021-11-13T11:32:50Z</time>
      </trkpt>
      <trkpt lat="48.98213" lon="2.01312">
        <ele>151.2</ele>
        <time>2021-11-13T11:32:55Z</time>
      </trkpt>
      <trkpt lat="48.98212" lon="2.01321">
        <ele>151.1</ele>
        <time>2021-11-13T11:33:00Z</time>
      </trkpt>
      <trkpt lat="48.98209" lon="2.01333">
        <ele>151.5</ele>
        <time>2021-11-13T11:33:06Z</time>
      </trkpt>
      <trkpt lat="48.98208" lon="2.01341">
        <ele>153.3</ele>
        <time>2021-11-13T11:33:11Z</time>
      </trkpt>
      <trkpt lat="48.98211" lon="2.01347">
        <ele>154.4</ele>
        <time>2021-11-13T11:33:17Z</time>
      </trkpt>
      <trkpt lat="48.98217" lon="2.01353">
        <ele>152.9</ele>
        <time>2021-11-13T11:33:23Z</time>
      </trkpt>
      <trkpt lat="48.98223" lon="2.01358">
        <ele>151.1</ele>
        <time>2021-11-13T11:33:28Z</time>
      </trkpt>
      <trkpt lat="48.98226" lon="2.01364">
        <ele>152.1</ele>
        <time>2021-11-13T11:33:33Z</time>
      </trkpt>
      <trkpt lat="48.9823" lon="2.01374">
        <ele>149.8</ele>
        <time>2021-11-13T11:33:38Z</time>
      </trkpt>
      <trkpt lat="48.9823" lon="2.01387">
        <ele>149.9</ele>
        <time>2021-11-13T11:33:44Z</time>
      </trkpt>
      <trkpt lat="48.98232" lon="2.01397">
        <ele>149.7</ele>
        <time>2021-11-13T11:33:49Z</time>
      </trkpt>
      <trkpt lat="48.98232" lon="2.0141">
        <ele>150.5</ele>
        <time>2021-11-13T11:33:54Z</time>
      </trkpt>
      <trkpt lat="48.98229" lon="2.01418">
        <ele>146.4</ele>
        <time>2021-11-13T11:34:00Z</time>
      </trkpt>
      <trkpt lat="48.98228" lon="2.0143">
        <ele>149.5</ele>
        <time>2021-11-13T11:34:05Z</time>
      </trkpt>
      <trkpt lat="48.98228" lon="2.01442">
        <ele>151</ele>
        <time>2021-11-13T11:34:11Z</time>
      </trkpt>
      <trkpt lat="48.98231" lon="2.01453">
        <ele>152.3</ele>
        <time>2021-11-13T11:34:16Z</time>
      </trkpt>
      <trkpt lat="48.98234" lon="2.01463">
        <ele>154.7</ele>
        <time>2021-11-13T11:34:21Z</time>
      </trkpt>
      <trkpt lat="48.98236" lon="2.01474">
        <ele>154.8</ele>
        <time>2021-11-13T11:34:27Z</time>
      </trkpt>
      <trkpt lat="48.98232" lon="2.01481">
        <ele>154.4</ele>
        <time>2021-11-13T11:34:33Z</time>
      </trkpt>
      <trkpt lat="48.98227" lon="2.01489">
        <ele>158.6</ele>
        <time>2021-11-13T11:34:38Z</time>
      </trkpt>
      <trkpt lat="48.98223" lon="2.01498">
        <ele>154.5</ele>
        <time>2021-11-13T11:34:44Z</time>
      </trkpt>
      <trkpt lat="48.9822" lon="2.01508">
        <ele>154.6</ele>
        <time>2021-11-13T11:34:50Z</time>
      </trkpt>
      <trkpt lat="48.98216" lon="2.01514">
        <ele>154.4</ele>
        <time>2021-11-13T11:34:55Z</time>
      </trkpt>
      <trkpt lat="48.98214" lon="2.01521">
        <ele>150.5</ele>
        <time>2021-11-13T11:35:00Z</time>
      </trkpt>
      <trkpt lat="48.98213" lon="2.01528">
        <ele>149.9</ele>
        <time>2021-11-13T11:35:06Z</time>
      </trkpt>
      <trkpt lat="48.98208" lon="2.01538">
        <ele>149.9</ele>
        <time>2021-11-13T11:35:12Z</time>
      </trkpt>
      <trkpt lat="48.98207" lon="2.01552">
        <ele>148.1</ele>
        <time>2021-11-13T11:35:18Z</time>
      </trkpt>
      <trkpt lat="48.98199" lon="2.01562">
        <ele>152.8</ele>
        <time>2021-11-13T11:35:24Z</time>
      </trkpt>
      <trkpt lat="48.98192" lon="2.01573">
        <ele>153</ele>
        <time>2021-11-13T11:35:29Z</time>
      </trkpt>
      <trkpt lat="48.98184" lon="2.01585">
        <ele>156.2</ele>
        <time>2021-11-13T11:35:35Z</time>
      </trkpt>
      <trkpt lat="48.98181" lon="2.0159">
        <ele>155.5</ele>
        <time>2021-11-13T11:35:40Z</time>
      </trkpt>
      <trkpt lat="48.98179" lon="2.01601">
        <ele>159</ele>
        <time>2021-11-13T11:35:46Z</time>
      </trkpt>
      <trkpt lat="48.98178" lon="2.01611">
        <ele>159.3</ele>
        <time>2021-11-13T11:35:52Z</time>
      </trkpt>
      <trkpt lat="48.98176" lon="2.01619">
        <ele>159.2</ele>
        <time>2021-11-13T11:35:58Z</time>
      </trkpt>
      <trkpt lat="48.98173" lon="2.01635">
        <ele>152.7</ele>
        <time>2021-11-13T11:36:03Z</time>
      </trkpt>
      <trkpt lat="48.98173" lon="2.01644">
        <ele>152.5</ele>
        <time>2021-11-13T11:36:08Z</time>
      </trkpt>
      <trkpt lat="48.98176" lon="2.01655">
        <ele>148.5</ele>
        <time>2021-11-13T11:36:13Z</time>
      </trkpt>
      <trkpt lat="48.98177" lon="2.01665">
        <ele>147.4</ele>
        <time>2021-11-13T11:36:19Z</time>
      </trkpt>
      <trkpt lat="48.98175" lon="2.01674">
        <ele>145.3</ele>
        <time>2021-11-13T11:36:25Z</time>
      </trkpt>
      <trkpt lat="48.98169" lon="2.01668">
        <ele>144.4</ele>
        <time>2021-11-13T11:36:30Z</time>
      </trkpt>
      <trkpt lat="48.98166" lon="2.01659">
        <ele>142.5</ele>
        <time>2021-11-13T11:36:35Z</time>
      </trkpt>
      <trkpt lat="48.98158" lon="2.01649">
        <ele>141.7</ele>
        <time>2021-11-13T11:36:40Z</time>
      </trkpt>
      <trkpt lat="48.98151" lon="2.01643">
        <ele>139.3</ele>
        <time>2021-11-13T11:36:46Z</time>
      </trkpt>
      <trkpt lat="48.98147" lon="2.01635">
        <ele>140.4</ele>
        <time>2021-11-13T11:36:52Z</time>
      </trkpt>
      <trkpt lat="48.98141" lon="2.01628">
        <ele>141.8</ele>
        <time>2021-11-13T11:36:58Z</time>
      </trkpt>
      <trkpt lat="48.98138" lon="2.01618">
        <ele>144.3</ele>
        <time>2021-11-13T11:37:03Z</time>
      </trkpt>
      <trkpt lat="48.98135" lon="2.01605">
        <ele>142.6</ele>
        <time>2021-11-13T11:37:09Z</time>
      </trkpt>
      <trkpt lat="48.98133" lon="2.01592">
        <ele>143.2</ele>
        <time>2021-11-13T11:37:15Z</time>
      </trkpt>
      <trkpt lat="48.98132" lon="2.01579">
        <ele>142.6</ele>
        <time>2021-11-13T11:37:21Z</time>
      </trkpt>
      <trkpt lat="48.9813" lon="2.01568">
        <ele>141.1</ele>
        <time>2021-11-13T11:37:26Z</time>
      </trkpt>
      <trkpt lat="48.98126" lon="2.01557">
        <ele>140.9</ele>
        <time>2021-11-13T11:37:32Z</time>
      </trkpt>
      <trkpt lat="48.98122" lon="2.01548">
        <ele>140.6</ele>
        <time>2021-11-13T11:37:38Z</time>
      </trkpt>
      <trkpt lat="48.98121" lon="2.01536">
        <ele>139.3</ele>
        <time>2021-11-13T11:37:44Z</time>
      </trkpt>
      <trkpt lat="48.98122" lon="2.01524">
        <ele>137.5</ele>
        <time>2021-11-13T11:37:49Z</time>
      </trkpt>
      <trkpt lat="48.98123" lon="2.01513">
        <ele>138.3</ele>
        <time>2021-11-13T11:37:54Z</time>
      </trkpt>
      <trkpt lat="48.98124" lon="2.01502">
        <ele>136.6</ele>
        <time>2021-11-13T11:38:00Z</time>
      </trkpt>
      <trkpt lat="48.98128" lon="2.01495">
        <ele>138.8</ele>
        <time>2021-11-13T11:38:06Z</time>
      </trkpt>
      <trkpt lat="48.98133" lon="2.01488">
        <ele>139.2</ele>
        <time>2021-11-13T11:38:12Z</time>
      </trkpt>
      <trkpt lat="48.98137" lon="2.0148">
        <ele>140.3</ele>
        <time>2021-11-13T11:38:17Z</time>
      </trkpt>
      <trkpt lat="48.9814" lon="2.01472">
        <ele>142.3</ele>
        <time>2021-11-13T11:38:22Z</time>
      </trkpt>
      <trkpt lat="48.98143" lon="2.01465">
        <ele>143.2</ele>
        <time>2021-11-13T11:38:27Z</time>
      </trkpt>
      <trkpt lat="48.98148" lon="2.01456">
        <ele>146.4</ele>
        <time>2021-11-13T11:38:33Z</time>
      </trkpt>
      <trkpt lat="48.98154" lon="2.0145">
        <ele>147.4</ele>
        <time>2021-11-13T11:38:38Z</time>
      </trkpt>
      <trkpt lat="48.9816" lon="2.01445">
        <ele>149.7</ele>
        <time>2021-11-13T11:38:44Z</time>
      </trkpt>
      <trkpt lat="48.98166" lon="2.01439">
        <ele>146.5</ele>
        <time>2021-11-13T11:38:50Z</time>
      </trkpt>
      <trkpt lat="48.98171" lon="2.01436">
        <ele>144.4</ele>
        <time>2021-11-13T11:38:55Z</time>
      </trkpt>
      <trkpt lat="48.98178" lon="2.01429">
        <ele>143.8</ele>
        <time>2021-11-13T11:39:01Z</time>
      </trkpt>
      <trkpt lat="48.98176" lon="2.0142">
        <ele>144.1</ele>
        <time>2021-11-13T11:39:07Z</time>
      </trkpt>
      <trkpt lat="48.98172" lon="2.0141">
        <ele>142.2</ele>
        <time>2021-11-13T11:39:12Z</time>
      </trkpt>
      <trkpt lat="48.98168" lon="2.014">
        <ele>142.9</ele>
        <time>2021-11-13T11:39:18Z</time>
      </trkpt>
      <trkpt lat="48.98163" lon="2.01391">
        <ele>143.8</ele>
        <time>2021-11-13T11:39:23Z</time>
      </trkpt>
      <trkpt lat="48.98159" lon="2.01384">
        <ele>142.4</ele>
        <time>2021-11-13T11:39:28Z</time>
      </trkpt>
      <trkpt lat="48.98153" lon="2.01378">
        <ele>139.1</ele>
        <time>2021-11-13T11:39:33Z</time>
      </trkpt>
      <trkpt lat="48.98146" lon="2.01372">
        <ele>138.8</ele>
        <time>2021-11-13T11:39:38Z</time>
      </trkpt>
      <trkpt lat="48.9814" lon="2.01368">
        <ele>138.7</ele>
        <time>2021-11-13T11:39:43Z</time>
      </trkpt>
      <trkpt lat="48.98133" lon="2.01364">
        <ele>139.8</ele>
        <time>2021-11-13T11:39:48Z</time>
      </trkpt>
      <trkpt lat="48.98125" lon="2.01358">
        <ele>142.1</ele>
        <time>2021-11-13T11:39:54Z</time>
      </trkpt>
      <trkpt lat="48.98118" lon="2.01355">
        <ele>139.5</ele>
        <time>2021-11-13T11:40:00Z</time>
      </trkpt>
      <trkpt lat="48.98115" lon="2.01348">
        <ele>138.2</ele>
        <time>2021-11-13T11:40:05Z</time>
      </trkpt>
      <trkpt lat="48.98119" lon="2.01339">
        <ele>135.8</ele>
        <time>2021-11-13T11:40:10Z</time>
      </trkpt>
      <trkpt lat="48.98122" lon="2.01332">
        <ele>132.1</ele>
        <time>2021-11-13T11:40:15Z</time>
      </trkpt>
      <trkpt lat="48.98125" lon="2.01321">
        <ele>135.4</ele>
        <time>2021-11-13T11:40:21Z</time>
      </trkpt>
      <trkpt lat="48.98127" lon="2.01311">
        <ele>134.5</ele>
        <time>2021-11-13T11:40:27Z</time>
      </trkpt>
      <trkpt lat="48.98124" lon="2.01297">
        <ele>137.1</ele>
        <time>2021-11-13T11:40:33Z</time>
      </trkpt>
      <trkpt lat="48.98121" lon="2.01287">
        <ele>140.4</ele>
        <time>2021-11-13T11:40:38Z</time>
      </trkpt>
      <trkpt lat="48.98123" lon="2.01275">
        <ele>138.4</ele>
        <time>2021-11-13T11:40:44Z</time>
      </trkpt>
      <trkpt lat="48.98127" lon="2.01264">
        <ele>138.2</ele>
        <time>2021-11-13T11:40:50Z</time>
      </trkpt>
      <trkpt lat="48.98132" lon="2.01257">
        <ele>138.9</ele>
        <time>2021-11-13T11:40:55Z</time>
      </trkpt>
      <trkpt lat="48.98136" lon="2.01247">
        <ele>140.4</ele>
        <time>2021-11-13T11:41:01Z</time>
      </trkpt>
      <trkpt lat="48.98135" lon="2.01235">
        <ele>139.4</ele>
        <time>2021-11-13T11:41:06Z</time>
      </trkpt>
      <trkpt lat="48.98131" lon="2.01226">
        <ele>141.2</ele>
        <time>2021-11-13T11:41:11Z</time>
      </trkpt>
      <trkpt lat="48.98124" lon="2.01218">
        <ele>140.9</ele>
        <time>2021-11-13T11:41:16Z</time>
      </trkpt>
      <trkpt lat="48.98116" lon="2.01209">
        <ele>139.5</ele>
        <time>2021-11-13T11:41:22Z</time>
      </trkpt>
      <trkpt lat="48.98111" lon="2.012">
        <ele>138.3</ele>
        <time>2021-11-13T11:41:28Z</time>
      </trkpt>
      <trkpt lat="48.98105" lon="2.01193">
        <ele>138.4</ele>
        <time>2021-11-13T11:41:33Z</time>
      </trkpt>
      <trkpt lat="48.981" lon="2.01187">
        <ele>136.1</ele>
        <time>2021-11-13T11:41:38Z</time>
      </trkpt>
      <trkpt lat="48.98095" lon="2.01177">
        <ele>134.3</ele>
        <time>2021-11-13T11:41:44Z</time>
      </trkpt>
      <trkpt lat="48.98089" lon="2.01166">
        <ele>136.6</ele>
        <time>2021-11-13T11:41:50Z</time>
      </trkpt>
      <trkpt lat="48.98087" lon="2.01155">
        <ele>134.2</ele>
        <time>2021-11-13T11:41:56Z</time>
      </trkpt>
      <trkpt lat="48.98088" lon="2.01144">
        <ele>134.2</ele>
        <time>2021-11-13T11:42:02Z</time>
      </trkpt>
      <trkpt lat="48.98091" lon="2.01133">
        <ele>132.7</ele>
        <time>2021-11-13T11:42:08Z</time>
      </trkpt>
      <trkpt lat="48.98089" lon="2.01119">
        <ele>133.1</ele>
        <time>2021-11-13T11:42:14Z</time>
      </trkpt>
      <trkpt lat="48.98083" lon="2.01108">
        <ele>133.5</ele>
        <time>2021-11-13T11:42:20Z</time>
      </trkpt>
      <trkpt lat="48.98077" lon="2.01101">
        <ele>132.6</ele>
        <time>2021-11-13T11:42:25Z</time>
      </trkpt>
      <trkpt lat="48.98071" lon="2.01093">
        <ele>133.5</ele>
        <time>2021-11-13T11:42:31Z</time>
      </trkpt>
      <trkpt lat="48.98066" lon="2.01085">
        <ele>131.3</ele>
        <time>2021-11-13T11:42:36Z</time>
      </trkpt>
      <trkpt lat="48.98059" lon="2.01078">
        <ele>131.8</ele>
        <time>2021-11-13T11:42:42Z</time>
      </trkpt>
      <trkpt lat="48.98054" lon="2.0107">
        <ele>128.3</ele>
        <time>2021-11-13T11:42:48Z</time>
      </trkpt>
      <trkpt lat="48.98049" lon="2.01062">
        <ele>126.4</ele>
        <time>2021-11-13T11:42:54Z</time>
      </trkpt>
      <trkpt lat="48.98045" lon="2.01055">
        <ele>127</ele>
        <time>2021-11-13T11:42:59Z</time>
      </trkpt>
      <trkpt lat="48.98038" lon="2.01047">
        <ele>123.2</ele>
        <time>2021-11-13T11:43:05Z</time>
      </trkpt>
      <trkpt lat="48.98032" lon="2.01037">
        <ele>122.3</ele>
        <time>2021-11-13T11:43:11Z</time>
      </trkpt>
      <trkpt lat="48.98027" lon="2.01029">
        <ele>123.1</ele>
        <time>2021-11-13T11:43:16Z</time>
      </trkpt>
      <trkpt lat="48.98022" lon="2.01018">
        <ele>124.2</ele>
        <time>2021-11-13T11:43:22Z</time>
      </trkpt>
      <trkpt lat="48.98018" lon="2.01008">
        <ele>125.9</ele>
        <time>2021-11-13T11:43:27Z</time>
      </trkpt>
      <trkpt lat="48.98012" lon="2.00999">
        <ele>123.5</ele>
        <time>2021-11-13T11:43:33Z</time>
      </trkpt>
      <trkpt lat="48.98007" lon="2.00991">
        <ele>119.7</ele>
        <time>2021-11-13T11:43:38Z</time>
      </trkpt>
      <trkpt lat="48.98002" lon="2.00982">
        <ele>118.6</ele>
        <time>2021-11-13T11:43:44Z</time>
      </trkpt>
      <trkpt lat="48.97997" lon="2.00974">
        <ele>121.6</ele>
        <time>2021-11-13T11:43:49Z</time>
      </trkpt>
      <trkpt lat="48.97993" lon="2.00965">
        <ele>116.6</ele>
        <time>2021-11-13T11:43:55Z</time>
      </trkpt>
      <trkpt lat="48.97987" lon="2.00957">
        <ele>118.6</ele>
        <time>2021-11-13T11:44:01Z</time>
      </trkpt>
      <trkpt lat="48.97981" lon="2.00945">
        <ele>119</ele>
        <time>2021-11-13T11:44:06Z</time>
      </trkpt>
      <trkpt lat="48.97979" lon="2.0094">
        <ele>118</ele>
        <time>2021-11-13T11:44:11Z</time>
      </trkpt>
      <trkpt lat="48.97984" lon="2.00937">
        <ele>115.9</ele>
        <time>2021-11-13T11:44:17Z</time>
      </trkpt>
      <trkpt lat="48.97991" lon="2.00926">
        <ele>113.8</ele>
        <time>2021-11-13T11:44:22Z</time>
      </trkpt>
      <trkpt lat="48.97997" lon="2.0092">
        <ele>111.7</ele>
        <time>2021-11-13T11:44:28Z</time>
      </trkpt>
      <trkpt lat="48.98005" lon="2.00914">
        <ele>113.8</ele>
        <time>2021-11-13T11:44:34Z</time>
      </trkpt>
      <trkpt lat="48.98009" lon="2.00905">
        <ele>113.4</ele>
        <time>2021-11-13T11:44:39Z</time>
      </trkpt>
      <trkpt lat="48.98017" lon="2.00899">
        <ele>111.7</ele>
        <time>2021-11-13T11:44:45Z</time>
      </trkpt>
      <trkpt lat="48.98024" lon="2.00888">
        <ele>114.7</ele>
        <time>2021-11-13T11:44:51Z</time>
      </trkpt>
      <trkpt lat="48.98031" lon="2.00879">
        <ele>115.4</ele>
        <time>2021-11-13T11:44:57Z</time>
      </trkpt>
      <trkpt lat="48.98037" lon="2.00871">
        <ele>113.4</ele>
        <time>2021-11-13T11:45:02Z</time>
      </trkpt>
      <trkpt lat="48.98042" lon="2.00864">
        <ele>116.4</ele>
        <time>2021-11-13T11:45:08Z</time>
      </trkpt>
      <trkpt lat="48.9805" lon="2.00857">
        <ele>116.6</ele>
        <time>2021-11-13T11:45:14Z</time>
      </trkpt>
      <trkpt lat="48.98054" lon="2.00851">
        <ele>117.3</ele>
        <time>2021-11-13T11:45:19Z</time>
      </trkpt>
      <trkpt lat="48.98055" lon="2.00842">
        <ele>115.3</ele>
        <time>2021-11-13T11:45:25Z</time>
      </trkpt>
      <trkpt lat="48.98052" lon="2.0083">
        <ele>112.5</ele>
        <time>2021-11-13T11:45:30Z</time>
      </trkpt>
      <trkpt lat="48.98048" lon="2.00819">
        <ele>114.4</ele>
        <time>2021-11-13T11:45:36Z</time>
      </trkpt>
      <trkpt lat="48.98044" lon="2.00813">
        <ele>114.1</ele>
        <time>2021-11-13T11:45:41Z</time>
      </trkpt>
      <trkpt lat="48.98038" lon="2.00805">
        <ele>114</ele>
        <time>2021-11-13T11:45:47Z</time>
      </trkpt>
      <trkpt lat="48.98032" lon="2.00797">
        <ele>112.8</ele>
        <time>2021-11-13T11:45:52Z</time>
      </trkpt>
      <trkpt lat="48.98025" lon="2.00789">
        <ele>110.8</ele>
        <time>2021-11-13T11:45:58Z</time>
      </trkpt>
      <trkpt lat="48.98021" lon="2.00782">
        <ele>111.5</ele>
        <time>2021-11-13T11:46:03Z</time>
      </trkpt>
      <trkpt lat="48.9802" lon="2.00773">
        <ele>108.9</ele>
        <time>2021-11-13T11:46:08Z</time>
      </trkpt>
      <trkpt lat="48.98021" lon="2.00761">
        <ele>109.6</ele>
        <time>2021-11-13T11:46:14Z</time>
      </trkpt>
      <trkpt lat="48.98025" lon="2.00749">
        <ele>105.6</ele>
        <time>2021-11-13T11:46:20Z</time>
      </trkpt>
      <trkpt lat="48.98031" lon="2.00742">
        <ele>106.5</ele>
        <time>2021-11-13T11:46:25Z</time>
      </trkpt>
      <trkpt lat="48.98037" lon="2.00735">
        <ele>108.6</ele>
        <time>2021-11-13T11:46:31Z</time>
      </trkpt>
      <trkpt lat="48.98042" lon="2.00729">
        <ele>108.4</ele>
        <time>2021-11-13T11:46:36Z</time>
      </trkpt>
      <trkpt lat="48.98047" lon="2.00722">
        <ele>105.5</ele>
        <time>2021-11-13T11:46:42Z</time>
      </trkpt>
      <trkpt lat="48.98054" lon="2.00714">
        <ele>103.5</ele>
        <time>2021-11-13T11:46:48Z</time>
      </trkpt>
      <trkpt lat="48.9806" lon="2.00705">
        <ele>105.4</ele>
        <time>2021-11-13T11:46:54Z</time>
      </trkpt>
      <trkpt lat="48.98066" lon="2.00698">
        <ele>104.8</ele>
        <time>2021-11-13T11:46:59Z</time>
      </trkpt>
      <trkpt lat="48.98071" lon="2.00691">
        <ele>108.7</ele>
        <time>2021-11-13T11:47:04Z</time>
      </trkpt>
      <trkpt lat="48.98077" lon="2.00685">
        <ele>108.2</ele>
        <time>2021-11-13T11:47:09Z</time>
      </trkpt>
      <trkpt lat="48.98083" lon="2.00677">
        <ele>108.3</ele>
        <time>2021-11-13T11:47:15Z</time>
      </trkpt>
      <trkpt lat="48.9809" lon="2.0067">
        <ele>109.1</ele>
        <time>2021-11-13T11:47:20Z</time>
      </trkpt>
      <trkpt lat="48.98097" lon="2.00661">
        <ele>107.6</ele>
        <time>2021-11-13T11:47:26Z</time>
      </trkpt>
      <trkpt lat="48.98103" lon="2.00654">
        <ele>107.3</ele>
        <time>2021-11-13T11:47:31Z</time>
      </trkpt>
      <trkpt lat="48.9811" lon="2.00645">
        <ele>105.6</ele>
        <time>2021-11-13T11:47:37Z</time>
      </trkpt>
      <trkpt lat="48.98116" lon="2.00638">
        <ele>104.9</ele>
        <time>2021-11-13T11:47:42Z</time>
      </trkpt>
      <trkpt lat="48.98122" lon="2.00632">
        <ele>105.7</ele>
        <time>2021-11-13T11:47:48Z</time>
      </trkpt>
      <trkpt lat="48.9813" lon="2.00625">
        <ele>105.6</ele>
        <time>2021-11-13T11:47:54Z</time>
      </trkpt>
      <trkpt lat="48.98137" lon="2.00614">
        <ele>106.3</ele>
        <time>2021-11-13T11:48:00Z</time>
      </trkpt>
      <trkpt lat="48.98143" lon="2.00607">
        <ele>105.7</ele>
        <time>2021-11-13T11:48:05Z</time>
      </trkpt>
      <trkpt lat="48.98144" lon="2.00595">
        <ele>107.8</ele>
        <time>2021-11-13T11:48:11Z</time>
      </trkpt>
      <trkpt lat="48.98139" lon="2.00583">
        <ele>109.5</ele>
        <time>2021-11-13T11:48:17Z</time>
      </trkpt>
      <trkpt lat="48.98133" lon="2.00573">
        <ele>110.6</ele>
        <time>2021-11-13T11:48:22Z</time>
      </trkpt>
      <trkpt lat="48.9813" lon="2.00567">
        <ele>107.7</ele>
        <time>2021-11-13T11:48:27Z</time>
      </trkpt>
      <trkpt lat="48.98128" lon="2.00563">
        <ele>108.9</ele>
        <time>2021-11-13T11:48:33Z</time>
      </trkpt>
      <trkpt lat="48.98128" lon="2.00558">
        <ele>103.4</ele>
        <time>2021-11-13T11:48:39Z</time>
      </trkpt>
      <trkpt lat="48.98123" lon="2.00555">
        <ele>104</ele>
        <time>2021-11-13T11:48:44Z</time>
      </trkpt>
      <trkpt lat="48.98114" lon="2.00559">
        <ele>101.3</ele>
        <time>2021-11-13T11:48:50Z</time>
      </trkpt>
      <trkpt lat="48.98108" lon="2.00564">
        <ele>102.6</ele>
        <time>2021-11-13T11:48:55Z</time>
      </trkpt>
      <trkpt lat="48.98099" lon="2.00572">
        <ele>98.3</ele>
        <time>2021-11-13T11:49:01Z</time>
      </trkpt>
      <trkpt lat="48.98092" lon="2.00576">
        <ele>96.6</ele>
        <time>2021-11-13T11:49:07Z</time>
      </trkpt>
      <trkpt lat="48.98088" lon="2.00577">
        <ele>96.1</ele>
        <time>2021-11-13T11:49:12Z</time>
      </trkpt>
      <trkpt lat="48.98077" lon="2.00583">
        <ele>96</ele>
        <time>2021-11-13T11:49:17Z</time>
      </trkpt>
      <trkpt lat="48.98067" lon="2.00589">
        <ele>96.3</ele>
        <time>2021-11-13T11:49:23Z</time>
      </trkpt>
      <trkpt lat="48.9806" lon="2.00595">
        <ele>97.1</ele>
        <time>2021-11-13T11:49:28Z</time>
      </trkpt>
      <trkpt lat="48.98053" lon="2.00599">
        <ele>96.6</ele>
        <time>2021-11-13T11:49:33Z</time>
      </trkpt>
      <trkpt lat="48.98046" lon="2.006">
        <ele>96.5</ele>
        <time>2021-11-13T11:49:38Z</time>
      </trkpt>
      <trkpt lat="48.98039" lon="2.00605">
        <ele>94.5</ele>
        <time>2021-11-13T11:49:44Z</time>
      </trkpt>
      <trkpt lat="48.98033" lon="2.0061">
        <ele>93.6</ele>
        <time>2021-11-13T11:49:49Z</time>
      </trkpt>
      <trkpt lat="48.98027" lon="2.00614">
        <ele>94.5</ele>
        <time>2021-11-13T11:49:54Z</time>
      </trkpt>
      <trkpt lat="48.98019" lon="2.00618">
        <ele>93.3</ele>
        <time>2021-11-13T11:50:00Z</time>
      </trkpt>
      <trkpt lat="48.98013" lon="2.00622">
        <ele>95.6</ele>
        <time>2021-11-13T11:50:05Z</time>
      </trkpt>
      <trkpt lat="48.98009" lon="2.00624">
        <ele>95.8</ele>
        <time>2021-11-13T11:50:10Z</time>
      </trkpt>
      <trkpt lat="48.98008" lon="2.00623">
        <ele>94.7</ele>
        <time>2021-11-13T11:50:16Z</time>
      </trkpt>
      <trkpt lat="48.98008" lon="2.00623">
        <ele>94.7</ele>
        <time>2021-11-13T11:50:21Z</time>
      </trkpt>
    </trkseg>
  </trk>
</gpx>